     2.11           OBSERVATION DATA    G (GPS)             RINEX VERSION / TYPE
teqc 2010Oct21 OPUS Account 20111027 17:11:12UTC            PGM / RUN BY / DATE
C 1525                                                      MARKER NAME
3009                                                        MARKER NUMBER
CSMIDDLETON NGS                                             OBSERVER / AGENCY
0220390627 TRIMBLE R7 2.32                                  REC # / TYPE / VERS
60124849 TRM41249.00 NONE                                   ANT # / TYPE
  -763619.8789 -5540174.1597  3056428.6041                  APPROX POSITION XYZ
        2.0010        0.0000        0.0000                  ANTENNA: DELTA H/E/N
     1     1                                                WAVELENGTH FACT L1/2
     5    L1    L2    C1    P1    P2                        # / TYPES OF OBSERV
    15                                                      LEAP SECONDS
  2011     8    17     0     0   30.0000000     GPS         TIME OF FIRST OBS
                                                            END OF HEADER
 11  8 17  0  0 30.0000000  0  8G12G28G17G10G05G04G09G02
 -18149683.48058 -14112824.87555  22310088.6334                   22310086.9064
 -39807624.39556 -30997848.78553  24139694.8524                   24139696.8834
 -40329040.91457 -31396202.29355  22588147.2584                   22588145.3204
 -28444598.60558 -22124921.21956  21161538.6334                   21161537.4384
 -10905099.27757  -8467837.55955  23218921.1254                   23218922.9384
 -40259564.52058 -31317786.47756  20826325.0704                   20826323.9064
 -20681797.93057 -16072546.22755  22802636.8054                   22802637.3164
 -33925259.34458 -26426828.89156  20745408.2664                   20745404.0784
 11  8 17  0  1  0.0000000  0  8G12G28G17G10G05G04G09G02
 -18272093.91047 -14208209.59445  22286794.6484                   22286792.9654
 -39747720.94946 -30951170.98443  24151094.3054                   24151096.8404
 -40325093.06247 -31393126.08245  22588898.0634                   22588896.4144
 -28524635.67248 -22187287.71546  21146308.2114                   21146306.5594
 -11048961.67247  -8579937.90645  23191544.9064                   23191546.5514
 -40236786.77348 -31300037.59046  20830659.7584                   20830658.0514
 -20660966.91847 -16056314.32445  22806600.8834                   22806601.3674
 -33986988.66048 -26474929.62546  20733661.3284                   20733657.6094
 11  8 17  0  1 30.0000000  0  8G12G28G17G10G05G04G09G02
 -18394192.11747 -14303351.00845  22263559.8914                   22263558.2114
 -39687566.40246 -30904297.53943  24162541.8134                   24162544.1604
 -40320985.23447 -31389925.20345  22589679.3444                   22589678.3594
 -28604076.78948 -22249189.83646  21131190.7344                   21131189.6994
 -11192670.57447  -8691918.69945  23164197.6884                   23164199.3244
 -40213682.85948 -31282034.55546  20835056.0314                   20835054.1454
 -20639712.95747 -16039752.86744  22810645.3674                   22810646.0124
 -34048324.65248 -26522723.87146  20721989.7114                   20721985.9064
 11  8 17  0  2  0.0000000  0  8G12G28G17G10G05G04G09G02
 -18515987.36748 -14398256.37145  22240383.2424                   22240381.4734
 -39627174.55546 -30857239.22343  24174034.1954                   24174036.2274
 -40316728.91447 -31386608.62545  22590489.4924                   22590488.3404
 -28682931.75848 -22310635.23446  21116184.8284                   21116184.3484
 -11336235.09047  -8803786.94145  23136878.1024                   23136879.7934
 -40190267.07848 -31263788.49646  20839511.8134                   20839510.2074
 -20618051.03547 -16022873.49245  22814767.5474                   22814768.1684
 -34109280.13748 -26570221.61746  20710389.9774                   20710386.4884
 11  8 17  0  2 30.0000000  0  8G12G28G17G10G05G04G09G02
 -18637483.21947 -14492928.42245  22217263.2344                   22217261.6134
 -39566553.73846 -30810002.46143  24185569.7344                   24185572.3244
 -40312329.34447 -31383180.41845  22591327.1564                   22591326.0944
 -28761204.14548 -22371626.66446  21101290.2894                   21101289.1644
 -11479658.26647  -8915545.09845  23109585.8284                   23109586.5664
 -40166547.81648 -31245305.97346  20844025.1884                   20844024.1644
 -20595990.63347 -16005683.63744  22818966.0234                   22818966.0824
 -34169861.62148 -26617427.93746  20698861.8754                   20698857.8284
 11  8 17  0  3  0.0000000  0  8G12G28G17G10G05G04G09G02
 -18758679.16447 -14587366.78945  22194200.6884                   22194198.8444
 -39505707.84846 -30762590.34043  24197148.3914                   24197150.8634
 -40307788.33647 -31379641.99645  22592191.1564                   22592189.7814
 -28838894.69948 -22432164.72346  21086506.3204                   21086505.2774
 -11622939.35547  -9027192.48845  23082320.1094                   23082321.5234
 -40142529.82048 -31226590.66846  20848595.9534                   20848594.7734
 -20573537.06247 -15988187.40245  22823237.9384                   22823239.1684
 -34230072.03548 -26664345.10546  20687403.8984                   20687400.3554
 11  8 17  0  3 30.0000000  0  8G12G28G17G10G05G04G09G02
 -18879566.25448 -14681564.48446  22171196.2974                   22171194.8444
 -39444632.66446 -30714999.45742  24208770.6484                   24208773.8554
 -40303098.69547 -31375987.77345  22593083.4534                   22593082.0354
 -28915995.00448 -22492242.85546  21071834.5234                   21071833.5744
 -11766069.06247  -9138721.97344  23055083.0314                   23055083.5164
 -40118208.68048 -31207639.14546  20853224.0864                   20853222.9064
 -20550687.08647 -15970382.28145  22827586.1564                   22827587.7544
 -34289905.83248 -26710968.81246  20676017.9614                   20676014.2274
 11  8 17  0  4  0.0000000  0  8G12G28G17G10G05G04G09G02
 -19000143.67248 -14775520.87545  22148251.1334                   22148249.2344
 -39383332.09045 -30667233.03142  24220435.9224                   24220439.6214
 -40298261.60247 -31372218.63745  22594004.2814                   22594002.7664
 -28992504.75448 -22551860.80546  21057275.2034                   21057274.1054
 -11909046.18047  -9250132.54745  23027875.9614                   23027876.6804
 -40093588.92248 -31188454.94146  20857908.9614                   20857907.7384
 -20527445.86347 -15952272.30144  22832009.4224                   22832009.9024
 -34349365.34848 -26757300.87546  20664703.2894                   20664699.6524
 11  8 17  0  4 30.0000000  0  8G12G28G17G10G05G04G09G02
 -19120412.41448 -14869236.73045  22125364.7194                   22125362.9184
 -39321811.46115                  24232143.922
 -40293279.75047 -31368336.71945  22594952.4924                   22594950.9264
 -29068425.61348 -22611019.88746  21042828.0084                   21042826.6414
 -12051871.13347  -9361424.56245  23000697.0084                   23000697.4104
 -40068676.10948 -31169042.36746  20862649.7344                   20862648.3794
 -20503820.10247 -15933862.69144  22836505.0784                   22836505.9064
 -34408454.34848 -26803344.22346  20653458.9534                   20653454.9384
 11  8 17  0  5  0.0000000  0  8G12G28G17G10G05G04G09G02
 -19240369.56248 -14962709.80946  22102537.6254                   22102535.9184
 -39260072.133 6                  24243892.586
 -40288153.05947 -31364341.91845  22595928.1094                   22595927.0634
 -29143755.27748 -22669718.29746  21028493.1724                   21028492.0234
 -12194540.94547  -9472595.68445  22973547.5864                   22973548.2234
 -40043472.17648 -31149402.96146  20867446.0704                   20867444.6684
 -20479812.30147 -15915155.37144  22841073.9064                   22841074.5784
 -34467173.46148 -26849099.34846  20642284.8674                   20642281.4454
 11  8 17  0  5 30.0000000  0  7G12G17G10G05G04G09G02
 -19360005.68748 -15055932.71146  22079771.3054                   22079769.8324
 -40282873.40247 -31360227.91445  22596932.4694                   22596931.0784
 -29218485.07848 -22727949.28146  21014272.6564                   21014271.2544
 -12337045.46147  -9583638.00845  22946429.5554                   22946430.7464
 -40017973.07048 -31129533.55946  20872298.4454                   20872297.0664
 -20455419.18447 -15896147.80144  22845715.5474                   22845716.0234
 -34525516.84848 -26894561.71146  20631182.5634                   20631178.9654
 11  8 17  0  6  0.0000000  0  7G12G17G10G05G04G09G02
 -19479312.13348 -15148898.74246  22057068.5314                   22057066.6134
 -40277434.23447 -31355989.64145  22597967.3834                   22597966.2274
 -29292607.41048 -22785706.92246  21000167.7274                   21000166.5044
 -12479375.76647  -9694544.59845  22919344.8134                   22919345.7704
 -39992174.84448 -31109431.07046  20877207.8524                   20877206.3954
 -20430638.11347 -15876837.95344  22850431.3524                   22850432.2234
 -34583479.18748 -26939727.15646  20620152.8984                   20620148.6414
 11  8 17  0  6 30.0000000  0  7G12G17G10G05G04G09G02
 -19598283.97347 -15241604.03146  22034428.6724                   22034427.4924
 -40271832.52747 -31351624.68745  22599033.9224                   22599032.5904
 -29366117.77348 -22842987.68746  20986178.8834                   20986177.5554
 -12621526.28547  -9805311.07445  22892294.2114                   22892294.9184
 -39966077.69148 -31089095.63746  20882173.7114                   20882172.6024
 -20405470.16447 -15857226.60944  22855220.9144                   22855221.8444
 -34641058.86748 -26984594.41046  20609195.8834                   20609191.9104
 11  8 17  0  7  0.0000000  0  7G12G17G10G05G04G09G02
 -19716912.07448 -15334041.46546  22011854.3204                   22011852.5554
 -40266061.68047 -31347127.96545  22600131.8984                   22600130.6604
 -29439008.03948 -22899785.26646  20972308.3754                   20972306.7384
 -12763488.24247  -9915930.61745  22865279.8134                   22865280.8524
 -39939677.44548 -31068524.03946  20887197.1254                   20887195.8954
 -20379911.95747 -15837311.21344  22860084.4534                   22860084.9734
 -34698250.20748 -27029159.07046  20598312.5004                   20598309.0044
 11  8 17  0  7 30.0000000  0  7G12G17G10G05G04G09G02
 -19835197.02748 -15426211.52046  21989345.3594                   21989343.8714
 -40260123.61347 -31342500.92245  22601262.0944                   22601260.5744
 -29511279.51248 -22956100.66046  20958555.7424                   20958554.2034
 -12905261.53547 -10026403.15245  22838301.1174                   22838302.4774
 -39912979.46948 -31047720.43746  20892278.3284                   20892276.5514
 -20353970.05147 -15817096.80944  22865020.9064                   22865021.8204
 -34755057.08248 -27073424.14546  20587502.7344                   20587498.5434
 11  8 17  0  8  0.0000000  0  7G12G17G10G05G04G09G02
 -19953130.46147 -15518107.66446  21966903.6024                   21966901.6844
 -40254012.16847 -31337738.77045  22602424.6564                   22602423.7274
 -29582924.65248 -23011928.00046  20944921.7114                   20944920.4534
 -13046836.88747 -10136721.46145  22811359.4454                   22811360.7304
 -39885980.13748 -31026682.01646  20897415.8834                   20897414.5004
 -20327641.55947 -15796581.16844  22870031.6254                   22870032.0864
 -34811474.12948 -27117385.45746  20576766.5554                   20576762.5664
 11  8 17  0  8 30.0000000  0  7G12G17G10G05G04G09G02
 -20070715.77348 -15609732.53946  21944528.1254                   21944525.7774
 -40247732.98047 -31332845.92245  22603619.3834                   22603618.5234
 -29653948.37148 -23067271.12146  20931406.4384                   20931405.0514
 -13188217.69147 -10246888.16445  22784455.9924                   22784456.6454
 -39858688.17648 -31005415.57446  20902609.5004                   20902607.8554
 -20300936.21947 -15775771.87544  22875113.2584                   22875114.0044
 -34867508.53548 -27161048.61346  20566103.7664                   20566099.9924
 11  8 17  0  9  0.0000000  0  7G12G17G10G05G04G09G02
 -20187947.23848 -15701081.68446  21922219.7114                   21922217.0394
 -40241282.02347 -31327819.23845  22604847.1644                   22604845.2704
 -29724345.09848 -23122125.66846  20918010.5084                   20918009.1374
 -13329397.75047 -10356898.44945  22757590.2504                   22757590.8714
 -39831102.41048 -30983920.18446  20907858.7734                   20907857.4804
 -20273853.81247 -15754668.78144  22880266.6884                   22880267.5744
 -34923157.54348 -27204411.46546  20555514.2034                   20555510.0164
 11  8 17  0  9 30.0000000  0  7G12G17G10G05G04G09G02
 -20304824.18048 -15792154.58646  21899978.3674                   21899976.6884
 -40234660.40647 -31322659.55945  22606107.2664                   22606105.9344
 -29794115.07848 -23176491.85246  20904733.4224                   20904732.2194
 -13470376.34047 -10466751.75045  22730762.9924                   22730763.8094
 -39803227.16048 -30962199.23846  20913163.3984                   20913162.0904
 -20246399.67647 -15733276.02044  22885491.5704                   22885491.5554
 -34978424.15648 -27247476.33646  20544997.1174                   20544993.3984
 11  8 17  0 10  0.0000000  0  7G12G17G10G05G04G09G02
 -20421343.69547 -15882948.96946  21877805.6094                   21877803.0594
 -40227867.39547 -31317366.34445  22607400.1334                   22607397.9844
 -29863256.73448 -23230368.43046  20891576.1334                   20891574.9494
 -13611149.76247 -10576445.21145  22703974.8914                   22703974.7344
 -39775064.51248 -30940254.33246  20918522.5084                   20918520.9694
 -20218576.81647 -15711595.95744  22890785.8364                   22890786.3014
 -35033308.93748 -27290243.69146  20534552.9224                   20534549.0824
 11  8 17  0 10 30.0000000  0  7G12G17G10G05G04G09G02
 -20537508.16048 -15973466.69946  21855699.8984                   21855698.5124
 -40220907.16847 -31311942.82445  22608724.5394                   22608723.4144
 -29931773.10948 -23283757.78146  20878538.1804                   20878536.7274
 -13751719.94147 -10685980.27045  22677224.9304                   22677225.2234
 -39746621.53948 -30918090.99246  20923935.2734                   20923933.8134
 -20190393.31247 -15689634.85944  22896149.3914                   22896149.4574
 -35087817.26648 -27332717.70346  20524179.8674                   20524176.4804
 11  8 17  0 11  0.0000000  0  7G12G17G10G05G04G09G02
 -19077889.88347 -14836101.76646  22133456.3444                   22133454.2814
 -38638358.03147 -30078787.67645  22909873.4614                   22909872.5664
 -28424239.14148 -22109055.94546  21165412.4844                   21165410.6294
 -12316658.40247  -9567750.37945  22950307.3524                   22950308.7114
 -38142480.27048 -29668110.80146  21229193.0234                   21229191.3954
 -18586432.23847 -14439795.13344  23201372.7664                   23201373.5044
 -33566527.08248 -26147296.77746  20813672.1724                   20813668.5984
 11  8 17  0 11 30.0000000  0  7G12G17G10G05G04G09G02
 -19193312.31247 -14926041.28946  22111491.9774                   22111490.0204
 -38631038.00447 -30073083.78945  22911266.3754                   22911264.9734
 -28491476.41048 -22161448.58246  21152617.5554                   21152615.8554
 -12456789.43747  -9676943.25845  22923641.7584                   22923641.9224
 -38113459.67248 -29645497.35546  21234715.5864                   21234714.4104
 -18557513.65647 -14417261.23844  23206875.6334                   23206876.6684
 -33620261.33248 -26189167.60546  20803446.8834                   20803442.8874
 11  8 17  0 12  0.0000000  0  7G12G17G10G05G04G09G02
 -19308370.44947 -15015696.93746  22089596.8284                   22089595.2974
 -38623547.62547 -30067247.15645  22912691.5704                   22912690.1134
 -28558082.14848 -22213349.11346  21139942.4924                   21139941.0594
 -12596706.69147  -9785969.55145  22897016.2894                   22897016.0784
 -38084164.23048 -29622669.75046  21240289.9454                   21240289.0164
 -18528242.98047 -14394452.99244  23212446.4304                   23212446.7424
 -33673620.10248 -26230745.87147  20793293.3134                   20793288.9924
 11  8 17  0 12 30.0000000  0  7G12G17G10G05G04G09G02
 -19423063.43747 -15105068.07046  22067771.7114                   22067770.2074
 -38615887.79747 -30061278.48845  22914149.7424                   22914148.2304
 -28624056.85548 -22264757.95346  21127388.1644                   21127386.7344
 -12736409.37147  -9894828.66845  22870431.4224                   22870431.8244
 -38054597.99248 -29599631.14546  21245916.6804                   21245915.0434
 -18498625.33647 -14371374.39544  23218081.9774                   23218083.2774
 -33726606.18748 -26272033.72346  20783210.1254                   20783206.2734
 11  8 17  0 13  0.0000000  0  7G12G17G10G05G04G09G02
 -19537387.21147 -15194151.50846  22046016.4614                   22046014.5824
 -38608056.91447 -30055176.52345  22915639.6174                   22915638.5664
 -28689397.71948 -22315672.87946  21114953.8754                   21114952.8014
 -12875893.10947 -10003517.14545  22843888.9694                   22843889.0824
 -38024762.27348 -29576382.54346  21251594.1564                   21251592.8164
 -18468663.01647 -14348027.20344  23223783.6724                   23223784.7114
 -33779219.52348 -26313031.12546  20773198.1414                   20773194.7504
 11  8 17  0 13 30.0000000  0  7G12G17G10G05G04G09G02
 -19651357.40248 -15282959.42646  22024328.9454                   22024326.7704
 -38600072.13347 -30048954.62945  22917159.0084                   22917157.8714
 -28754120.89148 -22366106.49646  21102637.7814                   21102636.3134
 -13015172.49247 -10112046.40245  22817384.8444                   22817385.2034
 -37994676.80948 -29552939.33646  21257319.3204                   21257317.7664
 -18438377.15247 -14324427.90644  23229547.2664                   23229547.8674
 -33831478.44548 -26353752.35946  20763253.3364                   20763249.6214
 11  8 17  0 14  0.0000000  0  7G12G17G10G05G04G09G02
 -19764951.07048 -15371473.95346  22002712.3444                   22002710.7854
 -38591912.23047 -30042596.29345  22918712.0474                   22918711.0704
 -28818204.43748 -22416041.69546  21090443.2194                   21090441.8284
 -13154223.95747 -10220398.03945  22790923.4224                   22790923.9574
 -37964323.51248 -29529287.43446  21263094.8134                   21263093.7034
 -18407750.54347 -14300563.07844  23235375.0784                   23235375.7894
 -33883363.48848 -26394182.25846  20753380.2974                   20753376.5634
 11  8 17  0 14 30.0000000  0  7G12G17G10G05G04G09G02
 -19878178.45747 -15459703.06246  21981166.1884                   21981164.1214
 -38583589.70747 -30036111.24245  22920295.6174                   22920294.9064
 -28881660.36348 -22465487.85246  21078367.9144                   21078366.7464
 -13293057.53947 -10328579.93445  22764504.6564                   22764504.8794
 -37933717.64148 -29505438.71546  21268919.1334                   21268918.2504
 -18376799.75047 -14276445.67244  23241264.7034                   23241266.2504
 -33934888.34048 -26434331.49646  20743575.4304                   20743571.9104
 11  8 17  0 15  0.0000000  0  7G12G17G10G05G04G09G02
 -19991024.93448 -15547635.36346  21959692.0234                   21959690.1524
 -38575091.75847 -30029489.46945  22921912.8914                   22921911.7034
 -28944475.07448 -22514434.34446  21066414.4614                   21066413.0474
 -13431658.69147 -10436580.69945  22738129.5004                   22738129.6524
 -37902849.49248 -29481385.63746  21274793.1094                   21274792.1644
 -18345515.78947 -14252068.64144  23247218.3054                   23247218.5904
 -33986041.80948 -26474191.33646  20733841.2194                   20733837.4964
 11  8 17  0 15 30.0000000  0  7G12G17G10G05G04G09G02
 -20103486.78548 -15635267.96946  21938291.9224                   21938289.5234
 -38566416.90647 -30022729.88345  22923563.5944                   22923562.7234
 -29006646.29348 -22562879.42646  21054583.5474                   21054581.8284
 -13570023.05547 -10544396.94545  22711799.6334                   22711799.5234
 -37871720.31248 -29457129.14546  21280716.6954                   21280715.8364
 -18313901.12147 -14227433.89844  23253234.1804                   23253235.1484
 -34036823.90648 -26513761.78946  20724177.9224                   20724173.7384
 11  8 17  0 16  0.0000000  0  7G12G17G10G05G04G09G02
 -20215564.25048 -15722601.04346  21916963.6094                   21916961.9454
 -38557567.35547 -30015834.16045  22925248.1094                   22925246.7194
 -29068175.43748 -22610824.19146  21042875.0164                   21042873.4064
 -13708150.61347 -10652028.69945  22685515.1024                   22685515.2384
 -37840334.90248 -29432673.00846  21286689.3204                   21286688.4884
 -18281961.96547 -14202546.32444  23259312.0314                   23259313.1764
 -34087238.03148 -26553045.50446  20714584.2114                   20714580.1454
 11  8 17  0 16 30.0000000  0  7G12G17G10G05G04G09G02
 -20327254.82848 -15809632.65646  21895710.1334                   21895707.7894
 -38548542.38347 -30008801.71545  22926964.5944                   22926963.5594
 -29129060.93748 -22658267.42246  21031288.9694                   21031287.3874
 -13846038.11747 -10759473.39145  22659275.2734                   22659275.7624
 -37808695.70748 -29408019.09846  21292710.2894                   21292708.9414
 -18249701.55147 -14177408.41044  23265451.3204                   23265452.0354
 -34137285.25848 -26592043.32846  20705060.4694                   20705056.6994
 11  8 17  0 17  0.0000000  0  7G12G17G10G05G04G09G02
 -20438552.84048 -15896358.36346  21874530.5164                   21874528.4304
 -38539338.24247 -30001629.68445  22928716.2584                   22928715.7114
 -29189298.55948 -22705205.80146  21019825.9304                   21019824.2934
 -13983679.70747 -10866726.44545  22633083.2504                   22633083.0634
 -37776801.90648 -29383166.80546  21298779.2734                   21298777.7894
 -18217120.29747 -14152020.51644  23271651.0554                   23271652.0164
 -34186963.59448 -26630753.71146  20695606.9924                   20695602.9614
 11  8 17  0 17 30.0000000  0  7G12G17G10G05G04G09G02
 -20549467.93748 -15982785.69946  21853424.1414                   21853422.0864
 -38529966.28147 -29994326.87545  22930500.0394                   22930498.8554
 -29248899.19548 -22751647.84446  21008484.3984                   21008482.7194
 -14121083.97747 -10973794.59845  22606935.7194                   22606936.0944
 -37744667.63348 -29358127.12946  21304894.3134                   21304892.9414
 -18184233.61746 -14126394.59444  23277909.8674                   23277910.9024
 -34236285.79748 -26669186.58646  20686221.1884                   20686217.3204
 11  8 17  0 18  0.0000000  0  7G12G17G10G05G04G09G02
 -20659995.91848 -16068911.39846  21832391.1174                   21832389.2894
 -38520425.00047 -29986892.14545  22932316.0864                   22932314.2934
 -29307860.37948 -22797591.60546  20997264.4144                   20997262.8954
 -14258247.16847 -11080674.87945  22580834.6334                   22580834.6844
 -37712293.87548 -29332900.84046  21311054.7664                   21311053.6024
 -18151043.62546 -14100532.36344  23284225.2584                   23284226.2544
 -34285251.68748 -26707341.82846  20676903.3134                   20676899.5864
 11  8 17  0 18 30.0000000  0  7G12G17G10G05G04G09G02
 -20770129.48048 -16154729.74246  21811433.8754                   21811431.7114
 -38510708.42647 -29979320.83645  22934164.8204                   22934162.8444
 -29366175.57048 -22843031.99246  20986167.4694                   20986166.0234
 -14395161.05947 -11187360.92645  22554780.3134                   22554780.4694
 -37679677.88348 -29307485.79746  21317261.3674                   21317260.2114
 -18117548.58647 -14074432.41444  23290599.0944                   23290600.4184
 -34333857.03148 -26745216.10946  20667654.3984                   20667649.8364
 11  8 17  0 19  0.0000000  0  8G12G25G17G10G05G04G09G02
 -20879858.10248 -16240232.53946  21790552.9614                   21790550.8834
   1366033.12156   1091828.34053  24676903.3204                   24676905.1644
 -38500807.80147 -29971606.10545  22936049.4614                   22936047.5594
 -29423835.72348 -22887961.97746  20975194.9534                   20975193.4064
 -14531814.60947 -11293844.09045  22528776.0394                   22528776.0314
 -37646813.85948 -29281877.48446  21323515.5864                   21323514.0594
 -18083743.92247 -14048091.20344  23297031.7664                   23297033.2034
 -34382094.62548 -26782803.82846  20658474.7974                   20658471.1884
 11  8 17  0 19 30.0000000  0  8G12G25G17G10G05G04G09G02
 -20989183.59448 -16325421.22346  21769749.0394                   21769746.6644
   1223815.78546    981009.73043  24649839.8284                   24649842.1844
 -38490726.97747 -29963750.95745  22937967.1644                   22937966.0394
 -29480844.03548 -22932384.02046  20964346.8204                   20964345.2194
 -14668209.16847 -11400125.44545  22502821.0474                   22502821.1524
 -37613708.12148 -29256080.82446  21329815.1484                   21329813.5354
 -18049637.15247 -14021514.60544  23303522.3594                   23303523.7734
 -34429969.86748 -26820109.20346  20649364.3984                   20649360.6764
 11  8 17  0 20  0.0000000  0  8G12G25G17G10G05G04G09G02
 -21098121.44947 -16410307.84446  21749018.7734                   21749016.5944
   1081726.80146    870291.08643  24622801.2194                   24622803.5394
 -38480483.44947 -29955769.04345  22939916.6484                   22939914.6804
 -29537217.41448 -22976311.30546  20953619.0634                   20953617.8484
 -14804359.85547 -11506216.79745  22476911.9384                   22476911.8054
 -37580381.08248 -29230111.72746  21336157.0864                   21336155.9494
 -18015249.83647 -13994719.37144  23310066.5474                   23310067.1644
 -34477501.63348 -26857146.93446  20640319.3284                   20640315.8634
 11  8 17  0 20 30.0000000  0  8G12G25G17G10G05G04G09G02
 -21206667.38348 -16494889.06646  21728363.0944                   21728361.1174
    939770.03946    759675.48843  24595788.1254                   24595789.7814
 -38470074.97347 -29947658.58645  22941897.4224                   22941895.9264
 -29592953.71548 -23019742.16846  20943012.8594                   20943011.1374
 -14940262.33247 -11612114.70345  22451050.5784                   22451050.8914
 -37546833.47748 -29203970.75046  21342541.0084                   21342539.6214
 -17980584.24247 -13967707.35244  23316663.2974                   23316664.7894
 -34524689.49248 -26893916.67246  20631339.8984                   20631336.3014
 11  8 17  0 21  0.0000000  0  8G12G25G17G10G05G04G09G02
 -21314808.53948 -16579154.87946  21707784.5474                   21707782.6644
    797958.73046    649173.24643  24568801.4924                   24568804.4344
 -38459490.46547 -29939410.95745  22943911.5474                   22943909.8914
 -29648040.95748 -23062667.27346  20932529.7194                   20932528.8364
 -15075902.44947 -11717808.19545  22425239.7974                   22425239.0944
 -37513056.91848 -29177651.37146  21348968.3754                   21348967.2774
 -17945632.55147 -13940472.34444  23323314.4924                   23323314.9574
 -34571523.81648 -26930410.94546  20622427.3284                   20622423.8834
 11  8 17  0 21 30.0000000  0  8G12G25G17G10G05G04G09G02
 -21422540.14848 -16663101.56246  21687283.7274                   21687281.7194
    656297.08246    538787.62143  24541844.6174                   24541847.0514
 -38448727.52747 -29931024.30145  22945959.7424                   22945958.1994
 -29702476.73048 -23105084.73846  20922171.4694                   20922169.9804
 -15211275.81247 -11823293.82045  22399478.7664                   22399478.8444
 -37479051.73848 -29151153.85246  21355439.3364                   21355438.1604
 -17910396.52747 -13913015.81644  23330019.3984                   23330021.5274
 -34618003.80948 -26966629.10246  20613582.8674                   20613578.9734
 11  8 17  0 22  0.0000000  0  8G12G25G17G10G05G04G09G02
 -21529858.00048 -16746725.83246  21666861.5554                   21666859.7814
    514790.23346    428522.58344  24514916.8134                   24514918.7664
 -38437782.89847 -29922496.05145  22948042.0234                   22948041.1564
 -29756257.05948 -23146991.46546  20911937.1414                   20911935.8914
 -15346376.46947 -11928566.95345  22373769.6954                   22373769.6954
 -37444817.47748 -29124477.83646  21361953.9534                   21361952.6024
 -17874877.10247 -13885338.44144  23336778.4384                   23336780.1454
 -34664127.64148 -27002569.74247  20604805.7504                   20604801.5864
 11  8 17  0 22 30.0000000  0  8G12G25G17G10G05G04G09G02
 -21636770.37947 -16830034.15246  21646516.9384                   21646514.9964
    373429.42646    318371.33244  24488017.0084                   24488019.0944
 -38426667.09447 -29913834.45345  22950157.4064                   22950156.5004
 -29809392.12948 -23188395.39146  20901826.1884                   20901824.3714
 -15481213.30547 -12033634.52045  22348111.1564                   22348111.1884
 -37410367.55948 -29097633.75446  21368509.5394                   21368508.4144
 -17839088.85947 -13857451.59444  23343588.6174                   23343590.4574
 -34709907.83648 -27038242.60547  20596093.8834                   20596090.0274
 11  8 17  0 23  0.0000000  0  8G12G25G17G10G05G04G09G02
 -21743260.38748 -16913013.35546  21626252.5634                   21626250.6764
    232231.38347    208346.93844  24461147.3984                   24461149.8054
 -38415365.63747 -29905028.16045  22952308.2664                   22952306.6914
 -29861866.90648 -23229284.80546  20891840.0084                   20891838.7934
 -15615769.02047 -12138483.03545  22322506.0084                   22322505.1804
 -37375689.91848 -29070612.24246  21375108.6094                   21375107.7234
 -17803021.16046 -13829347.03144  23350452.7894                   23350453.8244
 -34755331.10948 -27073637.35246  20587450.2194                   20587446.2934
 11  8 17  0 23 30.0000000  0  8G12G25G17G10G05G04G09G02
 -21849323.85548 -16995660.19146  21606069.8674                   21606067.1804
     91200.39847     98452.71144  24434309.9924                   24434312.5164
 -38403875.54347 -29896074.87145  22954494.8134                   22954493.6604
 -29913678.48848 -23269657.44146  20881980.5784                   20881979.3324
 -15750038.73447 -12243108.68745  22296955.3914                   22296954.3984
 -37340784.96948 -29043413.60545  21381750.9144                   21381749.6764
 -17766675.54746 -13801025.85244  23357368.2034                   23357369.5084
 -34800396.48848 -27108753.21546  20578874.5864                   20578870.4494
 11  8 17  0 24  0.0000000  0  8G12G25G17G10G05G04G09G02
 -21954950.63747 -17077966.73846  21585969.1414                   21585967.2974
    -49653.23847    -11303.33644  24407507.1254                   24407509.2584
 -38392189.10947 -29886968.59845  22956718.3984                   22956717.1804
 -29964818.42648 -23309506.72746  20872248.9614                   20872247.3874
 -15884011.20347 -12347502.72745  22271460.8594                   22271460.6294
 -37305647.08248 -29016033.45746  21388437.2424                   21388436.5744
 -17730047.57847 -13772484.71544  23364338.8054                   23364340.8404
 -34845097.44148 -27143585.12546  20570368.4614                   20570364.4104
 11  8 17  0 24 30.0000000  0  8G12G25G17G10G05G04G09G02
 -22060147.43748 -17159938.24646  21565951.0164                   21565948.8054
   -190336.68047   -120926.78544  24380735.1564                   24380737.4224
 -38380315.14147 -29877716.18445  22958977.7344                   22958977.5084
 -30015295.48448 -23348839.47746  20862643.7424                   20862642.3634
 -16017693.85247 -12451670.93045  22246022.1724                   22246021.3714
 -37270288.05548 -28988480.98446  21395166.1334                   21395164.8324
 -17693150.24246 -13743733.64144  23371360.1414                   23371361.7504
 -34889444.50848 -27178141.26246  20561929.5314                   20561924.9654
 11  8 17  0 25  0.0000000  0  8G12G25G17G10G05G04G09G02
 -22164893.49648 -17241558.52046  21546018.5164                   21546016.8054
   -330828.39147   -230400.81644  24354001.2814                   24354002.6294
 -38368233.91447 -29868302.28545  22961277.2194                   22961276.0984
 -30065089.88348 -23387640.29346  20853168.0164                   20853166.6094
 -16151064.61347 -12555596.10545  22220642.2974                   22220641.7154
 -37234691.15248 -28960743.16846  21401940.0234                   21401938.9614
 -17655968.00447 -13714760.51244  23378436.2504                   23378437.3284
 -34933419.61348 -27212407.56646  20553560.8754                   20553557.0084
 11  8 17  0 25 30.0000000  0  8G12G25G17G10G05G04G09G02
 -22269190.45747 -17322828.84446  21526171.5394                   21526169.4184
   -471129.95347   -339726.66444  24327302.0784                   24327303.9224
 -38355949.18047 -29858729.78145  22963615.0164                   22963614.6764
 -30114204.91448 -23425911.73846  20843821.6414                   20843820.5234
 -16284124.25447 -12659278.84845  22195321.5704                   22195321.6724
 -37198862.51648 -28932824.76245  21408758.1334                   21408756.7814
 -17618508.37846 -13685571.34544  23385564.6174                   23385566.4414
 -34977028.05148 -27246388.14846  20545262.7664                   20545259.1414
 11  8 17  0 26  0.0000000  0  8G12G25G17G10G05G04G09G02
 -22373048.05948 -17403756.82046  21506408.0944                   21506405.3204
   -611251.55146   -448912.30144  24300638.2584                   24300639.8484
 -38343472.69947 -29849007.86345  22965988.7734                   22965988.1134
 -30162652.84048 -23463663.35546  20834602.5784                   20834601.0354
 -16416882.78547 -12762726.96545  22170058.8134                   22170058.1994
 -37162816.91048 -28904737.29345  21415617.1334                   21415616.1724
 -17580787.53947 -13656178.53944  23392742.0164                   23392743.3364
 -35020283.28548 -27280093.51246  20537031.6884                   20537027.8794
 11  8 17  0 26 30.0000000  0  8G12G25G17G10G05G04G09G02
 -22476448.46948 -17484328.53546  21486731.2034                   21486729.5354
   -751174.92646   -557943.46544  24274011.1334                   24274013.1094
 -38330788.45747 -29839124.05145  22968403.5234                   22968402.5044
 -30210417.03548 -23500882.19546  20825513.0474                   20825511.6954
 -16549321.32047 -12865925.72345  22144856.7194                   22144855.9454
 -37126540.73048 -28876470.14845  21422520.0864                   21422519.1024
 -17542793.08247 -13626572.58644  23399972.7274                   23399974.9224
 -35063170.85948 -27313512.37947  20528870.3914                   20528866.5514
 11  8 17  0 27  0.0000000  0  8G12G25G17G10G05G04G09G02
 -22579395.60548 -17564547.06246  21467141.6254                   21467139.1684
   -890904.06246   -666823.23444  24247421.2974                   24247423.8794
 -38317902.34847 -29829082.97345  22970855.4064                   22970853.9264
 -30257503.36748 -23537572.84046  20816553.0394                   20816551.4264
 -16681443.91448 -12968878.30946  22119714.1334                   22119713.7194
 -37090042.65248 -28848030.11345  21429465.7504                   21429464.4574
 -17504535.29747 -13596761.40243  23407252.3674                   23407254.1724
 -35105698.41048 -27346650.71546  20520777.1954                   20520773.2624
 11  8 17  0 27 30.0000000  0  8G12G25G17G10G05G04G09G02
 -22681898.78548 -17644419.64546  21447635.9614                   21447633.5704
  -1030448.31246   -775558.92243  24220867.6954                   24220869.6804
 -38304825.59047 -29818893.34445  22973343.7814                   22973342.0594
 -30303923.25048 -23573744.16446  20807719.5784                   20807717.8244
 -16813259.09847 -13071591.34846  22094630.2194                   22094629.5314
 -37053336.63748 -28819428.03945  21436451.1804                   21436449.7384
 -17466029.40647 -13566756.89844  23414580.5474                   23414581.9734
 -35147878.92248 -27379518.63746  20512750.8204                   20512746.4694
 11  8 17  0 28  0.0000000  0  8G12G25G17G10G05G04G09G02
 -22783944.75048 -17723935.95746  21428216.8594                   21428214.5394
  -1169793.91046   -884139.85243  24194350.3364                   24194352.4574
 -38291546.69947 -29808546.19545  22975870.4924                   22975869.6914
 -30349664.81248 -23609386.93046  20799014.9384                   20799013.4924
 -16944752.91847 -13174053.94946  22069607.9844                   22069607.4024
 -37016413.67248 -28790656.90645  21443476.5314                   21443475.9064
 -17427267.35947 -13536552.82444  23421957.1804                   23421958.6024
 -35189702.21148 -27412108.18446  20504791.9614                   20504787.9144
 11  8 17  0 28 30.0000000  0  8G12G25G17G10G05G04G09G02
 -22885522.28948 -17803087.28546  21408887.3364                   21408885.6294
  -1308929.49646   -992557.12143  24167873.8134                   24167875.8244
 -38278056.00047 -29798034.01645  22978437.3984                   22978437.1884
 -30394718.12547 -23644493.39546  20790442.2034                   20790440.4144
 -17075913.28547 -13276256.74646  22044648.9454                   22044648.4734
 -36979267.18748 -28761711.60945  21450545.1724                   21450544.2974
 -17388243.92247 -13506145.04744  23429382.6174                   23429383.4804
 -35231160.44948 -27444413.29346  20496903.2274                   20496898.6844
 11  8 17  0 29  0.0000000  0  8G12G25G17G10G05G04G09G02
 -22986627.42248 -17881870.49246  21389648.0084                   21389645.5704
  -1447851.03946  -1100807.62143  24141438.3914                   24141439.8364
 -38264351.51647 -29787355.25845  22981045.9144                   22981045.2814
 -30439081.12148 -23679061.94946  20782000.1094                   20781998.4774
 -17206736.36747 -13378196.70346  22019753.7194                   22019753.2704
 -36941897.48847 -28732592.37145  21457656.6174                   21457655.6564
 -17348961.03147 -13475535.07044  23436858.5864                   23436860.3874
 -35272253.12148 -27476433.53546  20489082.9614                   20489079.1644
 11  8 17  0 29 30.0000000  0  8G12G25G17G10G05G04G09G02
 -23087267.36748 -17960291.21946  21370496.3984                   21370494.5904
  -1586565.53946  -1208896.77743  24115040.5944                   24115043.3054
 -38250442.18447 -29776516.86345  22983692.7194                   22983691.9304
 -30482762.91448 -23713099.69946  20773687.7034                   20773686.3364
 -17337228.52347 -13479878.80146  21994922.1884                   21994921.8054
 -36904316.35248 -28703308.39145  21464808.2424                   21464807.1054
 -17309431.60546 -13444733.05944  23444380.6564                   23444382.5274
 -35312991.02048 -27508177.33246  20481331.0164                   20481326.8794
 11  8 17  0 30  0.0000000  0  8G12G25G17G10G05G04G09G02
 -23187442.08248 -18038349.44146  21351434.1094                   21351432.0664
  -1725072.98046  -1316824.55543  24088684.2194                   24088686.1024
 -38236329.82047 -29765520.27345  22986378.3364                   22986377.2544
 -30525765.71148 -23746608.37146  20765504.3204                   20765502.5314
 -17467389.27047 -13581302.66845  21970153.0784                   21970152.8284
 -36866528.46548 -28673863.29345  21471999.5704                   21471998.2504
 -17269661.56247 -13413743.45344  23451948.9694                   23451949.8674
 -35353377.58648 -27539647.36346  20473645.5704                   20473641.4924
 11  8 17  0 30 30.0000000  0  8G12G25G17G10G05G04G09G02
 -23287151.57048 -18116045.12946  21332459.7584                   21332457.6054
  -1863373.17647  -1424590.85943  24062366.5554                   24062368.4224
 -38222016.54347 -29754367.12545  22989101.8754                   22989101.0514
 -30568091.63348 -23779589.58646  20757450.2734                   20757448.3914
 -17597218.34847 -13682468.07846  21945447.2584                   21945447.2584
 -36828538.22748 -28644260.52345  21479228.1804                   21479227.2664
 -17229656.95347 -13382571.15244  23459561.0314                   23459563.4734
 -35393416.38748 -27570846.41447  20466026.5394                   20466022.0904
 11  8 17  0 31  0.0000000  0  8G12G25G17G10G05G04G09G02
 -23386395.18048 -18193377.80946  21313574.2814                   21313571.8444
  -2001464.98447  -1532194.78544  24036088.6804                   24036090.4774
 -38207503.25047 -29743058.12145  22991863.4534                   22991862.7894
 -30609741.82447 -23812044.27346  20749524.1644                   20749522.8954
 -17726714.09047 -13783373.76246  21920804.9924                   21920804.3594
 -36790349.03948 -28614502.74245  21486495.4534                   21486494.3874
 -17189422.19947 -13351219.50444  23467217.7664                   23467219.6294
 -35433110.44148 -27601776.83246  20458473.2664                   20458468.8674
 11  8 17  0 31 30.0000000  0  8G12G25G17G10G05G04G09G02
 -21909731.77348 -17042730.98846  21594573.9064                   21594571.5004
   -563905.70747   -412018.67244  24309647.0944                   24309648.6764
 -36617354.26247 -28503981.00845  23294459.6484                   23294458.4184
 -29075278.60548 -22616358.64146  21041523.1564                   21041521.7154
 -16280433.51247 -12656401.78546  22196022.8914                   22196022.6214
 -35176528.84448 -27356980.53945  21793595.4144                   21793594.1564
 -15573526.87947 -12092080.34844  23774712.2424                   23774714.1214
 -33897023.52348 -26404825.96946  20750780.3594                   20750776.6564
 11  8 17  0 32  0.0000000  0  8G12G25G17G10G05G04G09G02
 -22008027.33248 -17119324.92646  21575868.8054                   21575866.4534
   -701563.86747   -519284.68744  24283452.0704                   24283452.9694
 -36602429.92647 -28492351.71144  23297299.3134                   23297298.0984
 -29115566.05547 -22647751.44546  21033856.4144                   21033854.7304
 -16409244.76247 -12756774.10246  22171511.0474                   22171510.8204
 -35137938.92648 -27326910.50045  21800938.7734                   21800937.6914
 -15532833.57447 -12060371.43744  23782455.9304                   23782458.5634
 -33936020.95348 -26435213.56646  20743359.5944                   20743355.2194
 11  8 17  0 32 30.0000000  0  8G12G25G17G10G05G04G09G02
 -22105839.01647 -17195541.80146  21557256.0634                   21557253.7624
   -838995.14547   -626373.91844  24257298.4694                   24257300.6254
 -36587293.11747 -28480556.81245  23300179.2114                   23300178.5824
 -29155165.43447 -22678608.08246  21026320.8914                   21026319.1844
 -16537703.32047 -12856871.58646  22147066.0864                   22147065.4304
 -35099145.52348 -27296681.89545  21808320.9064                   21808319.8134
 -15491909.73447 -12028482.78544  23790244.2584                   23790245.2234
 -33974665.87548 -26465326.48046  20736005.8914                   20736001.6484
 11  8 17  0 33  0.0000000  0  8G12G25G17G10G05G04G09G02
 -22203169.05148 -17271383.37546  21538735.0554                   21538732.7504
   -976201.29747   -733287.69944  24231189.5234                   24231191.4064
 -36571947.62547 -28468599.32444  23303100.0314                   23303098.6134
 -29194081.07048 -22708931.93446  21018915.6564                   21018913.9224
 -16665810.65648 -12956695.39846  22122687.8984                   22122687.5704
 -35060154.93048 -27266299.64145  21815740.5704                   21815739.5394
 -15450763.37947 -11996420.82744  23798073.6804                   23798076.0004
 -34012963.85248 -26495169.05546  20728717.8524                   20728713.1804
 11  8 17  0 33 30.0000000  0  8G12G25G17G10G05G04G09G02
 -22300018.87548 -17346850.74246  21520305.0474                   21520302.4844
  -1113183.90247   -840027.30144  24205122.2664                   24205124.6684
 -36556397.17247 -28456482.10944  23306058.8674                   23306057.7584
 -29232316.57048 -22738725.81246  21011639.7114                   21011638.0434
 -16793567.81247 -13056246.34446  22098376.3984                   22098375.9844
 -35020973.44948 -27235768.64145  21823196.8444                   21823195.3324
 -15409401.89847 -11964191.23044  23805945.0864                   23805946.8014
 -34050919.90648 -26524745.19946  20721494.9844                   20721491.4844
 11  8 17  0 34  0.0000000  0  8G12G25G17G10G05G04G09G02
 -22396389.38347 -17421944.62546  21501965.9144                   21501964.0864
  -1249943.26647   -946592.95744  24179098.5164                   24179099.8984
 -36540643.96547 -28444206.93444  23309056.4534                   23309055.4574
 -29269874.57848 -22767991.78146  21004492.2114                   21004490.8634
 -16920975.27747 -13155524.79746  22074132.0784                   22074131.4614
 -34981605.93748 -27205092.68745  21830688.3134                   21830686.7974
 -15367831.99647 -11931799.21144  23813854.7504                   23813856.7704
 -34088538.40648 -26554058.32046  20714336.7664                   20714332.7544
 11  8 17  0 34 30.0000000  0  8G12G25G17G10G05G04G09G02
 -22492281.78547 -17496665.95346  21483718.4144                   21483716.2544
  -1386480.13347  -1052985.19944  24153116.2664                   24153117.7664
 -36524690.51647 -28431775.68045  23312092.4304                   23312091.6524
 -29306758.40248 -22796732.40646  20997473.7424                   20997472.1414
 -17048033.16048 -13254530.86746  22049953.2974                   22049952.4734
 -34942057.82048 -27174275.98845  21838213.7344                   21838213.0084
 -15326060.17247 -11899249.84044  23821804.3054                   23821806.2424
 -34125823.39848 -26583111.56646  20707241.5084                   20707237.1644
 11  8 17  0 35  0.0000000  0  8G12G25G17G10G05G04G09G02
 -22587687.77348 -17571008.25446  21465563.3134                   21465561.0124
  -1522785.93446  -1159197.43744  24127177.2114                   24127178.9534
 -36508530.85947 -28419183.77344  23315167.4924                   23315166.5984
 -29342961.78948 -22824942.82446  20990584.7274                   20990582.8794
 -17174732.94547 -13353257.87546  22025843.3914                   22025842.1884
 -34902324.97747 -27143315.35245  21845774.6254                   21845773.6254
 -15284083.71946 -11866541.05944  23829792.2034                   23829794.4924
 -34162770.07048 -26611901.18046  20700211.1094                   20700206.8404
 11  8 17  0 35 30.0000000  0  8G12G25G17G10G05G04G09G02
 -22682600.42647 -17644966.13746  21447501.9844                   21447499.1054
  -1658853.57047  -1265224.04344  24101284.7194                   24101286.8164
 -36492160.02347 -28406427.30145  23318282.7034                   23318282.1374
 -29378480.18447 -22852619.47746  20983825.3364                   20983823.9494
 -17301067.07847 -13451699.98046  22001802.7424                   22001801.9144
 -34862404.98448 -27112208.91045  21853371.3134                   21853370.1954
 -15241901.55147 -11833671.92244  23837819.1254                   23837821.3284
 -34199374.96948 -26640424.47346  20693244.8754                   20693240.8244
 11  8 17  0 36  0.0000000  0  8G12G25G17G10G05G04G09G02
 -22777016.70347 -17718537.24246  21429535.2114                   21429532.9694
  -1794679.40647  -1371062.28144  24075438.2974                   24075439.6954
 -36475576.21147 -28393504.85944  23321439.0864                   23321437.9344
 -29413312.05548 -22879761.17646  20977197.2814                   20977195.9534
 -17427031.62547 -13549854.08646  21977831.8674                   21977831.6844
 -34822298.83248 -27080957.37945  21861003.5474                   21861001.9144
 -15199516.10247 -11800644.39844  23845885.2344                   23845886.9964
 -34235638.49648 -26668681.76246  20686344.2274                   20686340.0664
 11  8 17  0 36 30.0000000  0  8G12G25G17G10G05G04G09G02
 -22870937.16848 -17791721.99646  21411662.9924                   21411660.5474
  -1930263.84847  -1476712.41044  24049636.8134                   24049638.8054
 -36458781.85547 -28380418.38345  23324634.6484                   23324633.7814
 -29447460.51648 -22906370.34846  20970698.8754                   20970697.4024
 -17552626.87947 -13647720.43446  21953932.2664                   21953931.5744
 -34782011.40248 -27049564.60945  21868669.9144                   21868668.8754
 -15156933.88347 -11767463.58244  23853988.4454                   23853990.5904
 -34271564.86348 -26696676.32846  20679507.6804                   20679503.7344
 11  8 17  0 37  0.0000000  0  8G12G25G17G10G05G04G09G02
 -22964365.07448 -17864522.93446  21393883.6254                   21393881.6524
  -2065609.66447  -1582176.61744  24023881.6564                   24023883.5824
 -36441781.83647 -28367171.62945  23327869.7974                   23327869.1454
 -29480930.76648 -22932451.05546  20964329.9614                   20964328.4264
 -17677855.37947 -13745300.99646  21930101.5554                   21930101.0554
 -34741550.31648 -27018036.51645  21876369.2734                   21876368.1294
 -15114163.62147 -11734136.18044  23862127.4064                   23862129.2774
 -34307160.44548 -26724413.14146  20672734.0864                   20672730.4024
 11  8 17  0 37 30.0000000  0  8G12G25G17G10G05G04G09G02
 -23057300.92248 -17936940.46546  21376198.6644                   21376196.5784
  -2200717.04747  -1687455.03144  23998171.4304                   23998172.8754
 -36424578.82447 -28353766.73445  23331143.0234                   23331142.5904
 -29513725.83248 -22958005.63746  20958089.1334                   20958087.8204
 -17802717.29747 -13842595.92246  21906341.3984                   21906340.1994
 -34700920.06648 -26986376.60945  21884101.0704                   21884100.0004
 -15071211.54747 -11700667.15644  23870301.0084                   23870303.0904
 -34342429.39848 -26751895.44146  20666022.6644                   20666018.6094
 11  8 17  0 38  0.0000000  0  8G12G25G17G10G05G04G09G02
 -23149744.06248 -18008974.05546  21358607.4924                   21358605.2774
  -2335584.88347  -1792546.81244  23972507.2274                   23972507.9384
 -36407172.94947 -28340203.73445  23334455.7424                   23334454.4344
 -29545846.93748 -22983035.05146  20951976.5394                   20951975.2624
 -17927211.10547 -13939604.00046  21882650.9304                   21882650.2194
 -34660124.20748 -26954587.65645  21891864.0164                   21891863.5274
 -15028082.52347 -11667060.22344  23878508.3984                   23878510.8054
 -34377374.17248 -26779125.12146  20659372.7974                   20659368.8914
 11  8 17  0 38 30.0000000  0  8G12G25G17G10G05G04G09G02
 -23241689.41448 -18080619.76246  21341110.5634                   21341108.6884
  -2470207.58247  -1897447.55144  23946889.1414                   23946890.1024
 -36389561.78147 -28326480.79744  23337806.1724                   23337805.9774
 -29577291.21948 -23007537.07846  20945993.0474                   20945991.2584
 -18051330.94947 -14036320.68746  21859031.3284                   21859031.2274
 -34619161.75048 -26922668.89145  21899658.9694                   21899657.9924
 -14984776.96547 -11633315.77344  23886748.2974                   23886751.3914
 -34411993.13348 -26806100.93446  20652784.9304                   20652780.6804
 11  8 17  0 39  0.0000000  0  8G12G25G17G10G05G04G09G02
 -23333137.62548 -18151878.09846  21323708.5864                   21323706.2894
  -2604585.43447  -2002157.52344  23921317.8984                   23921319.2774
 -36371747.49247 -28312599.57045  23341197.0234                   23341196.4344
 -29608061.61348 -23031514.00046  20940137.7274                   20940136.1094
 -18175077.19547 -14132746.25846  21835483.5864                   21835482.2304
 -34578037.41848 -26890623.98445  21907484.8984                   21907484.1524
 -14941301.09847 -11599438.53944  23895022.0004                   23895023.7304
 -34446290.21948 -26832825.91847  20646258.5554                   20646254.1024
 11  8 17  0 39 30.0000000  0  8G12G25G17G10G05G04G09G02
 -23424090.60948 -18222750.53546  21306401.1484                   21306398.7234
  -2738719.75047  -2106677.72344  23895792.8364                   23895794.0984
 -36353733.32847 -28298562.60544  23344624.9694                   23344623.6454
 -29638162.27048 -23054969.04346  20934409.6024                   20934407.7304
 -18298450.81647 -14228881.45746  21812006.6414                   21812005.4264
 -34536757.05148 -26858457.48445  21915340.3204                   21915339.5084
 -14897662.35247 -11565434.43444  23903326.8834                   23903329.2584
 -34480270.52348 -26859304.05946  20639792.3674                   20639787.9614
 11  8 17  0 40  0.0000000  0  8G12G25G17G10G05G04G09G02
 -23514530.62548 -18293223.26246  21289190.7194                   21289188.2304
  -2872592.39847  -2210994.01644  23870317.8284                   23870318.8484
 -36335503.02047 -28284357.19944  23348093.8984                   23348092.9024
 -29667577.63748 -23077890.09446  20928812.0084                   20928810.6414
 -18421433.39548 -14324711.96546  21788603.3674                   21788602.4304
 -34495307.34848 -26826159.04745  21923228.2274                   21923226.9534
 -14853848.59446 -11531293.99643  23911662.8984                   23911666.4734
 -34513919.78948 -26885524.25846  20633389.0314                   20633385.1174
 11  8 17  0 40 30.0000000  0  8G12G25G17G10G05G04G09G02
 -23604463.37948 -18363300.72346  21272076.9694                   21272074.7584
  -3006208.68047  -2315110.53944  23844891.0234                   23844893.1804
 -36317064.28147 -28269989.38344  23351602.7664                   23351601.9924
 -29696315.73848 -23100283.40646  20923343.2034                   20923341.7464
 -18544030.58647 -14420242.15646  21765273.9534                   21765272.6724
 -34453697.69948 -26793735.95745  21931145.7814                   21931144.7504
 -14809871.12147 -11497025.92243  23920032.6644                   23920034.6804
 -34547247.21148 -26911493.66446  20627046.6564                   20627042.8054
 11  8 17  0 41  0.0000000  0  8G12G25G17G10G05G04G09G02
 -23693894.71548 -18432987.46946  21255058.6804                   21255056.6334
  -3139573.85947  -2419031.38744  23819512.6334                   23819514.1684
 -36298424.59447 -28255465.00044  23355149.5554                   23355149.0704
 -29724384.65648 -23122155.27746  20918002.0944                   20918000.4184
 -18666247.21548 -14515475.80946  21742016.6414                   21742016.1914
 -34411938.27348 -26761196.17245  21939092.4614                   21939091.3094
 -14765741.26247 -11462639.09443  23928430.7664                   23928432.3094
 -34580261.85548 -26937219.34846  20620764.3834                   20620760.4184
 11  8 17  0 41 30.0000000  0  8G12G25G17G10G05G04G09G02
 -23782822.75448 -18502282.02746  21238136.3984                   21238133.9734
  -3272685.97347  -2522755.05544  23794182.3674                   23794184.1214
 -36279584.04347 -28240784.09044  23358734.6644                   23358733.9924
 -29751785.46948 -23143506.54746  20912787.9454                   20912786.0004
 -18788081.17648 -14610411.28546  21718832.3834                   21718831.3754
 -34370031.48447 -26728541.56645  21947067.1414                   21947066.1684
 -14721463.05946 -11428136.73444  23936856.2344                   23936858.6884
 -34612965.50048 -26962702.69546  20614540.7974                   20614537.2234
 11  8 17  0 42  0.0000000  0  8G12G25G17G10G05G04G09G02
 -23871249.25848 -18571185.78546  21221309.3754                   21221307.1214
  -3405545.43047  -2626281.84444  23768899.7194                   23768901.3954
 -36260545.15246 -28225948.64844  23362357.7734                   23362357.0354
 -29778521.25448 -23164339.61346  20907700.1884                   20907698.7894
 -18909532.86347 -14705048.88346  21695720.7034                   21695719.5704
 -34327982.32448 -26695776.00045  21955068.7344                   21955067.3554
 -14677043.16047 -11393523.95344  23945309.6254                   23945311.3984
 -34645362.32448 -26987946.95746  20608376.1174                   20608372.0984
 11  8 17  0 42 30.0000000  0  8G12G25G17G10G05G04G09G02
 -23959170.20748 -18639695.60546  21204578.3204                   21204576.5004
  -3538147.99647  -2729608.45744  23743666.4534                   23743668.2814
 -36241306.29346 -28210957.33644  23366018.9694                   23366017.9734
 -29804590.74248 -23184653.48446  20902739.0234                   20902737.9064
 -19030598.04348 -14799385.30546  21672682.8204                   21672682.1764
 -34285791.10548 -26662899.75445  21963097.8594                   21963096.5274
 -14632482.95747 -11358801.78143  23953789.5004                   23953790.2584
 -34677451.85948 -27012951.78146  20602269.8834                   20602265.8054
 11  8 17  0 43  0.0000000  0  8G12G25G17G10G05G04G09G02
 -24046578.35548 -18707805.84046  21187945.2664                   21187942.8984
  -3670486.14547  -2832729.02344  23718482.7274                   23718484.8634
 -36221861.77046 -28195805.80543  23369719.2894                   23369717.4534
 -29829989.34048 -23204444.59446  20897905.8524                   20897904.1804
 -19151269.01648 -14893414.55546  21649719.9144                   21649719.1804
 -34243454.77348 -26629910.41445  21971153.8524                   21971152.5354
 -14587781.07847 -11323969.24644  23962295.5944                   23962298.1914
 -34709230.62948 -27037714.44946  20596222.5704                   20596218.2584
 11  8 17  0 43 30.0000000  0  8G12G25G17G10G05G04G09G02
 -24133471.32048 -18775514.62546  21171410.4694                   21171408.1644
  -3802556.94147  -2935641.27044  23693350.7034                   23693351.9924
 -36202211.02046 -28180493.59844  23373458.5474                   23373457.6954
 -29854717.15648 -23223713.00846  20893200.6334                   20893198.7734
 -19271542.53148 -14987134.09846  21626832.5084                   21626831.4184
 -34200974.75448 -26596809.11345  21979237.9384                   21979236.9964
 -14542940.46947 -11289028.67244  23970828.5234                   23970831.3484
 -34740699.21948 -27062235.42646  20590234.2114                   20590229.9184
 11  8 17  0 44  0.0000000  0  8G12G25G17G10G05G04G09G02
 -24219858.58648 -18842829.35946  21154971.4384                   21154968.9924
  -3934368.57047  -3038351.57444  23668267.9224                   23668269.7154
 -36182364.30547 -28165028.66844  23377235.7664                   23377234.2274
 -29878785.30548 -23242467.39546  20888620.4224                   20888619.1374
 -19391426.78148 -15080550.32846  21604019.4064                   21604018.1564
 -34158363.66048 -26563605.68445  21987346.3054                   21987345.0594
 -14497975.40647 -11253991.04743  23979385.0084                   23979386.9414
 -34771870.27748 -27086524.54746  20584302.6484                   20584298.6054
 11  8 17  0 44 30.0000000  0  8G12G25G17G10G05G04G09G02
 -24305737.81248 -18909748.22346  21138628.9454                   21138626.5274
  -4065918.72347  -3140858.15244  23643234.6644                   23643236.1524
 -36162321.05947 -28149410.59844  23381049.7034                   23381048.4104
 -29902194.51248 -23260708.33646  20884165.9614                   20884164.3404
 -19510919.59448 -15173661.53946  21581280.4064                   21581279.3164
 -34115623.85948 -26530301.95345  21995479.2344                   21995478.4144
 -14452889.54747 -11218859.31644  23987964.8054                   23987967.2274
 -34802745.07848 -27110582.82446  20578427.0864                   20578422.8364
 11  8 17  0 45  0.0000000  0  8G12G25G17G10G05G04G09G02
 -24391102.19548 -18976265.91446  21122384.7734                   21122382.3984
  -4197199.94547  -3243155.18744  23618252.6094                   23618253.8364
 -36142076.91847 -28133635.99245  23384902.0704                   23384901.6524
 -29924940.17248 -23278432.22746  20879837.5554                   20879836.0204
 -19630013.32448 -15266461.77346  21558617.3204                   21558616.6294
 -34072752.36348 -26496895.61745  22003637.5314                   22003636.7234
 -14407681.70747 -11183632.56244  23996567.7664                   23996570.4304
 -34833319.66848 -27134407.17246  20572609.1724                   20572604.9694
 11  8 17  0 45 30.0000000  0  8G12G25G17G10G05G04G09G02
 -24475953.63748 -19042383.89146  21106238.1094                   21106235.5664
  -4328213.08647  -3345243.29345  23593321.8054                   23593323.6294
 -36121634.37147 -28117706.75044  23388791.9534                   23388791.3674
 -29947026.10948 -23295642.04346  20875634.5164                   20875633.5634
 -19748708.92248 -15358951.77746  21536030.6334                   21536029.4414
 -34029754.39548 -26463390.71545  22011819.5164                   22011819.1604
 -14362358.42246 -11148315.84044  24005192.3134                   24005195.6564
 -34863599.03148 -27158001.48046  20566847.4144                   20566842.9064
 11  8 17  0 46  0.0000000  0  8G12G25G17G10G05G04G09G02
 -24560280.50448 -19108093.11346  21090190.9844                   21090188.8524
  -4458946.14147  -3447113.21144  23568444.4924                   23568445.2344
 -36100983.94147 -28101615.55144  23392721.9844                   23392721.9224
 -29968443.59448 -23312330.99646  20871559.0784                   20871557.8094
 -19866994.34848 -15451122.18046  21513521.6334                   21513520.8014
 -33986622.46948 -26429781.44945  22020027.1884                   22020027.0164
 -14316913.55146 -11112904.38744  24013839.8754                   24013843.1724
 -34893574.93748 -27181359.33246  20561142.8134                   20561138.6764
 11  8 17  0 46 30.0000000  0  8G12G25G17G10G05G04G09G02
 -24644087.24248 -19173397.04346  21074243.1954                   21074240.8204
  -4589402.87947  -3548767.78944  23543619.1724                   23543620.3284
 -36080131.23047 -28085366.70744  23396690.2034                   23396688.9964
 -29989199.63748 -23328504.53546  20867609.5554                   20867607.8874
 -19984873.26648 -15542975.81246  21491089.4844                   21491088.2894
 -33943364.71548 -26396074.11345  22028259.2664                   22028258.2464
 -14271356.81646 -11077405.77343  24022509.0474                   24022512.7034
 -34923255.18748 -27204486.79346  20555495.0234                   20555491.0314
 11  8 17  0 47  0.0000000  0  8G12G25G17G10G05G04G09G02
 -24727363.23448 -19238287.40246  21058396.4064                   21058394.2234
  -4719572.06247  -3650198.32444  23518848.7974                   23518849.8834
 -36059067.26647 -28068953.27044  23400698.6804                   23400697.4264
 -30009286.33648 -23344156.49646  20863787.1094                   20863785.4774
 -20102334.48048 -15634503.96146  21468737.7894                   21468736.4534
 -33899974.48447 -26362263.55945  22036516.0234                   22036515.2234
 -14225683.15246 -11041816.10543  24031200.5314                   24031204.3674
 -34952632.30948 -27227378.05946  20549904.5944                   20549900.6604
 11  8 17  0 47 30.0000000  0  8G12G25G17G10G05G04G09G02
 -24810115.49248 -19302769.65246  21042649.1334                   21042646.6334
  -4849459.58247  -3751409.37144  23494131.5394                   23494132.9844
 -36037800.35547 -28052381.70345  23404745.6094                   23404744.9734
 -30028712.62548 -23359293.86346  20860090.2974                   20860088.5234
 -20219383.78548 -15725711.14846  21446464.1644                   21446462.9654
 -33856462.10947 -26328357.80945  22044796.3834                   22044795.2194
 -14179904.39846 -11006144.52743  24039912.0394                   24039915.3324
 -34981715.94548 -27250040.63746  20544370.0314                   20544366.0044
 11  8 17  0 48  0.0000000  0  8G12G25G17G10G05G04G09G02
 -24892333.96148 -19366835.97746  21027003.4304                   21027000.9844
  -4979054.84847  -3852392.70744  23469470.8204                   23469471.9804
 -36016322.22747 -28035645.53945  23408832.6804                   23408831.7274
 -30047471.02748 -23373910.78946  20856520.7664                   20856519.0594
 -20336010.66448 -15816589.17646  21424270.4614                   21424269.6334
 -33812821.19147 -26294351.93045  22053100.9694                   22053099.9064
 -14134016.05546 -10970387.50444  24048645.5394                   24048647.6334
 -35010499.39148 -27272469.30146  20538893.3914                   20538888.7034
 11  8 17  0 48 30.0000000  0  8G12G25G17G10G05G04G09G02
 -24974024.20348 -19430490.69546  21011457.9534                   21011455.5124
  -5108362.92247  -3953152.25444  23444863.7194                   23444865.2424
 -35994640.30147 -28018750.57845  23412958.5784                   23412957.7934
 -30065570.05948 -23388013.93446  20853076.6564                   20853074.9064
 -20452220.41048 -15907142.16046  21402156.4534                   21402155.3404
 -33769061.37547 -26260253.37945  22061427.6174                   22061427.2464
 -14088029.10246 -10934553.67243  24057396.2894                   24057398.8914
 -35038991.48048 -27294670.93446  20533470.9064                   20533466.7544
 11  8 17  0 49  0.0000000  0  8G12G25G17G10G05G04G09G02
 -25055192.95748 -19493739.05546  20996012.3594                   20996009.9064
  -5237389.77047  -4053692.62944  23420310.9454                   23420313.0474
 -35972762.70747 -28001703.10944  23417121.4384                   23417121.2114
 -30083018.67648 -23401610.25446  20849756.2274                   20849754.7194
 -20568019.02348 -15997374.77346  21380121.0314                   21380119.4844
 -33725192.91847 -26226070.19145  22069776.3134                   22069775.3204
 -14041955.52746 -10898652.34444  24066164.3754                   24066166.8954
 -35067202.35548 -27316653.43446  20528102.9304                   20528098.6914
 11  8 17  0 49 30.0000000  0  8G12G25G17G10G05G04G09G02
 -25135825.59448 -19556569.66446  20980668.2194                   20980666.1954
  -5366119.64547  -4154001.59444  23395814.6484                   23395816.1414
 -35950675.82047 -27984492.55945  23421324.5944                   23421323.9494
 -30099804.84048 -23414690.37146  20846561.7734                   20846560.0864
 -20683390.63348 -16087274.66846  21358166.2274                   21358164.9534
 -33681204.62547 -26191793.62945  22078146.6334                   22078145.7854
 -13995785.59047 -10862675.94944  24074949.5394                   24074952.7304
 -35095119.97348 -27338407.43446  20522790.0864                   20522786.0704
 11  8 17  0 50  0.0000000  0  8G12G25G17G10G05G04G09G02
 -25215919.55148 -19618980.52046  20965426.9454                   20965424.5944
  -5494549.32047  -4254076.65644  23371374.5394                   23371376.5824
 -35928378.66447 -27967118.17645  23425567.9454                   23425567.8324
 -30115928.38748 -23427254.16046  20843493.3594                   20843491.6134
 -20798332.09848 -16176839.38746  21336293.5554                   21336292.2734
 -33637097.54347 -26157424.47745  22086539.6644                   22086539.1414
 -13949521.57447 -10826626.21543  24083754.2424                   24083756.6454
 -35122745.01648 -27359933.44546  20517533.1884                   20517528.6564
 11  8 17  0 50 30.0000000  0  8G12G25G17G10G05G04G09G02
 -25295468.29348 -19680966.54346  20950289.2584                   20950286.9694
  -5622671.48847  -4353912.07844  23346994.4694                   23346996.0044
 -35905866.00847 -27949575.90644  23429852.0944                   23429851.3284
 -30131385.32448 -23439298.50846  20840552.3594                   20840550.5944
 -20912836.42248 -16266063.46546  21314504.0394                   21314502.9414
 -33592868.65647 -26122960.42645  22094956.8284                   22094955.6294
 -13903162.16447 -10790502.11743  24092576.5234                   24092578.1374
 -35150074.14548 -27381228.87946  20512332.7504                   20512328.4804
 11  8 17  0 51  0.0000000  0  8G12G25G17G10G05G04G09G02
 -25374469.15248 -19742525.63746  20935255.9224                   20935253.6294
  -5750482.95347  -4453505.35944  23322672.7894                   23322673.6214
 -35883137.39847 -27931865.35944  23434177.2664                   23434175.9264
 -30146176.24248 -23450823.88746  20837737.4304                   20837735.8794
 -21026900.14848 -16354944.23046  21292798.2974                   21292797.3134
 -33548519.36747 -26088402.54345  22103396.0554                   22103395.0744
 -13856710.59847 -10754306.24244  24101415.3444                   24101418.2194
 -35177107.93748 -27402294.17646  20507188.5704                   20507184.3874
 11  8 17  0 51 30.0000000  0  8G12G25G17G10G05G04G09G02
 -25452929.60248 -19803663.64546  20920325.5634                   20920322.9344
  -5877989.84047  -4552861.33645  23298409.0004                   23298410.3094
 -35860201.00446 -27913992.89844  23438541.2504                   23438541.2464
 -30160310.37148 -23461837.48446  20835047.9384                   20835046.3554
 -21140529.41848 -16443486.45346  21271175.3284                   21271173.6954
 -33504060.09447 -26053758.97345  22111856.3754                   22111855.5004
 -13810178.71147 -10718047.80144  24110270.0864                   24110273.2774
 -35203856.65248 -27423137.33246  20502098.2584                   20502094.3054
 11  8 17  0 52  0.0000000  0  8G12G25G17G10G05G04G09G02
 -25530850.42248 -19864381.16046  20905497.8444                   20905495.0634
  -6005192.28547  -4651980.03945  23274203.0704                   23274204.3404
 -35837059.18046 -27895960.35244  23442944.6724                   23442944.4534
 -30173791.17648 -23472341.99246  20832482.5784                   20832481.1374
 -21253725.05548 -16531690.78546  21249635.0394                   21249633.6724
 -33459495.16847 -26019033.07045  22120336.6484                   22120336.0824
 -13763572.21947 -10681731.22743  24119139.9924                   24119141.6844
 -35230323.97748 -27443761.23046  20497061.7504                   20497057.7854
 11  8 17  0 52 30.0000000  0  8G12G25G17G10G05G04G09G02
 -24032792.49648 -18697063.28946  21190568.5634                   21190565.9454
  -4556648.67647  -3523244.69145  23549851.7664                   23549853.0314
 -34238277.82246 -26650156.73044  23747182.6804                   23747183.2504
 -28611184.75448 -22254726.58646  21129837.0164                   21129835.4924
 -19791045.84048 -15391940.69146  21527973.6484                   21527972.5864
 -31839393.23047 -24756616.00445  22428631.5234                   22428630.9454
 -12141461.44446  -9417748.88343  24427817.0164                   24427819.8794
 -33681075.60948 -26236554.71946  20791874.4534                   20791869.8874
 11  8 17  0 53  0.0000000  0  8G12G25G17G10G05G04G09G02
 -24109602.53148 -18756915.26646  21175952.5084                   21175949.9654
  -4683208.37147  -3621862.56245  23525768.0864                   23525769.3134
 -34214698.27746 -26631783.04744  23751670.2194                   23751669.9574
 -28623335.88348 -22264194.98846  21127524.4924                   21127522.7034
 -19903340.00848 -15479442.57446  21506604.6024                   21506603.1174
 -31794596.18047 -24721709.23045  22437156.6564                   22437155.4884
 -12094689.98446  -9381303.70343  24436717.3914                   24436720.3014
 -33706957.94548 -26256722.77046  20786948.7034                   20786944.6644
 11  8 17  0 53 30.0000000  0  8G12G25G17G10G05G04G09G02
 -24185862.89848 -18816338.92246  21161440.5394                   21161437.7704
  -4809450.54747  -3720233.01244  23501745.3134                   23501746.5474
 -34190907.21547 -26613244.60244  23756197.2974                   23756197.6524
 -28634831.37948 -22273152.50046  21125337.0634                   21125335.2624
 -20015187.64548 -15566596.52746  21485320.4844                   21485319.6564
 -31749693.66847 -24686720.26645  22445701.2274                   22445700.3094
 -12047848.76646  -9344804.25443  24445630.4844                   24445634.2154
 -33732557.55148 -26276670.51246  20782077.4774                   20782073.4574
 11  8 17  0 54  0.0000000  0  8G12G25G17G10G05G04G09G02
 -24261567.85948 -18875329.80146  21147034.0784                   21147031.9024
  -4935369.16047  -3818351.34045  23477783.9694                   23477785.0664
 -34166900.71547 -26594538.28544  23760766.0784                   23760765.5164
 -28645668.78148 -22281597.21146  21123274.6564                   21123273.0164
 -20126582.57448 -15653397.70746  21464122.6484                   21464121.8524
 -31704683.57447 -24651647.50045  22454266.4454                   22454265.3954
 -12000937.51646  -9308250.22343  24454558.4304                   24454562.0004
 -33757872.18448 -26296396.19946  20777259.8284                   20777255.7664
 11  8 17  0 54 30.0000000  0  8G12G25G17G10G05G04G09G02
 -24336710.18448 -18933882.26246  21132735.1954                   21132732.5044
  -5060955.59047  -3916210.81645  23453884.9614                   23453886.3554
 -34142672.77346 -26575659.42644  23765377.4774                   23765376.0784
 -28655842.91048 -22289525.09446  21121338.6724                   21121336.8444
 -20237516.65648 -15739839.79346  21443012.7894                   21443011.6134
 -31659561.82847 -24616487.71545  22462852.9064                   22462851.5474
 -11953953.76246  -9271639.71943  24463498.6094                   24463502.0904
 -33782897.16848 -26315896.18446  20772497.6724                   20772493.8914
 11  8 17  0 55  0.0000000  0  8G12G25G17G10G05G04G09G02
 -24411294.23448 -18991999.70746  21118541.9694                   21118539.6294
  -5186213.37547  -4013814.19945  23430049.1414                   23430050.2384
 -34118229.02046 -26556612.39543  23770028.1334                   23770027.3594
 -28665360.92648 -22296941.71946  21119527.2424                   21119525.9224
 -20347993.49648 -15825925.57846  21421990.0164                   21421988.8054
 -31614336.17647 -24581246.99245  22471458.9454                   22471458.1644
 -11906906.75046  -9234979.91843  24472451.1804                   24472455.1564
 -33807639.81248 -26335176.16446  20767789.4774                   20767785.5274
 11  8 17  0 55 30.0000000  0  8G12G25G17G10G05G04G09G02
 -24485315.11748 -19049678.31646  21104456.6024                   21104454.0274
  -5311136.91847  -4111157.16444  23406276.9534                   23406277.7774
 -34093566.15246 -26537394.62943  23774721.3364                   23774720.2934
 -28674221.06248 -22303845.71146  21117841.5084                   21117839.8674
 -20458007.74248 -15911650.90246  21401054.3984                   21401053.7584
 -31569005.14147 -24545924.13745  22480085.5234                   22480084.2664
 -11859796.89546  -9198271.14143  24481416.8754                   24481419.7304
 -33832098.41848 -26354234.81246  20763135.5004                   20763130.9804
 11  8 17  0 56  0.0000000  0  8G12G25G17G10G05G04G09G02
 -24558779.59048 -19106923.35946  21090476.5704                   21090473.9654
  -5435731.63347  -4208243.89844  23382567.6804                   23382568.6334
 -34068692.31647 -26518012.45744  23779454.1334                   23779454.4454
 -28682432.37548 -22310244.11346  21116278.6724                   21116277.3204
 -20567564.89548 -15997020.05546  21380206.4924                   21380205.3594
 -31523578.43447 -24510526.72745  22488729.3134                   22488728.2704
 -11812635.27346  -9161522.02343  24490391.4694                   24490394.8754
 -33856282.62948 -26373079.63346  20758533.0944                   20758529.2424
 11  8 17  0 56 30.0000000  0  8G12G25G17G10G05G04G09G02
 -24631676.73848 -19163726.33646  21076604.5004                   21076602.3794
  -5559985.93047  -4305065.37544  23358922.1564                   23358923.7934
 -34043597.77747 -26498458.29344  23784230.3914                   23784229.5204
 -28689987.01248 -22316130.83646  21114840.9454                   21114839.5394
 -20676653.64148 -16082024.21146  21359447.8754                   21359446.6254
 -31478048.70747 -24475049.03945  22497393.6094                   22497392.1254
 -11765416.00847  -9124727.96944  24499377.4694                   24499380.5004
 -33880184.24248 -26391704.27046  20753984.6564                   20753980.6764
 11  8 17  0 57  0.0000000  0  8G12G25G17G10G05G04G09G02
 -24704008.11748 -19220088.44946  21062840.8594                   21062838.2664
  -5683900.26647  -4401621.93744  23335342.2034                   23335343.9184
 -34018285.26246 -26478734.26644  23789046.7034                   23789046.7424
 -28696889.02348 -22321509.02346  21113527.5084                   21113526.2304
 -20785274.47748 -16166663.75846  21338777.7424                   21338776.3554
 -31432420.57447 -24439494.67645  22506076.3674                   22506075.8794
 -11718145.36746  -9087893.90644  24508372.0554                   24508375.5904
 -33903807.79748 -26410112.21946  20749489.4144                   20749485.4654
 11  8 17  0 57 30.0000000  0  8G12G25G17G10G05G04G09G02
 -24775771.06248 -19276007.62946  21049184.5634                   21049182.0984
  -5807470.83647  -4497910.62144  23311827.3754                   23311828.6564
 -33992753.43446 -26458839.32844  23793905.6174                   23793905.4574
 -28703138.26248 -22326378.54746  21112338.1884                   21112336.5704
 -20893424.08648 -16250936.12146  21318197.5084                   21318196.2894
 -31386694.71947 -24403864.17245  22514777.6174                   22514777.2384
 -11670825.87146  -9051021.80543  24517376.8834                   24517380.8874
 -33927153.44148 -26428303.62546  20745047.2584                   20745042.9574
 11  8 17  0 58  0.0000000  0  8G12G25G17G10G05G04G09G02
 -24846953.86748 -19331474.74646  21035638.6334                   21035636.2154
  -5930684.89547  -4593921.52744  23288380.9064                   23288381.4574
 -33966992.01646 -26438765.50844  23798807.7344                   23798806.2934
 -28708725.98448 -22330732.60946  21111275.0164                   21111273.6134
 -21001090.10248 -16334831.66046  21297709.2894                   21297707.9884
 -31340862.42247 -24368150.74245  22523499.0704                   22523498.3404
 -11623450.58246  -9014106.19544  24526392.7274                   24526395.5864
 -33950212.02348 -26446271.34046  20740659.1094                   20740655.0474
 11  8 17  0 58 30.0000000  0  8G12G25G17G10G05G04G09G02
 -24917567.38748 -19386498.27046  21022201.7504                   21022198.9774
  -6053552.20347  -4689662.21944  23264999.3054                   23265000.4064
 -33941012.98046 -26418522.18044  23803750.7194                   23803751.3714
 -28713665.39848 -22334581.49646  21110335.1024                   21110333.4964
 -21108282.46548 -16418358.11746  21277311.0634                   21277309.8634
 -31294937.61347 -24332365.20745  22532238.4844                   22532237.6174
 -11576034.62146  -8977158.90244  24535416.0554                   24535419.4534
 -33972997.16848 -26464025.98846  20736322.9774                   20736318.8094
 11  8 17  0 59  0.0000000  0  8G12G25G17G10G05G04G09G02
 -24987615.35548 -19441081.09846  21008871.7424                   21008869.6994
  -6176075.21147  -4785134.63345  23241684.2034                   23241685.5474
 -33914821.12146 -26398112.98044  23808736.0394                   23808734.9694
 -28717963.01648 -22337930.28146  21109517.1484                   21109515.9144
 -21215003.62948 -16501517.41046  21257002.6484                   21257001.1334
 -31248926.94547 -24296512.78145  22540994.2584                   22540993.4344
 -11528586.35546  -8940186.42643  24544445.0554                   24544448.2304
 -33995515.27048 -26481572.55146  20732037.8284                   20732033.6954
 11  8 17  0 59 30.0000000  0  8G12G25G17G10G05G04G09G02
 -25057089.55948 -19495216.84846  20995651.5784                   20995648.9964
  -6298244.75447  -4880331.60244  23218436.1804                   23218437.5124
 -33888409.79346 -26377532.76644  23813760.9694                   23813761.2194
 -28721613.46548 -22340774.78946  21108822.7194                   21108821.1994
 -21321244.95348 -16584302.80946  21236785.8204                   21236784.2894
 -31202825.43747 -24260589.55145  22549767.0164                   22549765.9884
 -11481102.38346  -8903186.10544  24553480.6254                   24553484.6454
 -34017761.19948 -26498907.03946  20727804.9534                   20727800.8524
 11  8 17  1  0  0.0000000  0  8G12G25G17G10G05G04G09G02
 -25125988.65248 -19548904.44946  20982540.2974                   20982537.6764
  -6420058.52047  -4975251.36744  23195255.4694                   23195256.6454
 -33861778.70346 -26356781.30944  23818828.8444                   23818829.4574
 -28724618.23048 -22343116.14846  21108250.7664                   21108249.1564
 -21427004.37548 -16666712.69146  21216660.4534                   21216658.5274
 -31156634.91047 -24224596.97745  22558557.0944                   22558556.0164
 -11433585.90246  -8866160.44143  24562522.8674                   24562526.8094
 -34039736.29748 -26516030.48446  20723623.1724                   20723619.2154
 11  8 17  1  0 30.0000000  0  8G12G25G17G10G05G04G09G02
 -25194310.42248 -19602142.18746  20969538.8674                   20969536.7664
  -6541513.05147  -5069891.21145  23172143.3984                   23172144.3714
 -33834926.86746 -26335857.82044  23823938.6884                   23823938.7464
 -28726977.83648 -22344954.79746  21107801.8364                   21107800.6214
 -21532278.53148 -16748744.44546  21196627.2664                   21196625.6764
 -31110355.96547 -24188535.46945  22567363.3984                   22567362.6374
 -11386039.73846  -8829111.60943  24571571.3524                   24571574.6054
 -34061441.11348 -26532943.32446  20719492.8054                   20719488.5274
 11  8 17  1  1  0.0000000  0  8G12G25G17G10G05G04G09G02
 -25262056.78948 -19654931.55946  20956647.5394                   20956645.4694
  -6662609.31647  -5164251.89145  23149100.0864                   23149100.6374
 -33807857.41046 -26314764.75844  23829090.6644                   23829089.7624
 -28728697.07448 -22346294.45746  21107474.5554                   21107473.2704
 -21637068.71148 -16830399.07446  21176686.1094                   21176684.7734
 -31063993.78547 -24152409.12944  22576185.7194                   22576185.0044
 -11338470.14546  -8792044.55143  24580623.2734                   24580626.7934
 -34082880.44548 -26549649.29346  20715412.7814                   20715408.8674
 11  8 17  1  1 30.0000000  0  8G12G25G17G10G05G04G09G02
 -25329220.88748 -19707267.21546  20943866.3984                   20943863.7544
  -6783338.66847  -5258326.68745  23126125.5394                   23126126.6884
 -33780564.68046 -26293497.70744  23834283.6414                   23834283.4884
 -28729771.06248 -22347131.33246  21107270.4454                   21107268.7774
 -21741367.04748 -16911670.44546  21156838.4064                   21156837.3444
 -31017543.70347 -24116214.26645  22585024.6334                   22585024.1254
 -11290874.59046  -8754957.25043  24589680.1414                   24589684.0744
 -34104049.28948 -26566144.50846  20711384.7734                   20711380.4614
 11  8 17  1  2  0.0000000  0  8G12G25G17G10G05G04G09G02
 -25395800.14148 -19759147.14846  20931196.7424                   20931194.0434
  -6903697.72347  -5352112.91845  23103222.0944                   23103223.6804
 -33753047.28546 -26272055.61344  23839520.2974                   23839519.2734
 -28730200.57848 -22347466.00446  21107188.2344                   21107187.3054
 -21845170.10548 -16992555.89146  21137085.7584                   21137084.4534
 -30971006.48847 -24079951.52745  22593880.9304                   22593880.2664
 -11243255.40246  -8717851.57843  24598742.2194                   24598746.7114
 -34124948.34848 -26582429.48846  20707407.8284                   20707403.8554
 11  8 17  1  2 30.0000000  0  8G12G25G17G10G05G04G09G02
 -25461805.95748 -19810580.23846  20918636.2734                   20918633.6684
  -7023696.72747  -5445618.60245  23080387.4614                   23080388.3954
 -33725317.87546 -26250448.34844  23844796.7194                   23844795.8634
 -28730000.06648 -22347309.76646  21107227.2424                   21107225.2704
 -21948488.84448 -17073063.94146  21117424.9844                   21117423.6954
 -30924396.88347 -24043632.35544  22602750.4224                   22602749.4534
 -11195628.32946  -8680739.80043  24607805.6484                   24607809.6524
 -34145591.44548 -26598515.01646  20703479.8524                   20703475.2934
 11  8 17  1  3  0.0000000  0  8G12G25G17G10G05G04G09G02
 -25527228.96148 -19861559.19546  20906186.4144                   20906183.7974
  -7143325.09447  -5538835.46945  23057622.1174                   23057623.7664
 -33697367.98846 -26228669.26244  23850116.2814                   23850115.0434
 -28729162.38748 -22346657.02746  21107386.1564                   21107384.5434
 -22051312.69148 -17153186.36346  21097858.1884                   21097856.6214
 -30877707.73047 -24007251.21544  22611635.4454                   22611634.1484
 -11147988.55546  -8643618.05943  24616871.5474                   24616875.2934
 -34165971.93048 -26614395.92246  20699601.1884                   20699597.1094
 11  8 17  1  3 30.0000000  0  8G12G25G17G10G05G04G09G02
 -25592075.04748 -19912088.60946  20893846.8284                   20893844.5664
  -7262587.21147  -5631766.93745  23034927.6094                   23034928.8634
 -33669204.61746 -26206723.83644  23855475.1024                   23855474.4964
 -28727696.37548 -22345514.68446  21107665.4384                   21107663.4494
 -22153646.91848 -17232927.27046  21078384.6254                   21078383.0474
 -30830947.75447 -23970814.88344  22620533.0944                   22620532.5634
 -11100346.25046  -8606494.37543  24625937.1804                   24625941.7504
 -34186097.82448 -26630078.44146  20695771.2504                   20695767.1134
 11  8 17  1  4  0.0000000  0  8G12G25G17G10G05G04G09G02
 -25656328.28548 -19962156.05946  20881619.7194                   20881617.3634
  -7381466.21147  -5724399.89145  23012305.7664                   23012306.5124
 -33640813.17646 -26184600.64544  23860878.1254                   23860877.9064
 -28725589.14148 -22343872.67646  21108066.1954                   21108064.6174
 -22255474.37548 -17312273.28146  21059007.0784                   21059005.5594
 -30784104.20747 -23934313.41844  22629447.0554                   22629446.0434
 -11052690.05947  -8569359.79343  24635006.0554                   24635009.7734
 -34205956.26248 -26645552.55946  20691992.4694                   20691988.3674
 11  8 17  1  4 30.0000000  0  8G12G25G17G10G05G04G09G02
 -25720001.72348 -20011771.72346  20869503.4304                   20869501.0314
  -7499973.68747  -5816743.37545  22989754.7734                   22989755.3244
 -33612207.71947 -26162310.67244  23866321.2504                   23866320.5864
 -28722856.47748 -22341743.33646  21108586.2034                   21108584.8054
 -22356807.22348 -17391233.90246  21039724.2114                   21039722.9384
 -30737192.66447 -23897758.94545  22638373.0784                   22638373.2194
 -11005037.43446  -8532228.06243  24644074.7114                   24644078.6684
 -34225562.83248 -26660830.40646  20688261.3674                   20688257.6524
 11  8 17  1  5  0.0000000  0  8G12G25G17G10G05G04G09G02
 -25783082.05548 -20060925.23046  20857499.6884                   20857497.0474
  -7618095.38747  -5908786.21945  22967276.2114                   22967277.3324
 -33583376.35947 -26139844.68044  23871807.5474                   23871806.7034
 -28719488.18448 -22339118.69946  21109227.3054                   21109225.8284
 -22457631.98048 -17469798.59846  21020537.8204                   21020536.1764
 -30690202.75447 -23861143.43744  22647316.1564                   22647315.2304
 -10957379.74646  -8495092.37543  24653143.7504                   24653148.5204
 -34244906.73848 -26675903.59446  20684580.2584                   20684576.3164
 11  8 17  1  5 30.0000000  0  8G12G25G17G10G05G04G09G02
 -25845583.85248 -20109627.93446  20845605.5864                   20845603.3834
  -7735844.10947  -6000538.43045  22944869.8834                   22944870.3094
 -33554334.16047 -26117214.43444  23877333.7974                   23877333.4454
 -28715501.06648 -22336011.85246  21109986.0864                   21109984.3954
 -22557961.71148 -17547977.57046  21001445.8444                   21001444.1214
 -30643151.45347 -23824480.10544  22656269.2114                   22656269.2464
 -10909735.42646  -8457967.07843  24662209.9454                   24662213.5354
 -34264004.64848 -26690785.08646  20680946.0944                   20680942.0354
 11  8 17  1  6  0.0000000  0  8G12G25G17G10G05G04G09G02
 -25907500.59848 -20157874.75046  20833823.5474                   20833820.8094
  -7853212.05947  -6091993.96545  22922535.4224                   22922535.5984
 -33525075.81246 -26094415.75844  23882901.8134                   23882901.1644
 -28710891.28148 -22332419.80946  21110863.2504                   21110861.5354
 -22657788.89548 -17625764.93746  20982449.2664                   20982447.8444
 -30596034.77047 -23787765.80944  22665235.7194                   22665234.7854
 -10862102.44546  -8420850.65243  24671274.9694                   24671278.4454
 -34282852.71148 -26705471.89546  20677359.4844                   20677355.8134
 11  8 17  1  6 30.0000000  0  8G12G25G17G10G05G04G09G02
 -25968834.10548 -20205667.09446  20822152.2194                   20822149.6174
  -7970199.74647  -6183153.19145  22900273.4694                   22900274.3834
 -33495604.13746 -26071450.84444  23888509.7894                   23888509.7304
 -28705663.59848 -22328346.29346  21111857.8054                   21111856.5554
 -22757114.62148 -17703161.56646  20963548.0314                   20963546.4344
 -30548857.36747 -23751004.19945  22674213.1174                   22674212.4384
 -10814486.75846  -8383747.69543  24680336.2274                   24680340.4454
 -34301455.01248 -26719967.19946  20673819.8204                   20673815.6724
 11  8 17  1  7  0.0000000  0  8G12G25G17G10G05G04G09G02
 -26029571.68748 -20252995.08246  20810593.9534                   20810591.4964
  -8086793.28147  -6274005.26645  22878086.2344                   22878087.1054
 -33465907.77747 -26048310.82444  23894161.3834                   23894160.5234
 -28699808.58248 -22323783.93746  21112971.9774                   21112970.4804
 -22855925.75848 -17780157.21146  20944744.9694                   20944743.8834
 -30501609.19547 -23714187.43744  22683204.0234                   22683203.2704
 -10766880.06246  -8346651.77043  24689394.9774                   24689399.0664
 -34319801.74648 -26734263.36346  20670328.7034                   20670324.8244
 11  8 17  1  7 30.0000000  0  8G12G25G17G10G05G04G09G02
 -26089714.55948 -20299859.65646  20799149.3444                   20799147.0394
  -8202992.43047  -6364550.00845  22855974.7114                   22855975.8094
 -33435988.67647 -26024997.21144  23899854.8834                   23899854.3324
 -28693329.75848 -22318735.51646  21114204.9144                   21114203.2424
 -22954222.28948 -17856751.85946  20926039.7504                   20926038.5944
 -30454293.77747 -23677318.30144  22692207.4144                   22692207.4804
 -10719287.64146  -8309566.98843  24698451.5944                   24698455.4844
 -34337896.27048 -26748363.00046  20666885.2034                   20666881.3914
 11  8 17  1  8  0.0000000  0  8G12G25G17G10G05G04G09G02
 -26149268.94148 -20346265.67646  20787816.4694                   20787813.8674
  -8318802.28147  -6454791.40645  22833936.2344                   22833937.6134
 -33405854.43447 -26001515.93744  23905590.0704                   23905588.3794
 -28686236.29348 -22313208.12146  21115554.9774                   21115553.1724
 -23052009.59448 -17932949.71546  20907431.6254                   20907430.0164
 -30406920.45347 -23640404.04345  22701222.9454                   22701222.4414
 -10671720.13346  -8272501.60543  24707502.8754                   24707507.7624
 -34355747.36348 -26762272.94146  20663488.1024                   20663484.0514
 11  8 17  1  8 30.0000000  0  8G12G25G17G10G05G04G09G02
 -26208229.79748 -20392209.20346  20776596.3834                   20776594.0274
  -8434215.70347  -6544723.92245  22811974.1954                   22811974.2194
 -33375500.03946 -25977863.21144  23911365.0084                   23911365.3594
 -28678525.64548 -22307199.82846  21117021.9694                   21117020.5004
 -23149281.25048 -18008745.76246  20888921.2424                   20888919.6214
 -30359485.93447 -23603442.06645  22710249.3594                   22710248.9064
 -10624175.81646  -8235454.29343  24716551.5634                   24716555.7234
 -34373351.80548 -26775990.69946  20660138.2274                   20660134.2034
 11  8 17  1  9  0.0000000  0  8G12G25G17G10G05G04G09G02
 -26266597.81648 -20437690.78546  20765489.5234                   20765487.6094
  -8549232.14147  -6634347.08645  22790086.9454                   22790087.2624
 -33344927.69146 -25954040.62943  23917182.5554                   23917182.6174
 -28670201.32848 -22300713.33646  21118606.0634                   21118604.5514
 -23246037.18048 -18084139.95346  20870509.3204                   20870508.0204
 -30311993.30147 -23566434.85545  22719287.4924                   22719286.3324
 -10576660.13346  -8198429.29343  24725592.0314                   24725597.9654
 -34390712.53148 -26789518.53946  20656834.5004                   20656830.8094
 11  8 17  1  9 30.0000000  0  8G12G25G17G10G05G04G09G02
 -26324376.83248 -20482713.39546  20754494.4304                   20754492.1134
  -8663854.20347  -6723662.94545  22768275.2814                   22768275.9804
 -33314142.14146 -25930051.90844  23923040.8674                   23923040.9144
 -28661269.96948 -22293753.84046  21120305.8524                   21120304.1914
 -23342280.52748 -18159134.72746  20852194.5474                   20852193.1884
 -30264449.28147 -23529387.59844  22728334.0634                   22728333.3204
 -10529181.05946  -8161432.83243  24734628.1804                   24734632.6604
 -34407835.96948 -26802861.48446  20653575.9694                   20653572.1374
 11  8 17  1 10  0.0000000  0  8G12G25G17G10G05G04G09G02
 -26381570.19948 -20527279.65246  20743610.9224                   20743608.3634
  -8778084.00047  -6812673.15245  22746537.8524                   22746538.3444
 -33283148.12146 -25905900.76644  23928939.0394                   23928938.7074
 -28651738.09848 -22286326.40246  21122119.8594                   21122117.9614
 -23438013.97348 -18233732.16846  20833976.7974                   20833975.5784
 -30216859.78547 -23492304.89844  22737390.1954                   22737389.5274
 -10481746.16446  -8124470.83243  24743655.1174                   24743659.1564
 -34424727.94948 -26816024.06646  20650361.7504                   20650357.9774
 11  8 17  1 10 30.0000000  0  8G12G25G17G10G05G04G09G02
 -26438162.23448 -20571377.34446  20732841.6644                   20732839.1804
  -8891904.21147  -6901364.16845  22724878.3674                   22724879.2704
 -33251930.48847 -25881575.36344  23934880.6254                   23934879.5164
 -28641592.85948 -22278421.01646  21124050.3284                   21124048.3754
 -23533220.53948 -18307919.07446  20815859.7424                   20815858.1374
 -30169211.40247 -23455176.32044  22746457.3674                   22746456.9494
 -10434343.43446  -8087533.85943  24752675.0634                   24752680.4224
 -34441374.96148 -26828995.77346  20647193.9844                   20647189.9804
 11  8 17  1 11  0.0000000  0  8G12G25G17G10G05G04G09G02
 -26494166.03948 -20615016.67246  20722185.0944                   20722182.1994
  -9005326.11747  -6989744.84045  22703295.0234                   22703295.5634
 -33220503.11746 -25857086.52344  23940860.4774                   23940860.4924
 -28630849.70747 -22270049.71546  21126094.7974                   21126092.9964
 -23627912.30948 -18381704.82446  20797840.6334                   20797838.7464
 -30121518.91847 -23418013.36344  22755533.0314                   22755532.4104
 -10386989.82446  -8050635.09843  24761687.2424                   24761691.6684
 -34457792.07848 -26841788.32846  20644069.7734                   20644065.5634
 11  8 17  1 11 30.0000000  0  7G12G25G17G10G05G04G02
 -26549569.28548 -20658188.02746  20711641.1484                   20711639.3874
  -9118336.24647  -7077804.64545  22681789.9924                   22681790.9104
 -33188854.86746 -25832425.57444  23946882.2274                   23946882.3404
 -28619499.52348 -22261205.41446  21128254.7814                   21128253.2384
 -23722076.26248 -18455079.29346  20779921.7424                   20779920.0474
 -30073772.84047 -23380808.68044  22764618.4694                   22764618.1884
 -34473969.57448 -26854394.17646  20640991.2814                   20640987.3874
 11  8 17  1 12  0.0000000  0  7G12G25G17G10G05G04G02
 -26604383.97748 -20700900.76246  20701210.7114                   20701208.4964
  -9230944.86347  -7165551.57045  22660361.1564                   22660362.3874
 -33156998.35246 -25807602.34043  23952944.4534                   23952944.0984
 -28607556.93048 -22251899.50046  21130526.8914                   21130525.4184
 -23815723.58648 -18528051.19146  20762101.5164                   20762099.6564
 -30025987.30547 -23343573.21544  22773712.2664                   22773711.5904
 -34489921.18048 -26866824.00046  20637955.7274                   20637952.1334
 11  8 17  1 12 30.0000000  0  7G12G25G17G10G05G04G02
 -26658592.61348 -20743141.25446  20690895.1644                   20690892.7774
  -9343132.98448  -7252970.85545  22639012.8524                   22639013.7074
 -33124916.98447 -25782603.90244  23959050.4924                   23959049.1804
 -28595007.13348 -22242120.44146  21132915.0944                   21132913.4654
 -23908835.26248 -18600605.70346  20744382.9144                   20744380.6484
 -29978146.95347 -23306295.07844  22782815.7504                   22782815.4964
 -34505631.54748 -26879065.85246  20634966.2344                   20634962.0274
 11  8 17  1 13  0.0000000  0  7G12G25G17G10G05G04G02
 -26712204.94548 -20784917.08646  20680693.3444                   20680691.1334
  -9454908.92248  -7340068.95745  22617742.3284                   22617743.4184
 -33092621.53947 -25757438.67644  23965195.2584                   23965194.5004
 -28581862.87948 -22231878.15646  21135416.6094                   21135414.9844
 -24001420.39848 -18672749.92246  20726763.9454                   20726763.0904
 -29930263.77347 -23268983.52744  22791927.7974                   22791927.2424
 -34521112.78148 -26891129.15646  20632020.2894                   20632016.5824
 11  8 17  1 13 30.0000000  0  7G12G25G17G10G05G04G02
 -26765213.98448 -20826222.82046  20670605.7734                   20670603.6954
  -9566264.14848  -7426839.21545  22596552.6564                   22596553.1804
 -33060105.73447 -25732101.69144  23971382.8134                   23971382.9224
 -28568119.86748 -22221169.31246  21138031.6804                   21138030.1804
 -24093471.28148 -18744477.84846  20709247.3914                   20709245.7464
 -29882333.10947 -23231634.99244  22801049.1334                   22801047.8554
 -34536359.91848 -26903010.04346  20629118.7894                   20629114.7304
 11  8 17  1 14  0.0000000  0  7G12G25G17G10G05G04G02
 -26817625.87948 -20867063.24246  20660632.4924                   20660630.2734
  -9677203.01648  -7513285.04745  22575441.1094                   22575442.1644
 -33027376.44147 -25706598.38744  23977611.2194                   23977611.6054
 -28553787.02348 -22210000.86346  21140759.4384                   21140757.7814
 -24184993.01648 -18815793.45746  20691831.3134                   20691829.6374
 -29834363.19947 -23194255.88344  22810176.5164                   22810176.3324
 -34551381.10948 -26914714.87546  20626260.4454                   20626256.7734
 11  8 17  1 14 30.0000000  0  7G12G25G17G10G05G04G02
 -26869429.01248 -20907429.31646  20650774.5234                   20650772.0664
  -9787712.53148  -7599396.33245  22554411.7974                   22554412.0664
 -32994423.00846 -25680920.37543  23983881.8444                   23983882.2234
 -28538855.57048 -22198365.95745  21143600.2114                   21143598.7234
 -24275972.96948 -18886686.88746  20674518.3204                   20674517.1094
 -29786344.42647 -23156838.66444  22819314.8524                   22819313.9264
 -34566167.00048 -26926236.34046  20623446.8284                   20623442.3284
 11  8 17  1 15  0.0000000  0  7G12G25G17G10G05G04G02
 -25345203.10548 -19719720.80946  20940825.0554                   20940822.6414
  -8322368.54748  -6457569.84045  22833257.8054                   22833258.1524
 -31385828.38346 -24427470.03543  24289988.1954                   24289986.8984
 -26947910.00048 -20958668.11746  21446347.2504                   21446345.6054
 -22790988.14848 -17729555.82046  20957101.5164                   20957100.2504
 -28162861.79747 -21891787.28544  23128253.1254                   23128252.7504
 -33005300.08248 -25709976.40246  20920469.6564                   20920465.9494
 11  8 17  1 15 30.0000000  0  7G12G25G17G10G05G04G02
 -25395802.37148 -19759148.80546  20931196.4304                   20931194.0434
  -8432027.87547  -6543018.66045  22812389.9224                   22812390.7344
 -31352442.12946 -24401454.81643  24296341.1564                   24296340.0744
 -26931803.17648 -20946117.34846  21449412.3524                   21449410.7504
 -22880895.06648 -17799613.12946  20939993.1884                   20939990.8834
 -28114765.05547 -21854309.35544  23137405.9064                   23137405.3444
 -33019634.34448 -25721145.96546  20917741.9844                   20917738.3714
 11  8 17  1 16  0.0000000  0  7G12G25G17G10G05G04G02
 -25445795.17648 -19798104.22746  20921682.8524                   20921680.7344
  -8541254.99648  -6628130.67245  22791604.8984                   22791605.4414
 -31318836.20346 -24375268.38343  24302735.5004                   24302734.2974
 -26915108.22748 -20933108.29746  21452589.3674                   21452588.0234
 -22970259.46948 -17869247.69146  20922987.3054                   20922985.7854
 -28066627.50047 -21816799.61344  23146566.0164                   23146565.4454
 -33033741.28148 -25732138.38746  20915057.6414                   20915053.6484
 11  8 17  1 16 30.0000000  0  7G12G25G17G10G05G04G02
 -25495190.41048 -19836594.02346  20912283.3834                   20912281.0474
  -8650057.24647  -6712911.63745  22770900.2274                   22770901.1414
 -31285019.99246 -24348918.07443  24309170.9614                   24309169.3794
 -26897836.78148 -20919650.03946  21455875.6884                   21455873.7034
 -23059089.37548 -17938465.77046  20906083.7034                   20906082.1334
 -28018460.43047 -21779266.82844  23155732.1334                   23155731.0784
 -33047631.84448 -25742962.20746  20912414.5474                   20912410.1374
 11  8 17  1 17  0.0000000  0  7G12G25G17G10G05G04G02
 -25543975.35948 -19874608.26646  20903000.3524                   20902998.1294
  -8758420.21148  -6797350.28945  22750279.1334                   22750280.1914
 -31250981.85246 -24322394.84043  24315647.1884                   24315647.7544
 -26879979.23848 -20905735.06246  21459274.0554                   21459272.3874
 -23147371.00048 -18007256.61346  20889283.9534                   20889282.5514
 -27970252.91047 -21741702.56644  23164906.0704                   23164905.1334
 -33061294.91848 -25753608.75446  20909814.3674                   20909810.3834
 11  8 17  1 17 30.0000000  0  7G12G25G17G10G05G04G02
 -25592163.22748 -19912157.25046  20893830.2584                   20893827.5664
  -8866355.26247  -6881455.52745  22729740.1334                   22729741.1024
 -31216735.35946 -24295709.25843  24322165.3914                   24322164.6134
 -26861551.29748 -20891375.63346  21462781.0084                   21462779.3634
 -23235116.29348 -18075629.53146  20872586.9844                   20872585.4144
 -27922019.78147 -21704118.31644  23174084.3364                   23174083.3484
 -33074745.63748 -25764089.83246  20907254.9064                   20907250.8954
 11  8 17  1 18  0.0000000  0  7G12G25G17G10G05G04G02
 -25639760.63748 -19949246.14146  20884772.5394                   20884770.1524
  -8973867.40648  -6965231.22345  22709281.1644                   22709282.0004
 -31182287.82046 -24268866.99643  24328719.8054                   24328720.2384
 -26842562.34448 -20876579.05545  21466394.2664                   21466392.8914
 -23322331.29748 -18143589.24646  20855990.3674                   20855988.4964
 -27873769.56247 -21666520.77744  23183265.9614                   23183265.4064
 -33087992.67248 -25774412.19946  20904734.0004                   20904729.9654
 11  8 17  1 18 30.0000000  0  7G12G25G17G10G05G04G02
 -25686751.04748 -19985862.05146  20875830.9384                   20875828.2154
  -9080938.41848  -7048663.19145  22688906.1484                   22688906.9344
 -31147623.49246 -24241855.87543  24335316.0864                   24335316.7544
 -26822998.78948 -20861334.72346  21470117.1484                   21470115.4104
 -23408998.24648 -18211121.91046  20839498.3284                   20839496.6804
 -27825487.87147 -21628898.71144  23192454.2734                   23192453.4494
 -33101021.27748 -25784564.35246  20902254.6174                   20902250.7544
 11  8 17  1 19  0.0000000  0  7G12G25G17G10G05G04G02
 -25733137.85948 -20022007.62946  20867003.6954                   20867001.2774
  -9187569.97747  -7131752.71145  22668614.9844                   22668615.6764
 -31112746.33246 -24214678.85543  24341952.5944                   24341953.2274
 -26802866.66848 -20845647.37145  21473948.2584                   21473946.3714
 -23495119.40648 -18278229.27346  20823109.9774                   20823108.1294
 -27777179.68047 -21591256.01644  23201646.4924                   23201645.8204
 -33113836.55948 -25794550.27746  20899815.8914                   20899812.5944
 11  8 17  1 19 30.0000000  0  7G12G25G17G10G05G04G02
 -25778916.53548 -20057679.33646  20858292.2894                   20858289.8984
  -9293756.17647  -7214495.20345  22648408.2194                   22648408.7734
 -31077652.72746 -24187333.16443  24348630.9534                   24348630.9414
 -26782164.39148 -20829515.72746  21477887.6334                   21477886.2774
 -23580690.17648 -18344907.76246  20806826.1414                   20806824.4654
 -27728842.59447 -21553590.77344  23210844.5314                   23210843.9614
 -33126436.05548 -25804368.07046  20897418.6804                   20897414.7034
 11  8 17  1 20  0.0000000  0  7G12G25G17G10G05G04G02
 -25824078.45348 -20092870.44546  20849698.0554                   20849696.0004
  -9399485.68047  -7296881.84045  22628289.0394                   22628289.5044
 -31042333.93046 -24159812.05143  24355352.1804                   24355351.7274
 -26760885.06648 -20812934.45345  21481936.9774                   21481935.4774
 -23665699.59848 -18411148.84446  20790649.3524                   20790647.6334
 -27680468.74246 -21515896.90244  23220049.6174                   23220049.5004
 -33138812.05148 -25814011.69546  20895063.3364                   20895059.2624
 11  8 17  1 20 30.0000000  0  7G12G25G17G10G05G04G02
 -25868642.15248 -20127595.41446  20841217.7114                   20841214.9924
  -9504775.87547  -7378926.14845  22608252.8284                   22608253.9694
 -31006809.71147 -24132130.78543  24362112.2274                   24362112.7544
 -26739050.87148 -20795920.80145  21486091.9694                   21486090.0744
 -23750165.81648 -18476966.63747  20774576.0864                   20774574.2934
 -27632078.91847 -21478190.55944  23229257.9534                   23229257.7854
 -33150985.41048 -25823497.42646  20892746.8914                   20892742.8594
 11  8 17  1 21  0.0000000  0  8G12G25G17G10G05G04G29G02
 -25912605.73048 -20161852.75846  20832852.1254                   20832849.6644
  -9609622.84847  -7460625.08645  22588300.9454                   22588302.2074
 -30971078.46547 -24104288.22744  24368911.8134                   24368911.6134
 -26716662.67248 -20778475.46145  21490352.3054                   21490350.5204
 -23834085.93048 -18542358.90246  20758606.6174                   20758604.5864
 -27583672.80546 -21440471.54744  23238469.1024                   23238468.8634
   6134395.78156   4803055.12553  24719184.8284                   24719184.1564
 -33162955.81248 -25832825.00846  20890468.9774                   20890465.2034
 11  8 17  1 21 30.0000000  0  8G12G25G17G10G05G04G29G02
 -25955971.34048 -20195644.16046  20824599.8984                   20824597.1994
  -9714026.85947  -7541978.88345  22568434.0234                   22568434.3284
 -30935142.78547 -24076286.38344  24375750.1414                   24375749.7584
 -26693725.00848 -20760601.96545  21494716.7584                   21494715.3244
 -23917461.00848 -18607326.47346  20742740.7034                   20742738.9024
 -27535254.02747 -21402742.66844  23247682.8134                   23247682.6724
   6020751.29746   4714501.00042  24697557.1564                   24697558.3674
 -33174726.88748 -25841997.27046  20888228.9224                   20888224.8164
 11  8 17  1 22  0.0000000  0  8G12G25G17G10G05G04G29G02
 -25998737.68748 -20228968.59446  20816461.6254                   20816459.3364
  -9817984.90647  -7622985.15645  22548651.3834                   22548651.5274
 -30899002.03546 -24048124.75044  24382627.3284                   24382627.3834
 -26670239.50847 -20742301.59045  21499186.0784                   21499184.8164
 -24000288.64148 -18671867.44946  20726978.9304                   20726977.4614
 -27486823.08647 -21365004.31244  23256899.3674                   23256899.2894
   5907050.60946   4625903.07043  24675921.2114                   24675921.8984
 -33186299.08248 -25851014.55546  20886026.9924                   20886022.9574
 11  8 17  1 22 30.0000000  0  8G12G25G17G10G05G04G29G02
 -26040909.68448 -20261829.89846  20808436.2194                   20808434.0514
  -9921500.16047  -7703646.38345  22528952.7274                   22528953.4264
 -30862661.85546 -24019807.70344  24389542.8914                   24389542.5744
 -26646213.55547 -20723580.07845  21503758.2344                   21503756.8794
 -24082572.86348 -18735984.99646  20711321.0944                   20711319.2344
 -27438386.26647 -21327261.34444  23266116.5864                   23266115.9964
   5793288.71546   4537257.47343  24654272.8054                   24654273.8794
 -33197678.77748 -25859881.84446  20883861.7894                   20883857.5634
 11  8 17  1 23  0.0000000  0  8G12G25G17G10G05G04G29G02
 -26082480.70748 -20294222.90646  20800525.9224                   20800523.4844
 -10024563.91047  -7783955.78945  22509340.1644                   22509341.0634
 -30826115.85546 -23991330.34044  24396497.5084                   24396497.3554
 -26621642.94147 -20704434.15245  21508433.6884                   21508432.4574
 -24164305.81648 -18799672.98446  20695767.6644                   20695766.2854
 -27389938.35947 -21289509.77044  23275335.5474                   23275335.9844
   5679472.30146   4448569.40243  24632614.4924                   24632615.4104
 -33208860.77748 -25868595.07846  20881733.7274                   20881729.5354
 11  8 17  1 23 30.0000000  0  8G12G25G17G10G05G04G29G02
 -26123452.86748 -20326149.27046  20792729.2664                   20792726.9184
 -10127176.77347  -7863913.86345  22489813.5474                   22489814.1884
 -30789367.03946 -23962694.89844  24403489.7034                   24403490.6914
 -26596533.09448 -20684868.04745  21513212.0704                   21513210.8874
 -24245489.31248 -18862932.81646  20680318.8834                   20680317.1564
 -27341483.40647 -21251752.70344  23284556.4454                   23284556.3554
   5565599.19146   4359837.09044  24610945.3284                   24610946.0634
 -33219849.27048 -25877157.54346  20879642.3914                   20879638.6954
 11  8 17  1 24  0.0000000  0  8G12G25G17G10G05G04G29G02
 -26163824.92648 -20357608.02746  20785046.6804                   20785044.3754
 -10229335.25847  -7943517.85545  22470373.5394                   22470374.3874
 -30752414.19546 -23933900.44944  24410521.3364                   24410521.9224
 -26570885.24648 -20664882.70745  21518092.8054                   21518091.5124
 -24326120.08248 -18925761.96146  20664975.5394                   20664973.4224
 -27293021.09847 -21213989.88344  23293779.0164                   23293778.6134
   5451671.07846   4271061.95343  24589265.8134                   24589265.8554
 -33230644.06648 -25885569.07046  20877588.4614                   20877584.1524
 11  8 17  1 24 30.0000000  0  8G12G25G17G10G05G04G29G02
 -26203599.16048 -20388600.93446  20777477.9774                   20777475.6644
 -10331039.90647  -8022768.20345  22451020.5004                   22451021.4414
 -30715260.29746 -23904949.37144  24417592.4454                   24417591.1994
 -26544704.35948 -20644482.02045  21523074.7584                   21523073.5984
 -24406199.77348 -18988161.68046  20649736.5474                   20649734.8874
 -27244555.34047 -21176224.36744  23303001.4614                   23303000.4884
   5337685.50846   4182242.05544  24567575.1954                   24567574.9884
 -33241249.15248 -25893832.77346  20875570.2734                   20875566.4454
 11  8 17  1 25  0.0000000  0  8G12G25G17G10G05G04G29G02
 -26242766.64548 -20419121.05146  20770024.5864                   20770021.9964
 -10432279.80947  -8101656.41045  22431754.6564                   22431755.5274
 -30677896.63346 -23875834.83643  24424702.2504                   24424701.9064
 -26517984.13348 -20623661.07845  21528159.6024                   21528158.0274
 -24485718.52348 -19050124.31246  20634604.9694                   20634602.9064
 -27196078.34847 -21138450.09044  23312226.6174                   23312225.4574
   5223651.69946   4093384.56344  24545875.5164                   24545875.3714
 -33251656.96548 -25901942.75846  20873589.7034                   20873585.6524
 11  8 17  1 25 30.0000000  0  8G12G25G17G10G05G04G29G02
 -26281325.58248 -20449166.97346  20762687.0004                   20762684.2734
 -10533051.06247  -8180179.43745  22412578.5944                   22412579.2234
 -30640321.82446 -23846555.77343  24431852.4774                   24431851.4224
 -26490725.12548 -20602420.28545  21533346.8754                   21533345.2664
 -24564673.23848 -19111647.43446  20619580.1414                   20619578.4534
 -27147589.59847 -21100666.68444  23321453.8364                   23321452.6724
   5109571.83246   4004491.20744  24524166.3364                   24524166.7194
 -33261866.68048 -25909898.37146  20871647.0704                   20871642.9454
 11  8 17  1 26  0.0000000  0  8G12G25G17G10G05G04G29G02
 -26319279.45748 -20478741.40646  20755464.4614                   20755462.1844
 -10633355.38747  -8258338.60245  22393491.0704                   22393492.3014
 -30602539.90646 -23817115.33643  24439041.8134                   24439041.4384
 -26462933.55147 -20580764.49645  21538635.2814                   21538633.8794
 -24643066.36748 -19172732.95346  20604662.3284                   20604660.5744
 -27099094.12147 -21062877.98843  23330682.2664                   23330680.9694
   4995442.69547   3915559.42244  24502447.4774                   24502448.2974
 -33271883.45348 -25917703.64846  20869740.6254                   20869736.3554
 11  8 17  1 26 30.0000000  0  8G12G25G17G10G05G04G29G02
 -26356637.20348 -20507851.33646  20748355.9384                   20748353.4614
 -10733199.73047  -8336139.34445  22374491.3594                   22374492.0904
 -30564560.15246 -23787520.77342  24446270.0314                   24446269.8954
 -26434621.17248 -20558702.91445  21544023.3524                   21544021.5314
 -24720905.87148 -19233387.09046  20589849.9534                   20589847.9494
 -27050601.77747 -21025091.73444  23339909.7734                   23339908.6094
   4881255.50447   3826582.40244  24480719.3204                   24480718.8134
 -33281717.48848 -25925366.53546  20867869.2584                   20867865.0984
 11  8 17  1 27  0.0000000  0  8G12G25G17G10G05G04G29G02
 -26393389.00048 -20536489.09046  20741361.9144                   20741359.6054
 -10832572.44148  -8413572.57845  22355581.2504                   22355582.2074
 -30526373.16445 -23757764.67243  24453535.8914                   24453536.6954
 -26405781.05548 -20536230.09445  21549511.1254                   21549509.3284
 -24798181.03148 -19293601.46947  20575144.5314                   20575143.0864
 -27002104.34447 -20987301.53144  23349137.8984                   23349137.6454
   4767020.40647   3737568.10944  24458981.0944                   24458981.4774
 -33291360.66048 -25932880.68746  20866034.2194                   20866030.3054
 11  8 17  1 27 30.0000000  0  8G12G25G17G10G05G04G29G02
 -26429532.81648 -20564653.09446  20734484.1094                   20734481.7664
 -10931469.33647  -8490635.03945  22336761.8754                   22336762.4494
 -30487977.02745 -23727845.60943  24460841.5234                   24460842.7664
 -26376413.25848 -20513346.09445  21555099.3364                   21555097.9264
 -24874888.77748 -19353373.71146  20560547.9384                   20560546.2464
 -26953600.79347 -20949506.54744  23358368.2894                   23358367.1564
   4652739.85547   3648518.36744  24437234.1884                   24437234.1414
 -33300811.89848 -25940245.29346  20864235.8054                   20864232.0124
 11  8 17  1 28  0.0000000  0  8G12G25G17G10G05G04G29G02
 -26465075.73048 -20592348.86346  20727720.5234                   20727718.1334
 -11029895.12547  -8567330.40245  22318032.2114                   22318032.5204
 -30449379.09046 -23697769.31643  24468188.6484                   24468188.0594
 -26346527.21147 -20490058.27045  21560786.7584                   21560785.2584
 -24951034.36748 -19412707.91447  20546057.9454                   20546056.1804
 -26905098.70347 -20911712.71944  23367598.4304                   23367597.1884
   4538407.60247   3559428.33244  24415477.1094                   24415477.9734
 -33310079.27748 -25947466.62146  20862472.3674                   20862468.3404
 11  8 17  1 28 30.0000000  0  8G12G25G17G10G05G04G29G02
 -26500015.56248 -20619574.69546  20721071.6254                   20721068.8594
 -11127846.37947  -8643655.99645  22299392.2344                   22299392.9414
 -30410577.93446 -23667534.68743  24475571.9924                   24475570.9454
 -26316124.36347 -20466367.73445  21566572.1564                   21566570.6294
 -25026615.37148 -19471602.17647  20531675.4064                   20531673.8054
 -26856598.01646 -20873919.97344  23376827.8754                   23376827.0394
   4424025.68846   3470299.64844  24393711.0554                   24393711.6484
 -33319162.46548 -25954544.43046  20860743.6334                   20860739.6374
 11  8 17  1 29  0.0000000  0  7G12G25G10G05G04G29G02
 -26534331.48848 -20646314.36746  20714541.5474                   20714539.0784
 -11225299.63347  -8719593.53945  22280847.6024                   22280848.3164
 -26285185.47348 -20442259.50845  21572459.7344                   21572457.9964
 -25101609.40648 -19530039.06247  20517404.6024                   20517402.4384
 -26808078.38347 -20836112.48444  23386060.4064                   23386060.0984
   4309615.58646   3381148.99644  24371939.4924                   24371939.8164
 -33328041.14848 -25961462.87946  20859054.2034                   20859050.1094
 11  8 17  1 29 30.0000000  0  7G12G25G10G05G04G29G02
 -26568043.29748 -20672583.30146  20708126.4144                   20708123.3914
 -11322273.00447  -8795157.14145  22262394.1724                   22262394.6254
 -26253733.22748 -20417751.26245  21578444.6564                   21578443.1914
 -25176035.65248 -19588033.50847  20503241.4694                   20503239.5864
 -26759560.75446 -20798306.55144  23395293.8364                   23395293.0394
   4195157.96146   3291961.30943  24350159.5634                   24350158.8984
 -33336736.64548 -25968238.58646  20857399.3054                   20857395.4574
 11  8 17  1 30  0.0000000  0  7G12G25G10G05G04G29G02
 -26601156.70348 -20698385.94946  20701825.0004                   20701822.9804
 -11418769.88748  -8870349.45746  22244031.4454                   22244031.7424
 -26221776.01648 -20392849.54745  21584526.4924                   21584524.4734
 -25249898.39548 -19645588.86746  20489186.1724                   20489184.1804
 -26711051.54746 -20760507.16844  23404524.3524                   23404523.9964
   4080648.13346   3202732.93843  24328368.2194                   24328368.1954
 -33345255.37548 -25974876.56646  20855778.1334                   20855774.3714
 11  8 17  1 30 30.0000000  0  7G12G25G10G05G04G29G02
 -26633654.03948 -20723708.54346  20695641.2344                   20695638.7464
 -11514770.94547  -8945155.42645  22225763.1564                   22225763.5704
 -26189298.76648 -20367542.59845  21590706.5704                   21590704.8914
 -25323179.27748 -19702690.82447  20475241.1724                   20475239.0274
 -26662534.64546 -20722701.81644  23413756.3914                   23413756.3134
   3966103.66046   3113477.62943  24306571.3204                   24306571.2854
 -33353581.33648 -25981364.32446  20854193.9454                   20854190.0984
 11  8 17  1 31  0.0000000  0  7G12G25G10G05G04G29G02
 -26665534.06248 -20748550.10546  20689574.4534                   20689572.1764
 -11610272.50048  -9019572.16845  22207589.5944                   22207590.0704
 -26156302.46547 -20341831.19945  21596985.3984                   21596983.8244
 -25395875.47348 -19759337.18447  20461407.2504                   20461405.4964
 -26614009.34846 -20684889.91844  23422990.6024                   23422990.8834
   3851526.58246   3024196.87943  24284767.2974                   24284767.7114
 -33361714.12148 -25987701.55546  20852646.4064                   20852642.8754
 11  8 17  1 31 30.0000000  0  7G12G25G10G05G04G29G02
 -26696803.21948 -20772915.68046  20683623.9774                   20683621.3674
 -11705279.07447  -9093603.22745  22189510.0784                   22189510.7624
 -26122796.02748 -20315722.28945  21603361.3284                   21603360.5744
 -25467992.62548 -19815532.34847  20447683.6884                   20447682.2584
 -26565483.09946 -20647077.27944  23432224.8284                   23432223.7664
   3736911.33646   2934886.35243  24262957.3364                   24262956.4694
 -33369661.34048 -25993894.19546  20851134.3754                   20851130.1564
 11  8 17  1 32  0.0000000  0  7G12G25G10G05G04G29G02
 -26727464.42248 -20796807.53946  20677789.8134                   20677787.1024
 -11799791.23048  -9167249.02345  22171524.9064                   22171526.1054
 -26088784.85247 -20289220.09045  21609833.4384                   21609831.4024
 -25539532.31248 -19871277.52746  20434070.5004                   20434068.8094
 -26516959.24646 -20609266.52043  23441458.4924                   23441458.1484
   3622255.66846   2845544.34443  24241138.4534                   24241138.5824
 -33377426.65248 -25999945.09846  20849656.3834                   20849652.2154
 11  8 17  1 32 30.0000000  0  7G12G25G10G05G04G29G02
 -26757519.89548 -20820227.37946  20672070.3834                   20672067.7934
 -11893809.51248  -9240509.99645  22153634.0864                   22153634.7624
 -26054274.15648 -20262328.63345  21616400.6564                   21616399.2774
 -25610495.91048 -19926573.80947  20420566.4454                   20420564.3714
 -26468441.56647 -20571460.56644  23450691.7194                   23450691.0314
   3507557.68446   2756169.39143  24219312.2194                   24219312.0044
 -33385013.26248 -26005856.74646  20848212.6414                   20848208.8954
 11  8 17  1 33  0.0000000  0  7G12G25G10G05G04G29G02
 -26786969.80548 -20843175.37146  20666466.2194                   20666463.6094
 -11987331.62548  -9313384.33645  22135837.6254                   22135837.6914
 -26019266.26248 -20235049.76245  21623062.3984                   21623060.7854
 -25680882.39548 -19981420.39546  20407172.2894                   20407170.4264
 -26419930.39546 -20533659.69144  23459922.8594                   23459922.6914
   3392818.57046   2666762.34843  24197477.9774                   24197477.6414
 -33392422.23448 -26011629.97346  20846802.9774                   20846798.9064
 11  8 17  1 33 30.0000000  0  7G12G25G10G05G04G29G02
 -26815819.38348 -20865655.55946  20660976.2274                   20660973.8954
 -12080360.64148  -9385874.46545  22118134.7424                   22118135.4804
 -25983768.59847 -20207389.25445  21629816.7664                   21629815.6844
 -25750695.79348 -20035820.41447  20393886.9224                   20393885.3754
 -26371431.75846 -20495868.58244  23469152.1804                   23469151.2504
   3278033.62146   2577319.62944  24175635.2734                   24175635.2814
 -33399659.82448 -26017269.66446  20845425.7424                   20845422.0664
 11  8 17  1 34  0.0000000  0  7G12G25G10G05G04G29G02
 -26844064.78148 -20887664.96146  20655601.1564                   20655598.9574
 -12172891.00448  -9457976.03145  22100526.6024                   22100527.1484
 -25947780.03147 -20179346.20745  21636665.8284                   21636664.4844
 -25819931.82848 -20089770.54747  20380711.9064                   20380710.0274
 -26322942.93446 -20458085.12144  23478378.4924                   23478378.8524
   3163207.39546   2487844.74244  24153784.7814                   24153784.3484
 -33406723.41048 -26022773.76246  20844081.4694                   20844077.6524
 11  8 17  1 34 30.0000000  0  7G12G25G10G05G04G29G02
 -26871690.45348 -20909191.46546  20650344.1954                   20650341.7814
 -12264904.80948  -9529675.08645  22083017.2114                   22083017.6254
 -25911287.33247 -20150910.34845  21643610.3834                   21643608.2974
 -25888573.30948 -20143257.38347  20367650.0314                   20367648.3054
 -26274448.80947 -20420297.53544  23487607.3364                   23487606.9024
   3048356.48446   2398350.60543  24131929.4224                   24131928.9494
 -33413597.93748 -26028130.54346  20842773.4144                   20842769.1484
 11  8 17  1 35  0.0000000  0  7G12G25G10G05G04G29G02
 -26898717.99648 -20930251.90246  20645201.0474                   20645198.5554
 -12356421.17648  -9600986.52346  22065601.9304                   22065602.2894
 -25874314.41047 -20122100.27045  21650645.3984                   21650644.8324
 -25956640.37948 -20196296.62947  20354697.1174                   20354695.3634
 -26225971.36747 -20382522.93744  23496831.9694                   23496832.0944
   2933460.00447   2308820.93444  24110065.7504                   24110064.4494
 -33420305.54748 -26033357.24646  20841496.9694                   20841492.9884
 11  8 17  1 35 30.0000000  0  7G12G25G10G05G04G29G02
 -26925148.80548 -20950847.33646  20640171.5944                   20640168.7774
 -12447439.60548  -9671909.98045  22048282.3444                   22048282.3484
 -25836865.50447 -20092919.30945  21657772.0634                   21657770.7974
 -26024133.83248 -20248888.91047  20341853.5474                   20341851.4654
 -26177512.85247 -20344763.09444  23506053.3204                   23506053.1214
   2818517.75447   2219255.64144  24088192.3984                   24088191.5274
 -33426848.82048 -26038455.91446  20840251.6024                   20840247.4414
 11  8 17  1 36  0.0000000  0  7G12G25G10G05G04G29G02
 -26950979.80948 -20970975.40646  20635255.8674                   20635253.6254
 -12537954.70348  -9742441.24246  22031057.2584                   22031057.4574
 -25798939.62147 -20063366.67245  21664989.3054                   21664988.0124
 -26091049.12548 -20301030.67247  20329120.1484                   20329118.0274
 -26129070.44147 -20307015.80144  23515271.4384                   23515271.7504
   2703533.89547   2129657.88744  24066311.4224                   24066310.1414
 -33433225.17248 -26043424.50846  20839038.3754                   20839034.5004
 11  8 17  1 36 30.0000000  0  7G12G25G10G05G04G29G02
 -26976218.57448 -20990641.98446  20630453.5704                   20630450.8094
 -12627972.19148  -9812584.76246  22013927.9614                   22013928.2194
 -25760547.01247 -20033450.35545  21672295.4064                   21672293.6844
 -26157393.18448 -20352727.31247  20316495.1884                   20316493.4774
 -26080652.81647 -20269287.82044  23524485.2664                   23524484.8014
   2588501.38347   2040022.16844  24044421.4224                   24044420.3794
 -33439443.28948 -26048269.80946  20837855.2664                   20837850.9384
 11  8 17  1 37  0.0000000  0  7G12G25G10G05G04G29G02
 -27000858.26248 -21009841.75046  20625764.3984                   20625761.9064
 -12717482.44148  -9882333.01246  21996894.5634                   21996894.8954
 -25721682.81647 -20003166.57445  21679690.7114                   21679689.4534
 -26223157.66448 -20403972.33247  20303980.6724                   20303978.9224
 -26032252.91847 -20231573.63744  23533695.0944                   23533695.0864
   2473428.55147   1950355.08244  24022523.6254                   24022524.1294
 -33445496.25048 -26052986.41446  20836703.2894                   20836699.3324
 11  8 17  1 37 30.0000000  0  7G12G25G10G05G04G29G02
 -27024894.96548 -21028571.65646  20621190.4694                   20621187.8324
 -12806479.63748  -9951681.48046  21979959.0554                   21979959.1954
 -25682345.68747 -19972514.25845  21687176.2894                   21687174.5474
 -26288337.76248 -20454762.00447  20291577.3364                   20291575.2504
 -25983867.58647 -20193870.80544  23542902.9064                   23542902.4964
   2358320.20347   1860660.35544  24000619.6174                   24000619.2664
 -33451381.17248 -26057572.07846  20835583.3754                   20835579.6764
 11  8 17  1 38  0.0000000  0  7G12G25G10G05G04G29G02
 -27048326.90248 -21046830.32846  20616731.2814                   20616729.1954
 -12894959.87948 -10020627.15646  21963121.3524                   21963122.1334
 -25642536.02047 -19941493.74645  21694752.2734                   21694750.4774
 -26352930.69548 -20505094.12947  20279285.0704                   20279283.1954
 -25935495.69547 -20156178.45744  23552108.1724                   23552107.6054
   2243179.27346   1770940.18844  23978708.6884                   23978708.2704
 -33457097.20748 -26062026.14146  20834495.6414                   20834491.9734
 11  8 17  1 38 30.0000000  0  7G12G25G10G05G04G29G02
 -25495724.72348 -19837010.46946  20912181.8834                   20912179.9694
 -11407489.33648  -8861559.21145  22246177.6484                   22246178.5594
 -24026828.87147 -18682501.16845  22002210.7584                   22002209.4884
 -24841504.70348 -19327359.56247  20566900.0784                   20566898.1994
 -24311710.49647 -18890891.30144  23861104.1334                   23861103.2464
   3703439.27046   2908805.19544  24256586.7584                   24256587.0084
 -31887215.93448 -24838742.04346  21133234.2814                   21133230.4454
 11  8 17  1 39  0.0000000  0  7G12G25G10G05G04G29G02
 -25517955.39148 -19854333.07846  20907951.4144                   20907949.4024
 -11494936.80948  -8929700.09846  22229537.4224                   22229538.3984
 -23986089.10247 -18650755.89545  22009963.3364                   22009961.8714
 -24904927.75848 -19376780.09047  20554831.2734                   20554829.3954
 -24263374.22347 -18853226.69944  23870301.9304                   23870301.6054
   3588228.57846   2819030.69544  24234663.6954                   24234662.7464
 -31892603.44948 -24842940.11346  21132208.9144                   21132205.3204
 11  8 17  1 39 30.0000000  0  7G12G25G10G05G04G29G02
 -25539590.39148 -19871191.53546  20903834.7344                   20903832.0554
 -11581869.57448  -8997439.93046  22212994.7814                   22212995.5274
 -23944893.00847 -18618655.04345  22017802.7274                   22017801.5004
 -24967769.20348 -19425747.42247  20542873.0234                   20542871.0984
 -24215061.32847 -18815580.34443  23879495.1954                   23879495.0554
   3472979.87546   2729226.55144  24212732.3754                   24212731.3634
 -31897832.55548 -24847014.74646  21131213.7734                   21131210.1024
 11  8 17  1 40  0.0000000  0  7G12G25G10G05G04G29G02
 -25560629.30948 -19887585.52046  20899830.8594                   20899828.3984
 -11668285.16448  -9064776.76646  22196549.9454                   22196550.7034
 -23903242.35547 -18586199.99245  22025728.4924                   22025726.9144
 -25030027.60948 -19474260.44147  20531025.7814                   20531023.4384
 -24166771.72347 -18777952.08243  23888684.6644                   23888684.3954
   3357694.34446   2639393.70743  24190793.8134                   24190793.5634
 -31902903.57048 -24850966.19146  21130248.9144                   21130244.6024
 11  8 17  1 40 30.0000000  0  7G12G25G10G05G04G29G02
 -25581071.04348 -19903514.16446  20895940.9614                   20895938.5594
 -11754180.15248  -9131707.93746  22180204.6484                   22180205.2894
 -23861138.30947 -18553391.65245  22033740.3984                   22033739.1914
 -25091700.96548 -19522317.57047  20519289.4384                   20519287.5204
 -24118504.59847 -18740341.34444  23897870.0084                   23897869.6914
   3242374.51246   2549534.13744  24168849.2274                   24168848.6954
 -31907815.63348 -24854793.78146  21129314.5704                   21129310.1484
 11  8 17  1 41  0.0000000  0  7G12G25G10G05G04G29G02
 -25600917.17248 -19918978.69546  20892164.2664                   20892162.1174
 -11839553.50448  -9198232.61746  22163959.1024                   22163959.7504
 -23818584.07047 -18520232.50045  22041838.3284                   22041836.4734
 -25152789.34848 -19569918.88347  20507664.9064                   20507662.6024
 -24070261.48847 -18702749.35544  23907050.3594                   23907050.4264
   3127020.61346   2459648.03544  24146897.9454                   24146897.6524
 -31912570.65647 -24858499.00446  21128409.2894                   21128405.6454
 11  8 17  1 41 30.0000000  0  7G12G25G10G05G04G29G02
 -25620181.11748 -19933989.57846  20888498.6414                   20888496.3134
 -11924416.43048  -9264359.55946  22147809.7814                   22147811.0554
 -23775595.73447 -18486735.10245  22050018.5784                   22050017.0084
 -25213305.02348 -19617073.92647  20496148.9774                   20496147.0554
 -24022055.88747 -18665186.58644  23916223.6254                   23916222.7504
   3011620.66447   2369726.05144  24124938.2194                   24124938.1454
 -31917182.67248 -24862092.79346  21127531.5554                   21127527.9064
 11  8 17  1 42  0.0000000  0  7G12G25G10G05G04G29G02
 -25638840.97748 -19948529.75446  20884947.8444                   20884945.3754
 -12008744.62548  -9330069.84046  22131762.5944                   22131763.2234
 -23732153.36347 -18452883.91445  22058285.4844                   22058283.6454
 -25273224.93748 -19663764.73847  20484746.7504                   20484744.5004
 -23973866.09447 -18627636.12544  23925393.6954                   23925393.8324
   2896198.05946   2279786.37144  24102974.1334                   24102973.5944
 -31921629.91848 -24865558.17646  21126685.3594                   21126681.7344
 11  8 17  1 42 30.0000000  0  7G12G25G10G05G04G29G02
 -25656911.85248 -19962610.97746  20881509.0784                   20881507.0004
 -12092551.13348  -9395373.59046  22115815.0554                   22115815.4064
 -23688274.56247 -18418692.66045  22066635.4144                   22066633.4804
 -25332563.21148 -19710002.32847  20473454.9384                   20473452.7114
 -23925707.58247 -18590110.06244  23934558.1484                   23934557.7774
   2780738.60546   2189818.01244  24081002.8834                   24081002.5634
 -31925927.79348 -24868907.17246  21125867.7664                   21125864.0664
 11  8 17  1 43  0.0000000  0  7G12G25G10G05G04G29G02
 -25674380.83248 -19976223.18746  20878184.8204                   20878182.5314
 -12175820.80148  -9460259.02746  22099969.1564                   22099969.7274
 -23643948.73447 -18384153.07445  22075070.3594                   22075068.7734
 -25391306.10948 -19755775.98847  20462276.5314                   20462274.4384
 -23877567.25447 -18552598.16444  23943718.5864                   23943718.6644
   2665256.76646   2099832.19544  24059027.4454                   24059026.6134
 -31930063.77748 -24872130.01646  21125080.6414                   21125076.7154
 11  8 17  1 43 30.0000000  0  7G12G25G10G05G04G29G02
 -25691264.52748 -19989379.32846  20874972.1644                   20874969.8134
 -12258567.88748  -9524737.25846  22084222.7814                   22084223.5704
 -23599194.67247 -18349279.78945  22083586.9534                   22083585.1644
 -25449468.86748 -19801097.60547  20451208.7814                   20451206.3284
 -23829461.87947 -18515113.47344  23952873.1724                   23952873.1914
   2549737.50447   2009817.18844  24037044.5784                   24037044.1134
 -31934054.77048 -24875239.87946  21124321.1334                   21124317.3554
 11  8 17  1 44  0.0000000  0  7G12G25G10G05G04G29G02
 -25707546.18748 -20002066.35946  20871873.6564                   20871871.4104
 -12340773.10548  -9588793.23446  22068579.8524                   22068580.6174
 -23553997.06647 -18314060.89545  22092187.3134                   22092186.2154
 -25507033.39548 -19845953.05547  20440254.2194                   20440251.9494
 -23781374.61747 -18477642.87944  23962023.7974                   23962023.4614
   2434199.66846   1919787.68044  24015058.3984                   24015057.8594
 -31937884.20748 -24878223.85946  21123592.6954                   21123588.6914
 11  8 17  1 44 30.0000000  0  7G12G25G10G05G04G29G02
 -25723232.88748 -20014289.77346  20868888.6174                   20868886.3164
 -12422441.49648  -9652430.90246  22053038.7894                   22053039.4804
 -23508365.50047 -18278503.84845  22100871.2974                   22100869.8164
 -25564006.21948 -19890347.44547  20429413.1334                   20429411.1334
 -23733312.66047 -18440192.02344  23971169.5704                   23971169.4304
   2318637.05547   1829738.92644  23993068.0234                   23993067.6134
 -31941559.45348 -24881087.68046  21122893.1564                   21122889.5354
 11  8 17  1 45  0.0000000  0  7G12G25G10G05G04G29G02
 -25738331.98048 -20026055.31646  20866015.4844                   20866012.8244
 -12503577.81648  -9715653.96146  22037599.1954                   22037599.9024
 -23462309.57447 -18242616.14145  22109635.0944                   22109633.8674
 -25620392.91848 -19934285.12147  20418682.5554                   20418680.4574
 -23685282.94946 -18402766.27744  23980309.5004                   23980309.3634
   2203044.17647   1739666.55144  23971071.4534                   23971070.1954
 -31945087.93048 -24883837.13746  21122221.6094                   21122217.7384
 11  8 17  1 45 30.0000000  0  7G12G25G10G05G04G29G02
 -25752838.15248 -20037358.84046  20863254.9694                   20863252.7544
 -12584174.55948  -9778456.59046  22022262.2344                   22022262.8134
 -23415825.74247 -18206394.98445  22118480.9224                   22118479.6414
 -25676187.50848 -19977761.40647  20408065.4144                   20408063.1454
 -23637280.44546 -18365361.77043  23989444.0864                   23989443.9574
   2087427.98847   1649576.01644  23949069.9454                   23949069.4384
 -31948464.60248 -24886468.29346  21121579.1724                   21121575.1564
 11  8 17  1 46  0.0000000  0  7G12G25G10G05G04G29G02
 -25766741.39148 -20048192.55146  20860609.3674                   20860606.9264
 -12664219.41048  -9840829.17246  22007029.6414                   22007030.6174
 -23368906.34047 -18169834.44145  22127409.2894                   22127407.9304
 -25731378.79748 -20020767.59047  20397562.3594                   20397560.5744
 -23589294.68747 -18327970.28543  23998574.8914                   23998575.2894
   1971800.46547   1559476.67644  23927067.2344                   23927066.0164
 -31951679.36348 -24888973.29746  21120967.6804                   21120963.3094
 11  8 17  1 46 30.0000000  0  7G12G25G10G05G04G29G02
 -25780069.50848 -20058578.11346  20858073.0704                   20858070.7384
 -12743737.25448  -9902791.07846  21991898.0784                   21991898.5824
 -23321580.62947 -18132957.28945  22136415.0394                   22136413.9574
 -25785992.98048 -20063324.07447  20387170.0634                   20387167.9224
 -23541353.14547 -18290613.27043  24007698.7194                   24007698.1884
   1856135.62147   1469348.22744  23905056.3364                   23905055.5944
 -31954759.82848 -24891373.65246  21120380.9614                   21120376.8364
 11  8 17  1 47  0.0000000  0  7G12G25G10G05G04G29G02
 -25792814.71548 -20068509.44546  20855647.5554                   20855645.6564
 -12822718.79748  -9964335.09446  21976868.5394                   21976869.2344
 -23273843.73447 -18095759.72745  22145499.3754                   22145497.9534
 -25840021.67648 -20105424.34047  20376888.6414                   20376886.5004
 -23493448.24647 -18253284.79743  24016814.9064                   24016814.5314
   1740442.59047   1379197.81644  23883040.6954                   23883040.4304
 -31957699.02048 -24893663.91046  21119822.0864                   21119817.8754
 11  8 17  1 47 30.0000000  0  7G12G25G10G05G04G29G02
 -25804981.77048 -20077990.28146  20853332.5394                   20853330.4774
 -12901165.71948 -10025462.53546  21961940.4694                   21961941.2894
 -23225701.65647 -18058246.44145  22154659.9694                   22154658.6334
 -25893468.30548 -20147071.05147  20366717.9144                   20366715.5314
 -23445584.01247 -18215988.04343  24025922.7344                   24025922.4534
   1624718.64146   1289023.33644  23861019.3054                   23861018.7664
 -31960500.86348 -24895847.14846  21119288.7814                   21119284.4414
 11  8 17  1 48  0.0000000  0  7G12G25G10G05G04G29G02
 -25816564.92648 -20087016.12546  20851127.9534                   20851125.7544
 -12979070.23048 -10086167.29746  21947115.7664                   21947116.6254
 -23177150.91047 -18020414.70345  22163899.4614                   22163897.7774
 -25946325.88748 -20188258.75847  20356659.5164                   20356657.2664
 -23397754.52346 -18178718.31243  24035024.2344                   24035024.3014
   1508971.41446   1198830.71144  23838993.4064                   23838992.7344
 -31963159.87148 -24897919.09046  21118782.9844                   21118779.0784
 11  8 17  1 48 30.0000000  0  7G12G25G10G05G04G29G02
 -25827559.24648 -20095583.12946  20849036.2274                   20849033.9024
 -13056424.96148 -10146443.66846  21932395.7894                   21932396.2194
 -23128188.30947 -17982262.04745  22173216.7894                   22173215.9064
 -25998588.28548 -20228982.68447  20346714.2974                   20346712.3594
 -23349954.78546 -18141471.73443  24044120.3204                   24044119.7114
   1393207.63346   1108625.20344  23816963.9534                   23816963.8914
 -31965670.89548 -24899875.71146  21118305.1094                   21118301.0864
 11  8 17  1 49  0.0000000  0  7G12G25G10G05G04G29G02
 -25837957.72748 -20103685.85546  20847057.1334                   20847055.1804
 -13133220.38748 -10206284.24646  21917781.5704                   21917782.8594
 -23078808.65247 -17943784.40245  22182613.4144                   22182611.8794
 -26050247.50448 -20269236.59847  20336883.8754                   20336882.3984
 -23302177.18446 -18104242.44543  24053212.0784                   24053211.5314
   1277436.32447   1018413.83244  23794933.5864                   23794933.1844
 -31968027.20348 -24901711.78546  21117856.3834                   21117852.7074
 11  8 17  1 49 30.0000000  0  7G12G25G10G05G04G29G02
 -25847772.63348 -20111333.84046  20845189.7894                   20845187.4614
 -13209466.69548 -10265696.91046  21903272.7894                   21903273.4104
 -23029026.39147 -17904993.05945  22192086.7344                   22192085.0984
 -26101314.98448 -20309029.42247  20327166.1174                   20327164.0634
 -23254433.77346 -18067039.82043  24062297.7664                   24062297.1094
   1161646.73447    928188.20744  23772899.4774                   23772899.0704
 -31970240.91448 -24903436.73446  21117434.8134                   21117431.4734
 11  8 17  1 50  0.0000000  0  7G12G25G10G05G04G29G02
 -25857005.87548 -20118528.57446  20843432.5864                   20843430.0864
 -13285163.23048 -10324681.18046  21888868.2344                   21888868.8524
 -22978845.48847 -17865891.05545  22201635.4774                   22201633.8714
 -26151791.27348 -20348361.57847  20317560.7664                   20317558.9884
 -23206726.03546 -18029864.94143  24071376.0234                   24071375.8914
   1045839.31647    837948.70744  23750861.4454                   23750861.8204
 -31972313.67248 -24905051.85546  21117040.5394                   21117036.4534
 11  8 17  1 50 30.0000000  0  7G12G25G10G05G04G29G02
 -25865659.17648 -20125271.41046  20841786.3444                   20841783.7234
 -13360309.35548 -10383236.59446  21874568.2424                   21874568.7234
 -22928269.51647 -17826481.23045  22211259.6174                   22211258.4694
 -26201676.93448 -20387233.50447  20308067.5634                   20308065.6724
 -23159055.12146 -17992718.77343  24080448.0634                   24080447.4144
    930014.52046    747695.69544  23728821.4614                   23728821.0664
 -31974246.98848 -24906558.31646  21116672.7424                   21116669.0314
 11  8 17  1 51  0.0000000  0  7G12G25G10G05G04G29G02
 -25873732.60248 -20131562.39146  20840249.3594                   20840247.3634
 -13434902.71948 -10441361.25046  21860373.4774                   21860374.1134
 -22877300.28947 -17786764.94945  22220958.7894                   22220957.4384
 -26250971.04748 -20425644.47347  20298687.7344                   20298685.2734
 -23111420.54346 -17955600.93442  24089511.9694                   24089511.6214
    814174.05547    657430.45344  23706776.8444                   23706776.7854
 -31976040.48448 -24907955.82846  21116331.1644                   21116327.5234
 11  8 17  1 51 30.0000000  0  7G12G25G10G05G04G29G02
 -25881227.32848 -20137402.43746  20838823.5554                   20838821.3754
 -13508942.10248 -10499054.23846  21846284.1414                   21846284.7464
 -22825940.69547 -17746744.48845  22230732.2814                   22230730.9414
 -26299673.36748 -20463594.31247  20289419.4774                   20289417.5984
 -23063823.02046 -17918511.96943  24098568.9614                   24098569.0474
    698318.75047    567153.65244  23684731.3674                   23684730.9064
 -31977695.60248 -24909245.52046  21116016.4064                   21116012.7814
 11  8 17  1 52  0.0000000  0  7G12G25G10G05G04G29G02
 -25888139.47748 -20142788.53146  20837508.2734                   20837505.5824
 -13582420.96948 -10556310.50046  21832301.8674                   21832302.1914
 -22774188.60947 -17706418.18745  22240580.6334                   22240578.6524
 -26347779.00848 -20501079.19947  20280265.5084                   20280263.1724
 -23016257.99246 -17881448.32443  24107620.5234                   24107620.6684
    582455.17247    476870.41044  23662683.0234                   23662682.0354
 -31979207.84048 -24910423.86346  21115728.8134                   21115724.7424
 11  8 17  1 52 30.0000000  0  7G12G25G10G05G04G29G02
 -25894481.04748 -20147730.01646  20836301.2894                   20836299.1024
 -13655349.35948 -10613137.80546  21818423.7894                   21818424.7034
 -22722058.25847 -17665797.14845  22250500.8284                   22250498.8754
 -26395299.15648 -20538107.87147  20271222.8134                   20271220.3364
 -22968737.26246 -17844419.14143  24116664.2344                   24116663.6254
    466572.64547    386572.40244  23640631.1174                   23640630.8404
 -31980588.92648 -24911500.02346  21115465.8834                   21115461.9774
 11  8 17  1 53  0.0000000  0  7G12G25G10G05G04G29G02
 -25900252.15248 -20152226.98446  20835203.2894                   20835200.9884
 -13727724.57848 -10669534.03546  21804651.5554                   21804651.3634
 -22669551.10247 -17624882.48845  22260491.9774                   22260490.7894
 -26442232.35948 -20574679.17647  20262291.4844                   20262289.1334
 -22921259.82846 -17807423.73443  24125697.6564                   24125698.8284
    350673.86747    296261.73844  23618576.1094                   23618575.9844
 -31981838.63348 -24912473.80546  21115227.6644                   21115223.9384
 11  8 17  1 53 30.0000000  0  7G12G25G10G05G04G29G02
 -25905451.67648 -20156278.56646  20834213.2974                   20834211.4344
 -13799543.29348 -10725496.65646  21790984.7584                   21790984.8524
 -22616668.03547 -17583674.91045  22270555.7974                   22270554.0824
 -26488576.59048 -20610791.53547  20253472.3834                   20253470.3914
 -22873824.20346 -17770460.94943  24134724.9304                   24134724.5984
    234762.10947    205940.94144  23596519.3204                   23596518.1374
 -31982955.55148 -24913344.10946  21115015.1334                   21115011.5634
 11  8 17  1 54  0.0000000  0  7G12G25G10G05G04G29G02
 -25910070.34848 -20159877.53146  20833334.6024                   20833332.1644
 -13870793.56248 -10781016.34046  21777425.7814                   21777426.6254
 -22563401.30547 -17542168.36745  22280692.1724                   22280690.4844
 -26534321.33248 -20646436.76647  20244767.4774                   20244765.2974
 -22826420.02746 -17733522.62143  24143745.3054                   24143745.6024
    118848.96547    115619.03144  23574461.9064                   23574460.8984
 -31983929.60948 -24914103.10546  21114829.9534                   21114825.9494
 11  8 17  1 54 30.0000000  0  7G12G25G10G05G04G29G02
 -25914119.24248 -20163032.53146  20832564.0864                   20832562.3244
 -13941484.34848 -10836100.04746  21763973.9924                   21763974.9414
 -22509764.01247 -17500373.07845  22290898.8054                   22290897.4574
 -26579476.54748 -20681622.62547  20236174.7344                   20236172.5514
 -22779058.06646 -17696617.14543  24152758.4224                   24152758.7584
      2925.31647     25288.97344  23552401.7504                   23552400.7624
 -31984771.93448 -24914759.45746  21114669.7194                   21114666.0004
 11  8 17  1 55  0.0000000  0  7G12G25G10G05G04G29G02
 -25917606.20748 -20165749.65246  20831900.4224                   20831898.4264
 -14011621.14848 -10890752.09046  21750627.5234                   21750627.7544
 -22455765.61347 -17458296.42645  22301174.6484                   22301173.2304
 -26624049.75048 -20716354.97347  20227692.4924                   20227690.4184
 -22731745.51646 -17659750.23843  24161762.1024                   24161762.0204
   -113014.32047    -65053.57044  23530339.2584                   23530338.5314
 -31985489.85948 -24915318.86746  21114532.8054                   21114529.2274
 11  8 17  1 55 30.0000000  0  7G12G25G10G05G04G29G02
 -25920524.90647 -20168023.98046  20831345.2814                   20831343.0394
 -14081194.88348 -10944965.41046  21737388.0634                   21737388.9384
 -22401401.24247 -17415934.56645  22311519.8524                   22311517.9304
 -26668032.35548 -20750627.10547  20219323.3444                   20219321.0394
 -22684474.98046 -17622916.02343  24170756.5084                   24170756.3634
   -228960.84047   -155401.45344  23508275.6174                   23508274.7624
 -31986076.24247 -24915775.77746  21114421.5314                   21114417.6804
 11  8 17  1 56  0.0000000  0  7G12G25G10G05G04G29G02
 -25922890.87148 -20169867.59846  20830894.9694                   20830893.0594
 -14150218.66448 -10998750.14546  21724253.0634                   21724253.8634
 -22346688.09047 -17373300.97345  22321931.1564                   22321930.1564
 -26711438.89148 -20784450.36347  20211063.1174                   20211060.9924
 -22637261.00446 -17586125.89843  24179741.2274                   24179741.2194
   -344927.45747   -245765.05944  23486207.4384                   23486206.5204
 -31986546.16447 -24916141.94946  21114332.1334                   21114328.3874
 11  8 17  1 56 30.0000000  0  7G12G25G10G05G04G29G02
 -25924689.67648 -20171269.27346  20830552.6884                   20830550.8134
 -14218675.50048 -11052093.13746  21711226.6334                   21711226.5984
 -22291613.09447 -17330385.39845  22332411.4064                   22332410.4964
 -26754254.10248 -20817812.84047  20202915.3364                   20202913.1994
 -22590088.24646 -17549367.89143  24188717.8914                   24188717.8554
   -460897.36347   -336131.18444  23464139.4304                   23464138.5664
 -31986884.44948 -24916405.54746  21114267.7194                   21114263.7624
 11  8 17  1 57  0.0000000  0  7G12G25G10G05G04G29G02
 -25925924.10248 -20172231.18046  20830317.9694                   20830315.6844
 -14286566.16048 -11104994.95746  21698307.0314                   21698307.6604
 -22236181.37147 -17287191.85245  22342960.0704                   22342958.8874
 -26796479.78948 -20850715.94947  20194880.4144                   20194878.1764
 -22542959.01646 -17512643.77043  24197686.9534                   24197686.1604
   -576871.00847   -426500.22344  23442069.9774                   23442069.6604
 -31987093.73848 -24916568.63746  21114227.9924                   21114224.3554
 11  8 17  1 57 30.0000000  0  7G12G25G10G05G04G29G02
 -25926594.20748 -20172753.35546  20830190.2194                   20830187.9024
 -14353888.02348 -11157453.56246  21685496.1564                   21685496.9304
 -22180394.21147 -17243721.35945  22353575.9304                   22353574.6174
 -26838114.94148 -20883158.91447  20186957.8284                   20186955.0864
 -22495872.15646 -17475952.71943  24206646.8984                   24206646.1214
   -692845.92247   -516870.27744  23420001.1884                   23420000.3714
 -31987173.17648 -24916630.54346  21114212.9454                   21114208.6644
 11  8 17  1 58  0.0000000  0  8G12G25G26G10G05G04G29G02
 -25926692.69948 -20172830.11746  20830171.7664                   20830169.9884
 -14420631.32848 -11209461.33646  21672795.5554                   21672796.0164
   7692533.42255   6084737.47352  24704860.0004                   24704864.0514
 -22124245.87947 -17199969.42645  22364260.6804                   22364259.1214
 -26879150.76648 -20915134.85547  20179148.6094                   20179146.3984
 -22448819.50045 -17439288.24642  24215600.1024                   24215601.0314
   -808812.14147   -607233.57044  23397933.3834                   23397932.7704
 -31987114.77748 -24916585.03946  21114223.7114                   21114219.6644
 11  8 17  1 58 30.0000000  0  8G12G25G26G10G05G04G29G02
 -25926231.29748 -20172470.59846  20830259.5314                   20830257.3204
 -14486805.71148 -11261025.79746  21660202.5004                   21660203.2934
   7566936.67645   5986869.96142  24680959.7734                   24680964.0474
 -22067749.75047 -17155946.47745  22375011.5554                   22375010.3794
 -26919598.45348 -20946652.50847  20171451.6414                   20171449.4224
 -22401812.10245 -17402659.17242  24224545.8204                   24224545.8714
   -924779.14846   -697597.46944  23375865.2274                   23375864.7344
 -31986930.00448 -24916441.07046  21114259.1254                   21114254.9384
 11  8 17  1 59  0.0000000  0  8G12G25G26G10G05G04G29G02
 -25925218.04348 -20171681.05946  20830452.3204                   20830450.1214
 -14552416.41448 -11312151.02046  21647717.7894                   21647718.3444
   7441217.24246   5888906.81643  24657036.8754                   24657039.6024
 -22010915.05947 -17111659.70744  22385827.0314                   22385824.6414
 -26959464.37548 -20977716.84447  20163865.3914                   20163863.2304
 -22354856.57046 -17366070.48442  24233480.8134                   24233481.7154
  -1040752.16446   -787966.07844  23353795.9224                   23353796.0984
 -31986625.63348 -24916203.89846  21114317.1564                   21114313.0204
 11  8 17  1 59 30.0000000  0  8G12G25G26G10G05G04G29G02
 -25923651.02348 -20170460.02046  20830750.8594                   20830748.4614
 -14617459.15248 -11362833.68746  21635340.4694                   21635340.9734
   7315381.37546   5790852.94543  24633089.8524                   24633092.6644
 -21953741.45747 -17067108.85944  22396706.5944                   22396705.3404
 -26998745.66848 -21008325.61747  20156390.3674                   20156387.9064
 -22307950.22745 -17329520.04342  24242406.1884                   24242407.5554
  -1156726.53147   -878335.71944  23331726.5004                   23331726.8554
 -31986199.17648 -24915871.60246  21114398.2114                   21114393.9884
 11  8 17  2  0  0.0000000  0  8G12G25G26G10G05G04G29G02
 -25921532.44148 -20168809.18746  20831153.5234                   20831151.4344
 -14681933.45748 -11413073.41846  21623071.4224                   21623072.1134
   7189431.38746   5692710.13343  24609123.9534                   24609124.8594
 -21896232.72347 -17022296.87544  22407650.2034                   22407648.8404
 -27037443.08648 -21038479.42647  20149026.6174                   20149024.2814
 -22261093.56646 -17293008.39142  24251323.3284                   24251324.2074
  -1272701.61347   -968705.90244  23309658.2424                   23309657.2034
 -31985651.81247 -24915445.08246  21114502.3594                   21114498.5634
 11  8 17  2  0 30.0000000  0  8G12G25G26G10G05G04G29G02
 -25918868.09447 -20166733.07446  20831661.0474                   20831658.4614
 -14745842.95348 -11462873.03146  21610909.6724                   21610910.2624
   7063365.51246   5594477.06343  24585133.5164                   24585135.1174
 -21838396.32847 -16977229.57044  22418655.9844                   22418654.8014
 -27075562.07848 -21068182.50847  20141772.6414                   20141770.9224
 -22214291.77046 -17256539.49242  24260229.5234                   24260230.9264
  -1388680.85247  -1059079.35944  23287587.7734                   23287587.0314
 -31984988.77748 -24914928.44546  21114628.6174                   21114624.6884
 11  8 17  2  1  0.0000000  0  8G12G25G26G10G05G04G29G02
 -25915654.92248 -20164229.30546  20832271.7664                   20832269.7974
 -14809182.32048 -11512228.38346  21598856.5944                   21598857.2774
   6937190.98446   5496159.30944  24561123.8674                   24561124.8404
 -21780230.48847 -16931905.54744  22429725.0004                   22429723.3674
 -27113098.24648 -21097431.44947  20134629.6414                   20134627.3714
 -22167540.41446 -17220109.82442  24269126.6884                   24269127.1844
  -1504658.28947  -1149451.40644  23265518.2274                   23265517.8444
 -31984206.22748 -24914318.66046  21114777.5314                   21114773.3634
 11  8 17  2  1 30.0000000  0  8G12G25G26G10G05G04G29G02
 -25911889.55948 -20161295.26646  20832988.6954                   20832986.4264
 -14871945.81648 -11561135.00846  21586913.3204                   21586913.8634
   6810915.30146   5397762.77343  24537094.2814                   24537095.3444
 -21721733.87147 -16886323.79344  22440856.1564                   22440854.4494
 -27150047.24648 -21126222.84847  20127598.8674                   20127596.3794
 -22120835.52746 -17183716.46942  24278014.8914                   24278014.0864
  -1620628.04247  -1239817.47045  23243449.6414                   23243448.9844
 -31983300.31648 -24913612.74246  21114949.7034                   21114945.8014
 11  8 17  2  2  0.0000000  0  8G12G25G26G10G05G04G29G02
 -24332164.97748 -18930341.05146  21133600.4144                   21133598.4024
 -13358721.21548 -10381998.96146  21874869.8914                   21874870.4184
   8259954.99246   6526884.67243  24812837.3444                   24812838.0904
 -20087501.30147 -15612895.84044  22751840.3204                   22751838.9694
 -25610999.08648 -19926964.51647  20420469.6724                   20420467.3834
 -20498769.64146 -15919768.98842  24586683.0004                   24586683.0704
   -161175.71147   -102581.91045  23521173.9454                   23521173.4734
 -30406862.28548 -23685219.46546  21414936.0004                   21414932.4494
 11  8 17  2  2 30.0000000  0  8G12G25G26G10G05G04G29G02
 -24327313.17248 -18926560.41846  21134523.8914                   21134521.7034
 -13420342.69148 -10430015.69946  21863144.3834                   21863144.8754
   8133473.63746   6428327.85943  24788768.6094                   24788769.5744
 -20028363.04747 -15566814.08644  22763094.1484                   22763092.4304
 -25646787.33648 -19954851.45347  20413659.4534                   20413657.2774
 -20452170.72346 -15883458.10942  24595550.6414                   24595550.9804
   -277139.02747   -192942.94145  23499107.1564                   23499106.3284
 -30405723.44548 -23684332.04346  21415152.5004                   21415148.6564
 11  8 17  2  3  0.0000000  0  8G12G25G26G10G05G04G29G02
 -24321904.13348 -18922345.58646  21135552.8444                   21135550.7034
 -13481375.53148 -10477573.75446  21851529.9924                   21851530.0944
   8006910.27046   6329707.12143  24764684.7584                   24764686.3714
 -19968892.49247 -15520473.41845  22774410.7344                   22774409.3134
 -25681979.57848 -19982273.95747  20406962.6484                   20406960.4224
 -20405608.82046 -15847176.16043  24604410.7114                   24604410.6914
   -393080.27047   -283286.76644  23477045.1094                   23477043.6644
 -30404452.59048 -23683341.75046  21415394.3054                   21415390.5354
 11  8 17  2  3 30.0000000  0  8G12G25G26G10G05G04G29G02
 -24315955.04348 -18917709.92246  21136684.8594                   21136682.8524
 -13541834.54748 -10524684.68046  21840025.0784                   21840025.8674
   7880251.85946   6231012.34043  24740581.8984                   24740583.3794
 -19909108.11346 -15473888.20744  22785787.2584                   22785785.8874
 -25716592.21948 -20009244.81247  20400375.8524                   20400373.7934
 -20359100.14546 -15810935.57442  24613261.2194                   24613261.1844
   -509014.11347   -373624.83644  23454982.8754                   23454982.4964
 -30403066.27748 -23682261.49246  21415658.0634                   21415654.4694
 11  8 17  2  4  0.0000000  0  8G12G25G26G10G05G04G29G02
 -24309463.08248 -18912651.24646  21137920.5704                   21137918.1024
 -13601714.88748 -10571344.67246  21828630.3914                   21828630.9574
   7753505.60546   6132249.12143  24716463.2114                   24716463.9384
 -19849008.74247 -15427057.54745  22797223.7504                   22797222.8874
 -25750621.44548 -20035761.07847  20393900.4454                   20393897.8754
 -20312640.62946 -15774733.30943  24622102.4144                   24622102.0824
   -624935.12947   -463952.89544  23432924.1804                   23432922.5864
 -30401560.89548 -23681088.44546  21415944.9454                   21415940.9144
 11  8 17  2  4 30.0000000  0  8G12G25G26G10G05G04G29G02
 -24302436.73048 -18907176.16446  21139257.3984                   21139255.1174
 -13661022.41048 -10617558.32446  21817344.0864                   21817344.9494
   7626667.73046   6033414.50043  24692326.2664                   24692326.9304
 -19788603.77747 -15379988.74644  22808718.6334                   22808717.3714
 -25784074.64848 -20061828.48447  20387534.3204                   20387531.8484
 -20266237.37146 -15738574.84043  24630931.7114                   24630932.1054
   -740848.77047   -554275.18044  23410866.3284                   23410865.5594
 -30399943.73048 -23679828.29346  21416252.7034                   21416248.4344
 11  8 17  2  5  0.0000000  0  8G12G25G26G10G05G04G29G02
 -24294867.19148 -18901277.81246  21140697.8524                   21140695.5274
 -13719745.66048 -10663316.68746  21806169.4614                   21806169.9844
   7499751.83246   5934519.07043  24668175.2034                   24668175.4264
 -19727885.53947 -15332675.86744  22820272.6564                   22820272.0864
 -25816941.77748 -20087439.21547  20381280.2194                   20381277.8674
 -20219879.88746 -15702452.10243  24639753.9694                   24639753.9844
   -856743.06247   -644582.39144  23388812.5634                   23388811.6564
 -30398204.18748 -23678472.78946  21416583.3204                   21416579.7424
 11  8 17  2  5 30.0000000  0  8G12G25G26G10G05G04G29G02
 -24286763.92248 -18894963.56246  21142239.9224                   21142237.6884
 -13777891.74248 -10708625.32446  21795104.7894                   21795105.3204
   7372753.21946   5835559.21543  24644007.4774                   24644008.1174
 -19666864.98447 -15285127.40244  22831885.1414                   22831883.0124
 -25849231.17648 -20112599.76647  20375135.3834                   20375133.1134
 -20173576.22346 -15666371.28143  24648564.9304                   24648565.1684
   -972624.42247   -734879.52744  23366760.8284                   23366759.7544
 -30396351.55148 -23677029.15646  21416936.0234                   21416931.9304
 11  8 17  2  6  0.0000000  0  8G12G25G26G10G05G04G29G02
 -24278123.11348 -18888230.45746  21143883.9304                   21143881.8754
 -13835454.48848 -10753479.40246  21784150.7814                   21784151.8204
   7245680.16846   5736541.37943  24619826.4694                   24619826.7304
 -19605539.14547 -15237341.02744  22843555.0084                   22843553.2504
 -25880937.81648 -20137306.22747  20369102.1804                   20369099.7814
 -20127321.34046 -15630328.49243  24657366.9064                   24657366.7734
  -1088486.02347   -825161.26244  23344712.8834                   23344711.8094
 -30394380.89548 -23675493.55546  21417311.2114                   21417307.3204
 11  8 17  2  6 30.0000000  0  8G12G25G26G10G05G04G29G02
 -24268943.67648 -18881077.64146  21145630.8444                   21145628.6454
 -13892430.37148 -10797876.16446  21773308.6954                   21773309.4734
   7118538.50046   5637470.09043  24595632.4384                   24595632.9614
 -19543908.28547 -15189317.02044  22855282.6644                   22855281.7274
 -25912059.54348 -20161556.89547  20363179.5234                   20363177.3674
 -20081112.53946 -15594321.59843  24666159.5004                   24666159.9694
  -1204323.43447   -915424.10944  23322669.8054                   23322668.9884
 -30392289.17648 -23673863.61346  21417709.0784                   21417705.2734
 11  8 17  2  7  0.0000000  0  8G12G25G26G10G05G04G29G02
 -24259220.88348 -18873501.42646  21147481.0634                   21147478.4964
 -13948812.10548 -10841809.97346  21762579.6724                   21762580.0514
   6991337.86346   5538352.79743  24571426.2034                   24571427.7504
 -19481968.96947 -15141052.63744  22867069.9694                   22867067.9104
 -25942590.48448 -20185347.21547  20357370.0474                   20357367.3204
 -20034943.50446 -15558345.73043  24674945.2194                   24674945.5594
  -1320129.03947  -1005662.18744  23300633.1884                   23300632.2114
 -30390070.54748 -23672134.78146  21418131.1884                   21418127.1884
 11  8 17  2  7 30.0000000  0  8G12G25G26G10G05G04G29G02
 -24248974.99248 -18865517.62146  21149431.0004                   21149428.7544
 -14004617.81648 -10885294.92646  21751960.2814                   21751960.2974
   6864062.50846   5439177.28143  24547206.8914                   24547207.6884
 -19419742.53547 -15092564.52044  22878910.5164                   22878908.8484
 -25972550.28548 -20208692.50847  20351669.0234                   20351666.2274
 -19988833.18446 -15522415.57043  24683721.0704                   24683720.4384
  -1435920.06647  -1095888.89544  23278598.2664                   23278597.4344
 -30387744.55947 -23670322.30946  21418573.7274                   21418570.0124
 11  8 17  2  8  0.0000000  0  8G12G25G26G10G05G04G29G02
 -24238214.14848 -18857132.53546  21151478.5864                   21151476.1564
 -14059853.29348 -10928335.53546  21741449.1414                   21741449.4384
   6736709.15246   5339941.04743  24522972.3204                   24522972.8404
 -19357238.49647 -15043860.10244  22890805.0314                   22890803.4224
 -26001945.82448 -20231598.10247  20346074.7504                   20346072.2234
 -19942788.19547 -15486536.40243  24692482.3204                   24692481.9534
  -1551701.23447  -1186107.91444  23256565.7734                   23256564.6604
 -30385318.02747 -23668431.48446  21419035.5474                   21419031.4064
 11  8 17  2  8 30.0000000  0  8G12G25G26G10G05G04G29G02
 -24226921.45748 -18848333.02046  21153627.4144                   21153624.8754
 -14114499.13348 -10970916.68046  21731050.4454                   21731050.8984
   6609299.61746   5240661.06343  24498727.3284                   24498727.0234
 -19294440.97346 -14994927.00044  22902754.7974                   22902752.9024
 -26030759.23848 -20254050.09447  20340591.8594                   20340589.5664
 -19896790.00446 -15450693.68743  24701235.5554                   24701235.7624
  -1667452.46547  -1276303.59844  23234538.9924                   23234537.8524
 -30382772.59848 -23666448.01246  21419519.8364                   21419515.9534
 11  8 17  2  9  0.0000000  0  8G12G25G26G10G05G04G29G02
 -24215091.03148 -18839114.50446  21155878.6724                   21155876.4104
 -14168546.90248 -11013031.80546  21720764.9844                   21720765.6684
   6481844.71946   5141345.70743  24474473.0004                   24474473.2894
 -19231345.06646 -14945761.37144  22914761.7114                   22914760.0044
 -26058983.22348 -20276042.78947  20335221.2344                   20335218.5084
 -19850830.82046 -15414881.29343  24709981.3054                   24709980.9224
  -1783164.53147  -1366468.76245  23212519.6254                   23212518.5554
 -30380101.04348 -23664366.26246  21420028.0704                   21420024.3054
 11  8 17  2  9 30.0000000  0  8G12G25G26G10G05G04G29G02
 -24202741.52348 -18829491.50446  21158229.0084                   21158226.4304
 -14222012.84448 -11054693.55146  21710591.2894                   21710591.9844
   6354330.82846   5041984.38343  24450208.0084                   24450207.6604
 -19167970.25047 -14896378.43444  22926820.9844                   22926819.9844
 -26086635.08648 -20297589.68747  20329959.1414                   20329956.7034
 -19804927.70746 -15379112.73843  24718717.0004                   24718716.3364
  -1898852.68747  -1456615.29345  23190504.7274                   23190503.4734
 -30377320.33248 -23662199.46146  21420557.3364                   21420553.2894
 11  8 17  2 10  0.0000000  0  7G12G25G26G10G05G29G02
 -24189868.10948 -18819460.26646  21160678.7894                   21160676.3594
 -14274889.90648 -11095896.44146  21700529.0084                   21700529.6604
   6226767.57047   4942584.56643  24425933.1024                   24425933.2814
 -19104312.86747 -14846775.31644  22938935.2664                   22938933.5084
 -26113709.60948 -20318686.69547  20324807.0784                   20324804.6684
  -2014509.19547  -1546737.17645  23168495.8674                   23168494.9144
 -30374424.84048 -23659943.22346  21421108.0474                   21421104.4414
 11  8 17  2 10 30.0000000  0  7G12G25G26G10G05G29G02
 -24176475.52748 -18809024.47346  21163227.1644                   21163224.5274
 -14327180.36748 -11136642.23846  21690578.6414                   21690579.1914
   6099155.19147   4843146.45743  24401650.1414                   24401649.0944
 -19040378.71547 -14796956.53944  22951101.2114                   22951100.1764
 -26140210.30548 -20339336.57447  20319764.0164                   20319761.6604
  -2130135.19947  -1636835.27345  23146493.2734                   23146492.7194
 -30371417.74248 -23657600.02746  21421680.7734                   21421677.1604
 11  8 17  2 11  0.0000000  0  8G12G25G26G10G05G30G29G02
 -24162568.65248 -18798187.95346  21165873.2734                   21165871.0434
 -14378886.83248 -11176932.96946  21680738.9614                   21680739.6454
   5971493.82047   4743670.15643  24377356.2194                   24377355.6334
 -18976173.54347 -14746926.56644  22963319.2584                   22963317.2734
 -26166140.90248 -20359542.22347  20314829.5474                   20314827.3524
   9408544.01658   7333393.75456  21559320.8914                   21559319.2704
  -2245732.18047  -1726910.76645  23124495.7424                   23124495.1174
 -30368302.40648 -23655172.48046  21422273.5314                   21422269.3794
 11  8 17  2 11 30.0000000  0  8G12G25G26G10G05G30G29G02
 -24148149.12548 -18786951.94946  21168617.2504                   21168615.1484
 -14430008.46148 -11216767.99246  21671011.1174                   21671011.5944
   5843786.89847   4644158.36743  24353053.6804                   24353054.2074
 -18911699.92247 -14696687.42644  22975588.8134                   22975587.0514
 -26191502.19548 -20379304.25447  20310003.5704                   20310000.8874
   9379245.16447   7310563.47746  21553745.2114                   21553743.8754
  -2361298.35547  -1816962.23845  23102504.0004                   23102503.5474
 -30365079.30147 -23652660.96546  21422886.5164                   21422882.4454
 11  8 17  2 12  0.0000000  0  8G12G25G26G10G05G30G29G02
 -24133214.10948 -18775314.27046  21171459.0704                   21171457.0474
 -14480539.98848 -11256143.18746  21661395.2504                   21661396.0164
   5716042.15647   4544617.12144  24328745.2344                   24328745.1884
 -18846956.15647 -14646237.76244  22987908.1414                   22987906.7074
 -26216289.98048 -20398619.38747  20305286.3364                   20305283.7584
   9350562.08648   7288213.03546  21548287.2194                   21548285.7384
  -2476827.46547  -1906984.82845  23080519.6414                   23080518.3754
 -30361743.70347 -23650061.80146  21423521.3054                   21423517.5234
 11  8 17  2 12 30.0000000  0  8G12G25G26G10G05G30G29G02
 -24117772.66048 -18763281.96546  21174397.8834                   21174395.4614
 -14530488.31248 -11295063.94146  21651890.3364                   21651890.8364
   5588255.91847   4445043.56643  24304427.5944                   24304428.9264
 -18781952.50447 -14595585.59444  23000278.6254                   23000277.0354
 -26240512.30948 -20417493.91047  20300677.2584                   20300674.8054
   9322486.87548   7266336.23846  21542944.4304                   21542942.7034
  -2592325.23847  -1996983.02345  23058541.3524                   23058540.0984
 -30358303.39848 -23647381.04346  21424176.1564                   21424172.1884
 11  8 17  2 13  0.0000000  0  8G12G25G26G10G05G30G29G02
 -24101826.77048 -18750856.59446  21177432.0084                   21177430.1844
 -14579853.07048 -11333529.97746  21642496.2814                   21642496.7034
   5460430.90647   4345439.77743  24280103.7424                   24280104.0084
 -18716691.58546 -14544732.97844  23012697.2504                   23012695.7664
 -26264170.14548 -20435928.57047  20296175.1094                   20296172.7114
   9295018.73048   7244932.48846  21537717.4534                   21537716.0744
  -2707790.11747  -2086955.57045  23036568.7274                   23036567.9304
 -30354759.05148 -23644619.21546  21424850.5784                   21424846.5704
 11  8 17  2 13 30.0000000  0  8G12G25G26G10G05G30G29G02
 -24085364.73448 -18738029.03546  21180565.0394                   21180562.4734
 -14628619.96148 -11371530.14546  21633216.3134                   21633216.8134
   5332584.47747   4245819.31643  24255775.3134                   24255775.7704
 -18651162.48847 -14493671.39144  23025167.1484                   23025166.1294
 -26287250.75448 -20453913.44147  20291783.3364                   20291780.3834
   9268171.01248   7224012.19546  21532608.7974                   21532606.8914
  -2823206.74247  -2176890.52745  23014605.9454                   23014605.1644
 -30351096.77748 -23641765.50846  21425547.6254                   21425543.3324
 11  8 17  2 14  0.0000000  0  8G12G25G26G10G05G30G29G02
 -24068398.99248 -18724808.96946  21183793.2664                   21183791.0164
 -14676799.33248 -11409072.50846  21624048.3984                   21624048.6174
   5204709.03146   4146176.24644  24231441.3204                   24231441.3794
 -18585378.60247 -14442411.27044  23037684.9774                   23037683.5554
 -26309765.79748 -20471457.60947  20287498.6484                   20287496.4064
   9241932.21948   7203566.37945  21527615.5474                   21527613.9964
  -2938584.15647  -2266794.93745  22992650.0474                   22992649.3914
 -30347327.86748 -23638828.70346  21426264.5704                   21426260.6214
 11  8 17  2 14 30.0000000  0  8G12G25G26G10G05G30G29G02
 -24050928.47748 -18711195.57846  21187117.5634                   21187115.3244
 -14724387.81648 -11446154.43746  21614992.1254                   21614992.7234
   5076810.99246   4046515.56643  24207102.2974                   24207103.1174
 -18519339.74646 -14390952.45744  23050251.6724                   23050250.7664
 -26331713.11348 -20488559.38747  20283321.8364                   20283319.2114
   9216304.66048   7183596.86346  21522738.5704                   21522737.5434
  -3053917.66447  -2356665.11745  22970702.4614                   22970701.7974
 -30343449.65648 -23635806.71946  21427003.0864                   21426998.3914
 11  8 17  2 15  0.0000000  0  8G12G25G26G10G05G30G29G02
 -24032953.49648 -18697189.08646  21190538.0784                   21190536.2544
 -14771383.27348 -11482774.26246  21606049.0704                   21606049.9694
   4948895.21547   3946841.06643  24182761.7424                   24182761.2814
 -18453047.18747 -14339295.98044  23062867.4614                   23062866.1604
 -26353091.80548 -20505218.09447  20279253.7974                   20279251.4654
   9191289.34448   7164104.41046  21517978.1724                   21517977.0664
  -3169203.78147  -2446498.39545  22948764.2194                   22948762.9184
 -30339460.52348 -23632698.29346  21427761.9224                   21427758.3554
 11  8 17  2 15 30.0000000  0  8G12G25G26G10G05G30G29G02
 -24014480.98048 -18682794.92246  21194053.2974                   21194051.0824
 -14817790.00048 -11518935.34446  21597218.5394                   21597218.9774
   4820960.48847   3847151.76643  24158415.9844                   24158416.4804
 -18386508.12946 -14287447.40644  23075529.4384                   23075528.1024
 -26373907.55548 -20521438.13747  20275292.5234                   20275290.1764
   9166880.96148   7145084.90245  21513333.7274                   21513332.3834
  -3284445.59047  -2536297.13344  22926834.9064                   22926833.6684
 -30335365.69548 -23629507.52746  21428540.8834                   21428537.0984
 11  8 17  2 16  0.0000000  0  8G12G25G26G10G05G30G29G02
 -23995509.37548 -18668011.85246  21197663.5554                   21197661.3594
 -14863604.46548 -11554634.91446  21588500.1564                   21588500.7234
   4693013.02046   3747452.51243  24134067.8444                   24134068.8364
 -18319722.10246 -14235406.41844  23088238.2424                   23088237.1094
 -26394158.00848 -20537217.68747  20271439.3984                   20271437.0084
   9143082.02747   7126540.27345  21508804.5944                   21508803.2974
  -3399638.18447  -2626057.53945  22904914.5864                   22904912.7584
 -30331162.10948 -23626232.00846  21429341.3284                   21429337.0474
 11  8 17  2 16 30.0000000  0  8G12G25G26G10G05G30G29G02
 -23976035.82848 -18652837.64846  21201369.2814                   21201367.0234
 -14908821.57848 -11589869.01646  21579895.8914                   21579896.1884
   4565061.34046   3647749.96543  24109719.9844                   24109720.0314
 -18252687.16046 -14183171.44544  23100994.7344                   23100993.6644
 -26413839.42248 -20552553.83247  20267693.7584                   20267691.6134
   9119896.45748   7108473.60946  21504392.7504                   21504391.2154
  -3514775.12947  -2715774.60245  22883004.0944                   22883003.5314
 -30326845.27748 -23622868.25046  21430162.2894                   21430158.3554
 11  8 17  2 17  0.0000000  0  8G12G25G26G10G05G30G29G02
 -23956076.12548 -18637284.63346  21205167.3444                   21205165.5474
 -14953454.57848 -11624647.96946  21571402.3594                   21571402.8984
   4437095.08246   3548036.07443  24085368.4694                   24085368.8714
 -18185419.53146 -14130755.19944  23113795.8284                   23113794.9224
 -26432966.45348 -20567457.98847  20264053.8674                   20264051.8164
   9097309.87547   7090873.68846  21500094.7194                   21500093.4574
  -3629868.14547  -2805457.43045  22861102.7734                   22861101.5124
 -30322429.09848 -23619427.07046  21431002.8834                   21430999.1844
 11  8 17  2 17 30.0000000  0  8G12G25G26G10G05G30G29G02
 -23935632.25848 -18621354.33646  21209057.8674                   21209055.5864
 -14997503.39148 -11658971.70346  21563020.6334                   21563020.3204
   4309117.29746   3448313.17643  24061014.6804                   24061015.5634
 -18117921.98047 -14078159.76244  23126639.9224                   23126638.6764
 -26451539.99648 -20581930.85547  20260519.6254                   20260517.2774
   9075321.42648   7073739.85946  21495910.8984                   21495909.1844
  -3744915.64847  -2895104.79345  22839209.8134                   22839209.4104
 -30317913.77048 -23615908.63746  21431862.2974                   21431858.1604
 11  8 17  2 18  0.0000000  0  8G12G25G26G10G05G30G29G02
 -23914707.81248 -18605049.57846  21213039.6334                   21213037.1484
 -15040969.50448 -11692841.37546  21554749.1804                   21554749.1804
   4181129.85947   3348582.77343  24036660.6804                   24036660.2704
 -18050199.04346 -14025388.66844  23139527.0704                   23139525.1994
 -26469562.94948 -20595974.69547  20257089.9844                   20257087.9414
   9053928.40648   7057069.99246  21491839.1414                   21491837.9184
  -3859917.64847  -2984716.69145  22817325.9614                   22817324.6454
 -30313301.46948 -23612314.62546  21432739.7114                   21432735.5394
 11  8 17  2 18 30.0000000  0  8G12G25G26G10G05G30G29G02
 -23893297.04348 -18588365.86346  21217113.8134                   21217111.7234
 -15083844.50448 -11726250.44946  21546589.9384                   21546590.3054
   4053144.14847   3248853.69543  24012305.0944                   24012305.1374
 -17982245.08647 -13972437.57444  23152458.5234                   23152456.6174
 -26487028.34448 -20609584.07847  20253766.4144                   20253763.8284
   9033138.16447   7040869.82446  21487883.1414                   21487881.6844
  -3974864.36747  -3074285.53145  22795451.4694                   22795450.7234
 -30308584.16448 -23608638.80546  21433637.3754                   21433633.6254
 11  8 17  2 19  0.0000000  0  8G12G25G26G10G05G30G29G02
 -23871402.48048 -18571305.16846  21221280.3594                   21221277.8714
 -15126128.72748 -11759199.16846  21538543.6484                   21538543.5474
   3925163.27347   3149128.41043  23987951.2584                   23987951.0204
 -17914063.50847 -13919309.12544  23165432.7274                   23165431.0554
 -26503937.37548 -20622759.92647  20250548.7504                   20250546.5204
   9012949.35548   7025138.31346  21484041.4384                   21484040.2774
  -4089754.42647  -3163810.23045  22773588.8984                   22773587.9264
 -30303762.62948 -23604881.75046  21434555.1564                   21434550.7074
 11  8 17  2 19 30.0000000  0  8G12G25G26G10G05G30G29G02
 -23849022.12548 -18553865.93046  21225539.0004                   21225537.0084
 -15167818.07448 -11791684.34446  21530610.1724                   21530610.8364
   3797194.47747   3049412.52044  23963599.5474                   23963599.3134
 -17845653.20747 -13866002.39144  23178450.6564                   23178448.9534
 -26520287.40648 -20635500.19547  20247437.1564                   20247434.8204
   8993364.96948   7009877.77345  21480314.4774                   21480313.0164
  -4204581.91847  -3253286.15645  22751738.2734                   22751737.1604
 -30298832.96548 -23601040.43446  21435493.3444                   21435488.9384
 11  8 17  2 20  0.0000000  0  8G12G25G26G10G05G30G29G02
 -23826149.26648 -18536042.92646  21229891.6484                   21229889.4614
 -15208903.29748 -11823698.77046  21522791.8984                   21522792.4304
   3669250.16447   2949715.68444  23939252.5944                   23939252.4414
 -17777007.51647 -13812512.27743  23191513.2584                   23191512.1454
 -26536070.61748 -20647798.77747  20244433.8834                   20244431.8404
   8974393.10247   6995094.53146  21476704.2734                   21476702.7504
  -4319336.19547  -3342705.04345  22729901.7894                   22729900.3364
 -30293786.31648 -23597107.97346  21436453.6254                   21436449.4304
 11  8 17  2 20 30.0000000  0  8G12G25G26G10G05G30G29G02
 -23802806.24648 -18517853.56246  21234333.8204                   21234331.4614
 -15249404.77748 -11855258.33246  21515085.0864                   21515084.8444
   3541313.44946   2850024.79343  23914906.4924                   23914906.9414
 -17708149.72347 -13758856.87144  23204616.9384                   23204615.0204
 -26551308.50048 -20659672.44147  20241534.1564                   20241531.8874
   8956012.34048   6980771.89146  21473206.7504                   21473205.3674
  -4434035.92647  -3432081.41445  22708074.6254                   22708073.9574
 -30288643.61748 -23593100.66446  21437431.7584                   21437427.3164
 11  8 17  2 21  0.0000000  0  8G12G25G26G10G05G30G29G02
 -23778983.62148 -18499290.47346  21238867.1804                   21238864.9614
 -15289310.63748 -11886353.76246  21507491.1174                   21507491.3634
   3413399.60946   2750351.72743  23890565.5944                   23890565.3914
 -17639070.72747 -13705029.09044  23217762.2504                   23217761.1524
 -26565990.36348 -20671112.84047  20238740.3054                   20238737.9024
   8938233.51648   6966918.29346  21469823.3834                   21469821.8714
  -4548667.36347  -3521404.58245  22686261.2584                   22686259.5664
 -30283393.27048 -23589009.46946  21438431.0864                   21438427.0984
 11  8 17  2 21 30.0000000  0  8G12G25G26G10G05G30G29G02
 -23754686.47348 -18480357.63346  21243490.8524                   21243488.3954
 -15328624.44548 -11916987.86346  21500009.8834                   21500010.0354
   3285508.27046   2650696.21943  23866228.3524                   23866228.2274
 -17569777.16847 -13651034.12544  23230947.9694                   23230947.4614
 -26580121.01248 -20682123.72747  20236051.3674                   20236048.8914
   8921051.88748   6953530.04746  21466553.6804                   21466552.3204
  -4663232.28547  -3610675.92245  22664460.3284                   22664459.1214
 -30278038.89548 -23584837.20746  21439449.7424                   21439445.6024
 11  8 17  2 22  0.0000000  0  8G12G25G26G10G05G30G29G02
 -23729922.23448 -18461060.82846  21248203.3054                   21248201.6764
 -15367350.60548 -11947164.05546  21492640.4694                   21492640.9654
   3157638.66046   2551057.65243  23841895.3834                   23841895.6844
 -17500275.84847 -13596877.27344  23244173.7894                   23244172.8204
 -26593706.14548 -20692709.52747  20233466.1804                   20233463.4964
   8904462.00048   6940602.88746  21463396.5944                   21463395.2384
  -4777733.49647  -3699897.60545  22642671.1254                   22642670.1844
 -30272584.99248 -23580587.39546  21440487.6804                   21440483.8284
 11  8 17  2 22 30.0000000  0  8G12G25G26G10G05G30G29G02
 -23704693.88348 -18441402.35946  21253003.8984                   21253001.6884
 -15405490.02048 -11976883.03546  21485382.7584                   21485383.1254
   3029793.11346   2451437.80543  23817566.8204                   23817566.7704
 -17430570.45347 -13542561.38744  23257438.6644                   23257437.0434
 -26606748.08248 -20702872.07447  20230984.3134                   20230981.8914
   8888461.83248   6928135.25446  21460352.0084                   21460350.7114
  -4892169.81247  -3789068.71545  22620894.6954                   22620893.4064
 -30267032.78948 -23576260.99246  21441543.9844                   21441540.5234
 11  8 17  2 23  0.0000000  0  8G12G25G26G10G05G30G29G02
 -23678999.70748 -18421380.93046  21257893.4064                   21257891.3244
 -15443038.90248 -12006141.87146  21478237.6644                   21478237.7974
   2901979.10946   2351842.57043  23793244.8834                   23793245.0944
 -17360659.70347 -13488085.51244  23270742.4694                   23270741.1334
 -26619243.68048 -20712608.89847  20228606.5394                   20228603.9534
   8873054.11348   6916129.25446  21457419.7114                   21457418.5704
  -5006535.69547  -3878184.93745  22599130.4534                   22599130.2894
 -30261378.77748 -23571855.26246  21442620.3914                   21442616.6174
 11  8 17  2 23 30.0000000  0  8G12G25G26G10G05G30G29G02
 -23652838.21148 -18400995.34446  21262871.7814                   21262869.7154
 -15479993.82048 -12034937.87546  21471205.1564                   21471205.6024
   2774203.53146   2252277.27344  23768930.0234                   23768930.1484
 -17290542.94947 -13433449.08244  23284084.4384                   23284083.7704
 -26631191.08248 -20721918.54747  20226333.2114                   20226330.3524
   8858241.21948   6904586.76646  21454601.4224                   21454599.7504
  -5120825.92247  -3967242.20345  22577382.5554                   22577381.8134
 -30255619.40248 -23567367.41846  21443716.3674                   21443712.1954
 11  8 17  2 24  0.0000000  0  8G12G25G26G10G05G30G29G02
 -23626219.73848 -18380253.67246  21267937.0004                   21267934.7774
 -15516362.64548 -12063277.18446  21464284.6024                   21464284.3204
   2646461.96946   2152738.48044  23744622.1254                   23744621.9144
 -17220230.71147 -13378660.35244  23297464.7974                   23297463.9884
 -26642599.05148 -20730807.86747  20224162.2274                   20224159.9774
   8844014.16448   6893500.76246  21451893.9614                   21451892.5904
  -5235046.19547  -4056244.95345  22555646.6884                   22555646.0204
 -30249762.79348 -23562803.80946  21444830.9144                   21444826.5274
 11  8 17  2 24 30.0000000  0  8G12G25G26G10G05G30G29G02
 -23599142.81248 -18359154.75446  21273089.4224                   21273087.2664
 -15552141.63348 -12091156.86746  21457475.5164                   21457476.1174
   2518762.03546   2053232.13343  23720321.2584                   23720320.4924
 -17149721.73047 -13323718.32044  23310882.4064                   23310881.2934
 -26653465.34048 -20739275.07847  20222094.5004                   20222091.8324
   8830375.60248   6882873.32046  21449298.6484                   21449297.1644
  -5349191.08647  -4145188.94945  22533925.9144                   22533924.7664
 -30243805.10248 -23558161.42646  21445964.0704                   21445960.6684
 11  8 17  2 25  0.0000000  0  8G12G25G26G10G05G30G29G02
 -23571615.06248 -18337704.55946  21278328.1954                   21278325.7544
 -15587336.66048 -12118581.53946  21450778.2894                   21450778.7584
   2391101.16046   1953756.24644  23696027.7344                   23696028.3674
 -17079024.14847 -13268629.31244  23324335.9534                   23324334.4384
 -26663796.91448 -20747325.64147  20220128.2194                   20220126.0004
   8817318.55947   6872698.99246  21446813.8984                   21446812.4264
  -5463264.14847  -4234076.99245  22512218.6644                   22512217.2304
 -30237751.90248 -23553444.64146  21447116.2974                   21447112.6254
 11  8 17  2 25 30.0000000  0  8G12G25G26G10G05G30G29G02
 -23543634.29747 -18315901.35546  21283652.6484                   21283650.2704
 -15621943.24648 -12145547.68746  21444192.6094                   21444193.1564
   2263487.63346   1854317.21943  23671743.8524                   23671744.1524
 -17008136.23047 -13213391.98844  23337824.9064                   23337824.1094
 -26673590.41448 -20754956.93447  20218264.5944                   20218262.3834
   8804846.49247   6862980.51246  21444440.4454                   21444439.0354
  -5577259.03947  -4322904.10245  22490526.1024                   22490524.7464
 -30231599.32048 -23548650.41446  21448287.0314                   21448283.0044
 11  8 17  2 26  0.0000000  0  8G12G25G26G10G05G30G29G02
 -23515206.99648 -18293750.20746  21289062.4144                   21289060.0084
 -15655965.70748 -12172058.68446  21437718.5944                   21437719.1684
   2135920.82046   1754914.61744  23647467.7974                   23647468.4774
 -16937064.68447 -13158011.57444  23351349.6334                   23351348.8054
 -26682851.75848 -20762173.56247  20216502.4224                   20216500.0354
   8792953.97748   6853713.61345  21442177.5394                   21442176.1414
  -5691177.92247  -4411671.99245  22468847.4304                   22468846.7384
 -30225351.31648 -23543781.83246  21449475.9694                   21449471.9144
 11  8 17  2 26 30.0000000  0  8G12G25G26G10G05G30G29G02
 -21910910.95348 -17043649.38346  21594349.3284                   21594346.9844
 -14113977.73448 -10970509.60246  21731149.1174                   21731149.7424
   3583833.95347   2883158.67243  23922997.2894                   23922997.1914
 -15290389.28147 -11874887.91044  23664701.4144                   23664700.7424
 -25116156.03548 -19541371.68447  20514634.4384                   20514632.3324
  10357065.38347   8072501.72346  21739817.6724                   21739816.6884
  -4229589.43447  -3272771.79745  22746978.5864                   22746978.1954
 -28643582.73848 -22311234.86346  21750476.4534                   21750472.7504
 11  8 17  2 27  0.0000000  0  8G12G25G26G10G05G30G29G02
 -21881588.93447 -17020801.04346  21599929.0004                   21599927.0664
 -14146824.23048 -10996104.25446  21724898.3524                   21724898.6134
   3456379.63347   2783843.65243  23898743.7114                   23898743.4414
 -15218950.14847 -11819221.05144  23678296.1564                   23678294.9224
 -25124347.82848 -19547754.88747  20513075.4694                   20513073.7974
  10346336.40647   8064141.46546  21737776.6254                   21737774.9534
  -4343342.10947  -3361410.16845  22725332.5554                   22725330.9104
 -28637135.95748 -22306211.38746  21751703.4614                   21751699.2974
 11  8 17  2 27 30.0000000  0  8G12G25G26G10G05G30G29G02
 -21851817.32048 -16997602.36346  21605595.0394                   21605592.3134
 -14179077.05948 -11021236.32046  21718761.1564                   21718761.6294
   3328993.03547   2684581.43444  23874503.0554                   23874502.3874
 -15147324.91847 -11763409.18744  23691925.3204                   23691924.7344
 -25132001.06248 -19553718.43047  20511619.0554                   20511616.9884
  10336193.20348   8056237.67246  21735846.6024                   21735845.0274
  -4457002.77047  -3449976.82845  22703703.5234                   22703701.8284
 -28630583.71148 -22301105.74246  21752950.1724                   21752945.9534
 11  8 17  2 28  0.0000000  0  8G12G25G26G10G05G30G29G02
 -21821615.44948 -16974068.42646  21611342.0314                   21611339.3444
 -14210753.74648 -11045919.43046  21712733.3284                   21712733.3244
   3201660.43047   2585361.28944  23850272.3284                   23850271.5084
 -15075533.60547 -11707467.88743  23705587.6724                   23705585.5314
 -25139134.57448 -19559277.00047  20510261.8204                   20510259.5204
  10326617.25848   8048775.89546  21734024.0784                   21734022.4964
  -4570586.60247  -3538483.63345  22682089.0704                   22682088.2154
 -28623943.60248 -22295931.62146  21754214.0784                   21754209.9774
 11  8 17  2 28 30.0000000  0  9G12G25G26G10G05G30G29G15G02
 -21790975.94948 -16950193.48846  21617172.3284                   21617170.0274
 -14241844.89848 -11070146.27746  21706817.2034                   21706816.8164
   3074394.95746   2486193.47744  23826054.3134                   23826054.1844
 -15003569.19147 -11651391.65644  23719281.3914                   23719280.4964
 -25145740.04348 -19564424.10547  20509005.1644                   20509002.9534
  10317616.86747   8041762.60546  21732311.4384                   21732310.1414
  -4684082.16847  -3626921.64545  22660491.4774                   22660490.4384
  10843295.87156   8555603.34853  24741843.7814                   24741843.6454
 -28617206.00848 -22290681.54346  21755495.6724                   21755491.6884
 11  8 17  2 29  0.0000000  0  9G12G25G26G10G05G30G29G15G02
 -21759899.55948 -16925978.10546  21623086.1174                   21623083.6564
 -14272349.08648 -11093915.75846  21701012.0634                   21701012.0904
   2947201.97746   2387082.14843  23801849.6024                   23801849.3874
 -14931432.40247 -11595181.17644  23733008.5234                   23733007.9924
 -25151816.85248 -19569159.27047  20507848.4774                   20507846.2274
  10309192.40647   8035198.09446  21730708.0784                   21730706.6884
  -4797485.57048  -3715287.85245  22638911.9224                   22638910.0984
  10717610.44546   8457666.89843  24717925.8524                   24717928.3794
 -28610368.91448 -22285353.93446  21756797.0784                   21756792.6024
 11  8 17  2 29 30.0000000  0  9G12G25G26G10G05G30G29G15G02
 -21728394.91448 -16901429.03546  21629080.9384                   21629078.9534
 -14302272.69148 -11117232.83646  21695317.7894                   21695317.8284
   2820079.08646   2288025.45744  23777659.0634                   23777659.0944
 -14859131.68047 -11538842.93444  23746766.8834                   23746766.2504
 -25157372.63348 -19573488.43747  20506790.8444                   20506788.7974
  10301336.37148   8029076.51246  21729213.0004                   21729211.4384
  -4910800.82848  -3803585.37545  22617348.3754                   22617346.8674
  10591801.83646   8359634.48843  24693986.0634                   24693987.6484
 -28603438.41048 -22279953.53946  21758115.9534                   21758111.4964
 11  8 17  2 30  0.0000000  0  9G12G25G26G10G05G30G29G15G02
 -21696469.69548 -16876552.23046  21635156.1024                   21635153.9964
 -14331621.81248 -11140102.27746  21689732.7894                   21689733.2464
   2693024.24646   2189021.73043  23753481.8834                   23753481.0594
 -14786675.70347 -11482383.73844  23760555.2584                   23760554.1294
 -25162414.53548 -19577417.17247  20505831.6804                   20505829.2854
  10294041.60948   8023392.28545  21727824.9064                   21727823.5984
  -5024031.71547  -3891817.15645  22595801.2424                   22595799.5354
  10465866.68445   8261503.43443  24670020.4694                   24670022.1644
 -28596420.52348 -22274485.05546  21759450.9694                   21759447.2114
 11  8 17  2 30 30.0000000  0  9G12G25G26G10G05G30G29G15G02
 -21664119.14548 -16851344.02046  21641311.9224                   21641310.0784
 -14360389.44948 -11162518.60546  21684258.3284                   21684258.7894
   2566048.56646   2090079.70344  23729319.0634                   23729318.4414
 -14714059.55147 -11425799.68043  23774373.0634                   23774372.0554
 -25166936.74648 -19580940.96146  20504971.2114                   20504968.8874
  10287314.17648   8018150.13746  21726545.0314                   21726543.1804
  -5137168.86748  -3979975.89545  22574271.7734                   22574270.3364
  10339815.35546   8163281.87143  24646034.3364                   24646034.8204
 -28589307.72348 -22268942.61746  21760804.2424                   21760800.7774
 11  8 17  2 31  0.0000000  0  9G12G25G26G10G05G30G29G15G02
 -21631339.87548 -16825801.75046  21647550.0234                   21647547.7704
 -14388570.09848 -11184477.54346  21678895.7504                   21678896.1954
   2439161.19547   1991206.50444  23705173.6334                   23705172.8244
 -14641279.70746 -11369088.14143  23788222.1174                   23788222.0474
 -25170934.91848 -19584056.40647  20504210.2734                   20504208.0664
  10281158.29748   8013353.36345  21725373.7814                   21725372.0044
  -5250204.44947  -4068055.49245  22552761.5944                   22552760.5474
  10213656.19146   8064976.27044  24622027.9064                   24622027.6134
 -28582094.27048 -22263321.75846  21762177.6254                   21762173.8244
 11  8 17  2 31 30.0000000  0  9G12G25G26G10G05G30G29G15G02
 -21598146.01248 -16799936.41046  21653866.8674                   21653864.7234
 -14416176.17648 -11205988.75446  21673642.2504                   21673642.2424
   2312354.13346   1892395.89144  23681041.4694                   23681041.9494
 -14568350.35946 -11312260.09843  23802100.3984                   23802099.9344
 -25174422.43748 -19586773.93747  20503546.4844                   20503544.7234
  10275560.66847   8008991.58645  21724308.2664                   21724306.8984
  -5363147.94147  -4156063.35245  22531269.1954                   22531268.3164
  10087380.00446   7966579.52343  24597997.6334                   24597997.8484
 -28574792.01248 -22257631.69146  21763567.3594                   21763563.0474
 11  8 17  2 32  0.0000000  0  9G12G25G26G10G05G30G29G15G02
 -21564535.66448 -16773746.54346  21660262.4694                   21660260.5274
 -14443203.59448 -11227049.07446  21668499.4774                   21668499.7154
   2185635.45746   1793654.12544  23656927.6564                   23656928.0554
 -14495269.88346 -11255314.29343  23816007.4304                   23816007.2304
 -25177396.32048 -19589091.23847  20502980.9614                   20502978.6644
  10270524.18047   8005067.05546  21723349.9224                   21723348.3404
  -5475993.34447  -4243994.75845  22509795.4384                   22509793.9224
   9960994.03546   7868097.21143  24573945.6254                   24573947.2934
 -28567396.51248 -22251868.96145  21764974.2584                   21764969.9654
 11  8 17  2 32 30.0000000  0  9G12G25G26G10G05G30G29G15G02
 -21530510.56648 -16747233.48046  21666737.3674                   21666734.9184
 -14469652.16048 -11247658.33646  21663466.4304                   21663466.8834
   2059009.55547   1694984.68844  23632832.3284                   23632831.8794
 -14422040.01646 -11198252.13743  23829942.0004                   23829942.1724
 -25179857.60248 -19591009.09847  20502512.2974                   20502510.0474
  10266047.96547   8001579.10546  21722498.1564                   21722496.4384
  -5588737.64147  -4331847.39145  22488340.8204                   22488339.5904
   9834501.62146   7769531.93044  24549875.7664                   24549876.0594
 -28559906.78948 -22246032.82046  21766399.2734                   21766395.3984
 11  8 17  2 33  0.0000000  0  9G12G25G26G10G05G30G29G15G02
 -21496070.17648 -16720396.82846  21673291.0474                   21673289.1024
 -14495519.45748 -11267814.68046  21658544.3444                   21658544.6524
   1932483.09447   1596392.73844  23608754.7664                   23608755.2464
 -14348660.43146 -11141073.27143  23843906.7424                   23843905.3714
 -25181804.53548 -19592526.18047  20502141.8594                   20502139.6954
  10262133.43848   7998528.83246  21721753.0314                   21721752.0234
  -5701375.82847  -4419617.34445  22466906.4924                   22466904.5234
   9707908.35547   7670888.09844  24525785.7194                   24525785.0704
 -28552320.12948 -22240121.14146  21767843.0554                   21767838.7734
 11  8 17  2 33 30.0000000  0  9G12G25G26G10G05G30G29G15G02
 -21461214.33248 -16693236.44146  21679923.8754                   21679921.9804
 -14520803.37948 -11287516.43746  21653732.6644                   21653732.5554
   1806062.34847   1497883.15244  23584698.1804                   23584698.2544
 -14275131.01646 -11083777.60243  23857898.8134                   23857897.6914
 -25183236.14848 -19593641.70747  20501869.7194                   20501867.1914
  10258781.62147   7995917.03546  21721115.1414                   21721113.4304
  -5813903.38347  -4507301.09045  22445493.4614                   22445491.7584
   9581219.60247   7572169.84844  24501677.7664                   24501677.6024
 -28544633.88347 -22234131.85246  21769305.5004                   21769301.6994
 11  8 17  2 34  0.0000000  0  9G12G25G26G10G05G30G29G15G02
 -21425951.72348 -16665759.07046  21686634.0944                   21686631.9844
 -14545510.82848 -11306768.97746  21649031.1024                   21649031.2464
   1679744.59047   1399453.80144  23560660.7664                   23560660.0984
 -14201460.50046 -11026372.04743  23871917.3054                   23871917.0044
 -25184160.87548 -19594362.25447  20501693.6484                   20501691.0044
  10255984.56348   7993737.50845  21720583.2034                   21720581.4224
  -5926324.33247  -4594901.77745  22424100.3134                   22424098.7664
   9454431.71547   7473374.26644  24477550.5864                   24477550.1294
 -28536854.58647 -22228070.05946  21770786.2814                   21770782.2234
 11  8 17  2 34 30.0000000  0  9G12G25G26G10G05G30G29G15G02
 -21390282.77348 -16637965.10946  21693422.1724                   21693419.4024
 -14569640.23848 -11325571.10946  21644439.2504                   21644439.4734
   1553535.59047   1301109.19144  23536643.3984                   23536642.7034
 -14127649.18446 -10968856.77344  23885963.6094                   23885962.6884
 -25184577.73448 -19594687.05947  20501614.0634                   20501612.1524
  10253742.87948   7991990.74245  21720156.4534                   21720154.6254
  -6038634.27047  -4682415.96945  22402728.2974                   22402727.2274
   9327549.70747   7374505.43444  24453405.4144                   24453405.5634
 -28528979.71547 -22221933.79345  21772284.5164                   21772280.6134
 11  8 17  2 35  0.0000000  0  9G12G25G26G10G05G30G29G15G02
 -21354213.08648 -16609858.84846  21700285.4924                   21700283.4534
 -14593195.80148 -11343926.09446  21639956.9694                   21639957.2664
   1427435.74247   1202849.61744  23512647.5394                   23512646.9414
 -14053703.13747 -10911236.49644  23900035.5084                   23900034.4024
 -25184491.59848 -19594619.92247  20501630.6484                   20501627.9694
  10252051.18447   7990672.56345  21719834.4144                   21719832.9104
  -6150834.82047  -4769844.91445  22381376.7504                   22381375.2234
   9200572.71946   7275562.52343  24429243.1094                   24429241.7854
 -28521012.76647 -22215725.77345  21773800.9534                   21773796.8754
 11  8 17  2 35 30.0000000  0  9G12G25G26G10G05G30G29G15G02
 -21317755.30548 -16581450.19946  21707223.2344                   21707221.2194
 -14616187.10948 -11361841.38346  21635581.7584                   21635582.2304
   1301439.68447   1104670.94144  23488671.1484                   23488670.7774
 -13979633.86747 -10853520.19543  23914130.1884                   23914129.3054
 -25183913.63348 -19594169.54346  20501740.6024                   20501738.2384
  10250898.87548   7989774.66045  21719615.3054                   21719613.6994
  -6262932.77047  -4857193.89845  22360045.8364                   22360044.2624
   9073494.50847   7176540.73443  24405059.4774                   24405059.5124
 -28512962.69948 -22209452.97345  21775332.4144                   21775328.6684
 11  8 17  2 36  0.0000000  0  9G12G25G26G10G05G30G29G15G02
 -21280903.44548 -16552734.48046  21714236.1804                   21714234.0704
 -14638606.80148 -11379311.25846  21631315.6804                   21631315.9734
   1175558.98047   1006582.14844  23464716.3984                   23464716.5394
 -13905435.74647 -10795703.52343  23928249.2664                   23928248.7624
 -25182837.64848 -19593331.09847  20501945.4534                   20501942.5784
  10250292.29347   7989301.99646  21719499.4384                   21719498.4344
  -6374917.90247  -4944454.98845  22338735.4924                   22338734.3324
   8946325.80546   7077448.43043  24380858.9384                   24380860.5004
 -28504821.34048 -22203109.04745  21776881.6174                   21776877.9924
 11  8 17  2 36 30.0000000  0  9G12G25G26G10G05G30G29G15G02
 -21243653.38347 -16523708.46946  21721324.5474                   21721322.0474
 -14660448.95748 -11396331.10546  21627159.0234                   21627158.9804
   1049804.27347    908591.54344  23440786.9064                   23440785.7344
 -13831104.63346 -10737783.21543  23942393.8524                   23942392.8634
 -25181258.19148 -19592100.32847  20502245.4924                   20502243.3204
  10250236.28948   7989258.34845  21719489.4534                   21719487.3014
  -6486781.89147  -5031621.66445  22317448.6174                   22317446.7074
   8819075.82046   6978292.75043  24356644.7274                   24356645.3324
 -28496582.14548 -22196688.86745  21778449.5474                   21778446.1484
 11  8 17  2 37  0.0000000  0  9G12G25G26G10G05G30G29G15G02
 -21206019.74648 -16494383.57446  21728485.5864                   21728483.4964
 -14681726.68448 -11412911.15646  21623109.9144                   21623109.9224
    924166.56647    810692.10544  23416878.4384                   23416877.3954
 -13756655.31247 -10679770.78143  23956561.4774                   23956560.6374
 -25179189.41448 -19590488.28547  20502639.5164                   20502637.1914
  10250716.75447   7989632.73845  21719581.0004                   21719578.9534
  -6598534.77748  -5118701.78545  22296182.6254                   22296180.5864
   8691735.25445   6879066.53943  24332412.1414                   24332413.3364
 -28488257.53148 -22190202.14845  21780033.9534                   21780029.9574
 11  8 17  2 37 30.0000000  0  9G12G25G26G10G05G30G29G15G02
 -21167996.19948 -16464754.85546  21735721.7814                   21735719.6094
 -14702431.50848 -11429044.78146  21619170.1804                   21619170.3324
    798658.98847    712894.05944  23392994.7584                   23392994.4344
 -13682081.16047 -10621661.11743  23970752.3284                   23970751.3594
 -25176623.86748 -19588489.14546  20503127.7504                   20503125.1174
  10251741.12548   7990430.95745  21719775.6334                   21719773.6094
  -6710164.98448  -5205686.30545  22274939.7974                   22274938.5004
   8564316.14145   6779779.12543  24308164.8204                   24308165.4494
 -28479837.96148 -22183641.40645  21781636.2894                   21781632.1094
 11  8 17  2 38  0.0000000  0  9G12G25G26G10G05G30G29G15G02
 -21129580.18048 -16434820.29746  21743031.6884                   21743029.7344
 -14722558.83248 -11444728.41446  21615339.7894                   21615340.5234
    673290.56347    615204.42244  23369138.1174                   23369137.0634
 -13607378.93746 -10563451.63743  23984968.2344                   23984967.5864
 -25173557.67648 -19586099.88346  20503711.3364                   20503708.4184
  10253312.99647   7991655.77745  21720074.6484                   21720073.0824
  -6821665.39547  -5292569.68745  22253722.0474                   22253720.5314
   8436826.54746   6680436.67243  24283905.5944                   24283904.6644
 -28471317.94547 -22177002.42645  21783257.2894                   21783253.0904
 11  8 17  2 38 30.0000000  0  9G12G25G26G10G05G30G29G15G02
 -21090778.08648 -16404584.90646  21750415.6484                   21750413.5004
 -14742114.16048 -11459966.34446  21611618.5234                   21611618.6174
    548060.62547    517622.74643  23345306.9224                   23345306.2584
 -13532556.05547 -10505148.17643  23999206.2114                   23999204.9144
 -25169997.57048 -19583325.76246  20504388.5634                   20504386.3014
  10255425.81648   7993302.13346  21720476.6484                   21720475.0124
  -6933038.11347  -5379353.56245  22232528.2584                   22232526.8754
   8309264.57847   6581037.87543  24259630.9064                   24259629.8984
 -28462702.24647 -22170288.86745  21784896.8834                   21784892.6484
 11  8 17  2 39  0.0000000  0  9G12G25G26G10G05G30G29G15G02
 -21051581.81248 -16374042.36346  21757874.7814                   21757872.3364
 -14761087.17648 -11474750.51246  21608008.4224                   21608008.2464
    422983.53946    420160.12543  23321505.9454                   23321504.7544
 -13457603.79747 -10446743.84043  24013470.3134                   24013468.0514
 -25165934.27048 -19580159.53547  20505161.7664                   20505159.1914
  10258088.89147   7995377.25845  21720983.3754                   21720981.9614
  -7044269.58647  -5466027.37945  22211361.6254                   22211360.1374
   8181644.39847   6481593.72743  24235345.5164                   24235345.4964
 -28453979.62147 -22163492.00445  21786557.1024                   21786553.0044
 11  8 17  2 39 30.0000000  0  9G12G25G26G10G05G30G29G15G02
 -21012014.97747 -16343211.07446  21765403.8674                   21765402.1374
 -14779499.28148 -11489097.61746  21604504.3524                   21604504.3914
    298042.83647    322803.78944  23297730.7974                   23297729.7854
 -13382544.87546 -10388256.38743  24027752.5164                   24027751.3404
 -25161390.00448 -19576618.53547  20506026.5944                   20506023.9804
  10261279.76248   7997863.64845  21721590.7974                   21721588.9804
  -7155378.72347  -5552605.85945  22190218.1884                   22190216.8714
   8053947.80147   6382089.99243  24211046.0864                   24211045.1914
 -28445170.75048 -22156627.93445  21788232.8594                   21788228.6644
 11  8 17  2 40  0.0000000  0  9G12G25G26G10G05G30G29G15G02
 -20972081.20747 -16312093.87946  21773002.9304                   21773000.7384
 -14797352.66848 -11503009.35546  21601107.4144                   21601107.5594
    173240.98847    225555.65644  23273982.0314                   23273981.1214
 -13307383.27046 -10329688.93443  24042055.6334                   24042054.0354
 -25156367.71548 -19572705.05146  20506981.7424                   20506979.9264
  10264995.19948   8000758.78545  21722297.3364                   21722296.0004
  -7266364.61347  -5639088.31245  22169098.8364                   22169096.7734
   7926176.63747   6282528.17244  24186732.5784                   24186731.3874
 -28436276.41047 -22149697.26245  21789925.7274                   21789921.6524
 11  8 17  2 40 30.0000000  0  9G12G25G26G10G05G30G29G15G02
 -20931773.53147 -16280685.30546  21780673.2114                   21780671.2664
 -14814638.69548 -11516479.01646  21597817.7424                   21597818.0514
     48591.21547    128426.02044  23250261.0944                   23250260.9384
 -13232111.94946 -10271036.00443  24056379.0084                   24056377.9654
 -25150859.81248 -19568413.16446  20508030.4844                   20508027.8284
  10269242.92648   8004068.68845  21723105.7664                   21723103.9884
  -7377215.29747  -5725465.40245  22148004.1414                   22148002.4804
   7798343.26247   6182917.87544  24162405.9064                   24162405.0784
 -28427286.96147 -22142692.48845  21791636.0394                   21791631.8324
 11  8 17  2 41  0.0000000  0  9G12G25G26G10G05G30G29G15G02
 -20891102.85547 -16248993.88746  21788412.5634                   21788410.4454
 -14831366.47348 -11529513.64546  21594634.5314                   21594634.5944
    -75911.01647     31411.39144  23226569.4844                   23226569.4454
 -13156741.41046 -10212305.77743  24070722.2734                   24070721.3444
 -25144876.25048 -19563750.63747  20509168.8984                   20509166.2704
  10274012.67648   8007785.36745  21724013.5474                   21724011.8364
  -7487936.97747  -5811741.99645  22126934.5634                   22126932.2974
   7670442.27347   6083254.93844  24138065.8364                   24138066.3284
 -28418210.57448 -22135619.97745  21793363.2344                   21793359.5434
 11  8 17  2 41 30.0000000  0  9G12G25G26G10G05G30G29G15G02
 -20850068.30947 -16217018.92646  21796221.5634                   21796219.2774
 -14847533.46148 -11542111.28946  21591558.2664                   21591558.1454
   -200258.32047    -65482.53944  23202906.8134                   23202906.4064
 -13081270.42246 -10153497.25843  24085083.6024                   24085082.7774
 -25138415.47348 -19558716.25846  20510398.7194                   20510395.8984
  10279306.14847   8011910.13745  21725021.0634                   21725019.0594
  -7598523.97347  -5897913.63745  22105890.5314                   22105888.8484
   7542480.07847   5983544.28944  24113715.4844                   24113715.4654
 -28409043.67248 -22128476.93745  21795107.7584                   21795103.5234
 11  8 17  2 42  0.0000000  0  9G12G25G26G10G05G30G29G15G02
 -20808662.79747 -16184754.91446  21804100.4454                   21804098.0474
 -14863130.69148 -11554264.96946  21588589.3914                   21588590.1724
   -324437.02047   -162245.11744  23179276.1954                   23179275.6914
 -13005691.24246 -10094604.41843  24099465.5704                   24099465.1334
 -25131469.19148 -19553303.55946  20511720.3054                   20511717.8634
  10285131.21948   8016449.14145  21726129.8054                   21726127.7194
  -7708964.22347  -5983970.92245  22084874.4694                   22084872.7934
   7414469.38747   5883795.85944  24089356.6644                   24089355.3134
 -28399776.25848 -22121255.58645  21796871.0314                   21796867.1604
 11  8 17  2 42 30.0000000  0  9G12G25G26G10G05G30G29G15G02
 -20766899.11747 -16152211.82046  21812048.0784                   21812045.7504
 -14878169.77748 -11565983.74646  21585727.9064                   21585728.2934
   -448454.08247   -258881.73044  23155676.6724                   23155675.8834
 -12930016.91046 -10035637.45743  24113865.5234                   24113864.5664
 -25124049.63748 -19547522.09046  20513132.4224                   20513129.7974
  10291475.28948   8021392.54345  21727336.7424                   21727335.1174
  -7819265.95347  -6069920.28146  22063884.7504                   22063882.9734
   7286402.57447   5784003.71944  24064986.4384                   24064985.2114
 -28390418.87947 -22113964.13346  21798652.0004                   21798647.9454
 11  8 17  2 43  0.0000000  0  9G12G25G26G10G05G30G29G15G02
 -20724785.85947 -16119396.30946  21820061.5634                   21820059.7584
 -14892657.43448 -11577272.82846  21582971.0084                   21582971.4064
   -572311.23047   -355393.77744  23132107.7194                   23132106.8914
 -12854255.66447  -9976602.70743  24128282.8834                   24128282.3674
 -25116164.85548 -19541378.10247  20514632.8054                   20514629.9104
  10298330.68848   8026734.39545  21728641.2664                   21728639.7274
  -7929432.60547  -6155764.39146  22042920.9384                   22042918.9654
   7158276.68447   5684165.51244  24040604.9384                   24040603.9024
 -28380976.96548 -22106606.80145  21800448.9064                   21800444.5664
 11  8 17  2 43 30.0000000  0  9G12G25G26G10G05G30G29G15G02
 -20682323.36748 -16086308.68746  21828142.5944                   21828139.9844
 -14906592.20348 -11588131.07846  21580319.6564                   21580319.5904
   -696002.21147   -451776.30544  23108569.7504                   23108569.2814
 -12778407.13746  -9917499.97743  24142716.1094                   24142715.4844
 -25107813.97748 -19534870.91446  20516221.4454                   20516219.0824
  10305697.83647   8032475.02045  21730043.2114                   21730041.3364
  -8039459.23447  -6241499.37946  22021983.5394                   22021981.4734
   7030097.16447   5584285.52344  24016211.6724                   24016212.1954
 -28371447.65247 -22099181.38346  21802261.9844                   21802258.0124
 11  8 17  2 44  0.0000000  0  9G12G25G26G10G05G30G29G15G02
 -20639502.86348 -16052942.08646  21836290.6484                   21836288.9064
 -14919963.72748 -11598550.44546  21577775.0234                   21577775.0554
   -819511.72347   -548017.39544  23085066.6564                   23085066.3444
 -12702462.21146  -9858322.13343  24157168.3914                   24157167.0824
 -25098987.64848 -19527993.25446  20517900.9774                   20517898.6524
  10313586.20347   8038621.79345  21731544.2194                   21731542.7194
  -8149332.25447  -6327114.67246  22001075.1644                   22001073.4534
   6901878.42646   5484374.98443  23991812.7424                   23991812.3594
 -28361819.13348 -22091678.64145  21804094.5394                   21804090.3484
 11  8 17  2 44 30.0000000  0  9G12G25G26G10G05G30G29G15G02
 -20596331.51248 -16019302.09446  21844505.8284                   21844503.8954
 -14932777.41848 -11608535.12946  21575336.8284                   21575337.0514
   -942840.55547   -644117.72344  23061597.6254                   23061597.6094
 -12626427.57446  -9799074.35543  24171636.7974                   24171635.6484
 -25089691.91048 -19520749.81647  20519670.1484                   20519667.7814
  10321989.28547   8045169.62945  21733143.3444                   21733142.1414
  -8259053.87547  -6412611.99646  21980195.8524                   21980194.2034
   6773619.05546   5384432.77043  23967405.9064                   23967404.9104
 -28352096.23448 -22084102.35546  21805944.4774                   21805940.7424
 11  8 17  2 45  0.0000000  0  9G12G25G26G10G05G30G29G15G02
 -20552819.16047 -15985396.39146  21852786.1334                   21852784.0434
 -14945041.87148 -11618091.84446  21573002.8754                   21573002.9304
  -1065992.19547   -740079.96544  23038163.1094                   23038162.5124
 -12550313.30146  -9739764.47743  24186121.2814                   24186120.4224
 -25079935.89548 -19513147.71946  20521526.8054                   20521524.1604
  10330897.58648   8052111.14845  21734838.7114                   21734837.5984
  -8368629.31647  -6497995.42646  21959343.9064                   21959342.6294
   6645314.26246   5284455.15643  23942990.5314                   23942989.9774
 -28342285.94547 -22076457.98445  21807810.9534                   21807807.3054
 11  8 17  2 45 30.0000000  0  9G12G25G26G10G05G30G29G15G02
 -20508962.16848 -15951222.13346  21861132.2034                   21861129.5234
 -14956751.79348 -11627216.44546  21570774.4224                   21570774.5784
  -1188956.22347   -835896.06244  23014763.9774                   23014763.0004
 -12474114.83246  -9680389.05143  24200621.3054                   24200620.2344
 -25069715.46548 -19505183.75046  20523471.5004                   20523469.5864
  10340315.41048   8059449.69945  21736631.1884                   21736629.1884
  -8478049.93748  -6583258.21146  21938522.0394                   21938520.6294
   6516973.59846   5184449.55143  23918567.5004                   23918567.3594
 -28332381.46548 -22068740.22345  21809695.6884                   21809691.9224
 11  8 17  2 46  0.0000000  0  9G12G25G26G10G05G30G29G15G02
 -20464757.42247 -15916776.89146  21869543.4384                   21869541.7854
 -14967902.47748 -11635905.27746  21568652.6954                   21568652.8834
  -1311723.37147   -931558.76644  22991401.7974                   22991400.5044
 -12397828.76246  -9620945.34443  24215137.9924                   24215137.8284
 -25059026.57448 -19496854.73446  20525505.3674                   20525503.0744
  10350246.47347   8067188.19945  21738520.4144                   21738519.1844
  -8587307.41048  -6668393.86746  21917731.6414                   21917729.8164
   6388605.64546   5084422.72343  23894139.9384                   23894139.4344
 -28322377.08648 -22060944.59845  21811600.1954                   21811595.7034
 11  8 17  2 46 30.0000000  0  9G12G25G26G10G05G30G29G15G02
 -20420218.27747 -15882071.07046  21878019.3754                   21878016.9694
 -14978506.06648 -11644167.79346  21566634.9694                   21566634.9104
  -1434300.49647  -1027073.34844  22968075.8284                   22968074.8674
 -12321468.10546  -9561443.55142  24229668.8914                   24229668.3364
 -25047882.17648 -19488170.78546  20527626.3364                   20527624.0164
  10360677.75447   8075316.45345  21740504.9614                   21740504.2424
  -8696410.54348  -6753409.25046  21896969.4384                   21896967.3714
   6260202.50846   4984368.43044  23869705.8834                   23869704.9844
 -28312283.30948 -22053079.30945  21813520.4924                   21813516.7504
 11  8 17  2 47  0.0000000  0  9G12G25G26G10G05G30G29G15G02
 -20375343.49248 -15847103.72746  21886558.3204                   21886556.2274
 -14988558.99248 -11652001.23046  21564721.7194                   21564721.7814
  -1556679.14547  -1122433.27044  22944788.4614                   22944787.3524
 -12245030.80546  -9501881.93743  24244214.1564                   24244213.1054
 -25036279.44548 -19479129.69146  20529833.9534                   20529831.6484
  10371611.87548   8083836.53945  21742586.1564                   21742584.8714
  -8805352.17248  -6838298.78146  21876238.2274                   21876236.2894
   6131772.21947   4884292.98044  23845266.4924                   23845265.5124
 -28302095.00848 -22045140.37545  21815459.3284                   21815455.4384
 11  8 17  2 47 30.0000000  0  9G12G25G26G10G05G30G29G15G02
 -20330134.30948 -15811875.79746  21895161.5004                   21895159.2624
 -14998061.62948 -11659405.87946  21562913.3594                   21562913.4574
  -1678854.69547  -1217634.93744  22921539.0394                   22921538.3324
 -12168518.55146  -9442261.93443  24258773.9924                   24258773.0864
 -25024219.36348 -19469732.21946  20532128.7974                   20532126.5554
  10383047.38347   8092747.31345  21744762.4224                   21744760.7154
  -8914129.10948  -6923059.99246  21855539.0634                   21855537.3444
   6003318.35247   4784199.13744  23820822.4224                   23820821.0204
 -28291811.12547 -22037126.96145  21817416.2584                   21817412.1604
 11  8 17  2 48  0.0000000  0  9G12G25G26G10G05G30G29G15G02
 -20284595.57448 -15776391.07446  21903827.3594                   21903825.0984
 -15007017.11348 -11666384.16846  21561209.2734                   21561209.2934
  -1800824.87547  -1312676.59044  22898328.8284                   22898327.9024
 -12091934.71946  -9382586.10542  24273347.6644                   24273346.6994
 -25011705.69148 -19459981.30146  20534510.5084                   20534508.0514
  10394980.35947   8102045.72745  21747032.7894                   21747031.1334
  -9022740.82047  -7007692.44546  21834871.1174                   21834868.8244
   5874841.97347   4684087.74244  23796373.7974                   23796372.6294
 -28281433.45347 -22029040.45345  21819390.9224                   21819386.6994
 11  8 17  2 48 30.0000000  0  9G12G25G26G10G05G30G29G15G02
 -20238739.30148 -15740658.91846  21912553.9304                   21912551.2704
 -15015435.82048 -11672944.19146  21559607.2424                   21559607.4024
  -1922595.14547  -1407562.44944  22875157.0704                   22875155.3364
 -12015290.66846  -9322863.47342  24287932.4694                   24287931.2114
 -24998749.66048 -19449885.69146  20536975.7194                   20536973.2664
  10407399.43047   8111722.90645  21749396.1884                   21749395.3014
  -9131194.19148  -7092201.50046  21814232.4844                   21814230.8364
   5746337.00447   4583954.06644  23771919.4534                   23771918.5394
 -28270970.86347 -22020887.76645  21821382.0704                   21821378.1094
 11  8 17  2 49  0.0000000  0  9G12G25G26G10G05G30G29G15G02
 -20192560.37947 -15704675.34046  21921341.3204                   21921338.9884
 -15023311.60248 -11679081.16846  21558108.1644                   21558108.3834
  -2044154.17247  -1502283.72744  22852024.9774                   22852023.1844
 -11938581.58246  -9263090.05943  24302530.0234                   24302528.3134
 -24985345.71948 -19439441.05146  20539526.5004                   20539524.5944
  10420309.79347   8121782.92645  21751853.1024                   21751851.5784
  -9239479.40648  -7176579.53946  21793626.6024                   21793624.9384
   5617813.82846   4483806.23444  23747462.6334                   23747462.0864
 -28260415.64848 -22012662.91845  21823390.2894                   21823386.6054
 11  8 17  2 49 30.0000000  0 10G12G25G26G10G05G30G29G15G02G21
 -20146063.41847 -15668443.94545  21930189.0164                   21930186.8094
 -15030647.32848 -11684797.31646  21556712.3914                   21556712.4264
  -2165499.66447  -1596838.62144  22828933.7974                   22828932.7274
 -11861811.09446  -9203268.75843  24317138.4614                   24317137.1684
 -24971497.64548 -19428650.34846  20542161.7814                   20542159.3914
  10433707.57047   8132222.73045  21754402.5084                   21754401.1914
  -9347595.83247  -7260826.04346  21773052.8834                   21773050.4384
   5489274.13346   4383645.53144  23723002.6724                   23723001.3364
 -28249769.00447 -22004366.81645  21825416.5944                   21825412.3954
  10919510.12156   8577901.72352  25038157.2114                   25038157.6994
 11  8 17  2 50  0.0000000  0 10G12G25G26G10G05G30G29G15G02G21
 -20099252.71547 -15631968.06645  21939097.0314                   21939094.8714
 -15037445.86348 -11690094.87546  21555418.8524                   21555419.2974
  -2286629.46147  -1691225.42244  22805883.3204                   22805881.9104
 -11784982.95346  -9143402.57843  24331758.3524                   24331757.2624
 -24957208.87948 -19417516.22746  20544880.9844                   20544878.4024
  10447589.17247   8143039.56645  21757044.1804                   21757043.0354
  -9455542.47347  -7344940.26646  21752511.3524                   21752509.1214
   5360719.09446   4283472.86744  23698538.4844                   23698538.5044
 -28239032.27048 -21996000.52345  21827459.5474                   21827455.9264
  10830649.77046   8508660.06642  25021248.4924                   25021247.8204
 11  8 17  2 50 30.0000000  0 10G12G25G26G10G05G30G29G15G02G21
 -20052125.51648 -15595245.58245  21948064.8204                   21948062.8834
 -15043703.25848 -11694970.76246  21554228.0234                   21554228.4454
  -2407534.22347  -1785436.87944  22782875.5864                   22782874.7234
 -11708094.05146  -9083489.03543  24346390.1564                   24346388.9184
 -24942475.92648 -19406036.00046  20547684.6094                   20547682.2544
  10461957.50847   8154235.66045  21759778.5864                   21759777.0274
  -9563311.65247  -7428916.18746  21732003.5314                   21732001.2114
   5232157.05546   4183294.74644  23674074.5164                   23674073.5704
 -28228199.89148 -21987559.70345  21829521.0314                   21829516.9414
  10741809.43846   8439433.93043  25004342.8444                   25004341.4024
 11  8 17  2 51  0.0000000  0 10G12G25G26G10G05G30G29G15G02G21
 -18429271.61347 -14330684.10546  22256883.5554                   22256881.7894
 -13474006.02348 -10471830.06246  21852931.4844                   21852931.8244
   -952791.52047   -651871.09045  23059704.1334                   23059703.0984
 -10055734.06646  -7795935.68443  24660823.2034                   24660822.4964
 -23351886.70748 -18166615.81646  20850363.3984                   20850360.8834
  12052224.48047   9393404.71945  22062396.3914                   22062395.0474
  -8095482.66847  -6285153.28146  22011321.8444                   22011319.7384
   6679010.44546   5310713.05944  23949401.6414                   23949400.5984
 -26641857.43448 -20751448.68445  22131392.1094                   22131387.6644
  12228406.25046   9597821.14843  25287231.6484                   25287231.8984
 11  8 17  2 51 30.0000000  0 10G12G25G26G10G05G30G29G15G02G21
 -18381538.39147 -14293489.39145  22265967.2034                   22265965.3524
 -13479203.75048 -10475880.25046  21851942.4694                   21851942.7424
  -1073253.36347   -745737.40244  23036780.4844                   23036779.9224
  -9978748.35946  -7735946.67643  24675472.6724                   24675471.9304
 -23336290.21548 -18154462.69546  20853331.1414                   20853329.3134
  12067541.04347   9405339.69545  22065311.1644                   22065309.6094
  -8202908.29348  -6368861.49646  21990879.3284                   21990877.7194
   6550425.51646   5210517.11344  23924932.0704                   23924931.9144
 -26630851.30947 -20742872.46545  22133486.3914                   22133482.5554
  12139586.15646   9528610.84443  25270330.6954                   25270330.7704
 11  8 17  2 52  0.0000000  0 10G12G25G26G10G05G30G29G15G02G21
 -18333506.66847 -14256062.08646  22275107.2894                   22275105.2234
 -13483874.08648 -10479519.47746  21851053.5704                   21851054.1914
  -1193488.03547   -839426.69944  23013900.8054                   23013899.9064
  -9901718.01647  -7675922.89143  24690131.6804                   24690129.9104
 -23320265.30948 -18141975.73846  20856380.8594                   20856378.6054
  12083327.80947   9417641.06645  22068315.2584                   22068313.6024
  -8310158.92248  -6452433.36346  21970470.4064                   21970468.1994
   6421833.36347   5110315.50444  23900462.0864                   23900461.3554
 -26619758.11748 -20734228.41845  22135597.4844                   22135593.3164
  12050775.53546   9459407.91043  25253429.9064                   25253429.8444
 11  8 17  2 52 30.0000000  0 10G12G25G26G10G05G30G29G15G02G21
 -18285165.33647 -14218393.52745  22284305.7194                   22284304.2774
 -13488004.82048 -10482738.22746  21850267.6094                   21850268.0594
  -1313478.23047   -932925.49244  22991067.0944                   22991066.3324
  -9824630.99246  -7615854.94943  24704800.8054                   24704799.5824
 -23303800.36748 -18129145.89846  20859513.9064                   20859511.8404
  12099596.19947   9430317.73445  22071410.3594                   22071409.0944
  -8417218.79748  -6535856.59046  21950097.3984                   21950094.9104
   6293250.46947   5010121.12944  23875993.8914                   23875993.0944
 -26608564.31248 -20725505.96545  22137727.8204                   22137723.2544
  11961987.41846   9390222.46543  25236533.2734                   25236533.5984
 11  8 17  2 53  0.0000000  0  9G12G25G26G05G30G29G15G02G21
 -18236519.09047 -14180487.37546  22293563.2344                   22293561.3014
 -13491598.96148 -10485538.85546  21849583.5634                   21849583.9064
  -1433221.41847  -1026231.84845  22968281.0314                   22968280.0634
 -23286898.82048 -18115975.84046  20862730.2034                   20862727.9804
  12116342.36747   9443366.69945  22074597.2504                   22074596.0164
  -8524086.78548  -6619130.29746  21929760.7584                   21929759.1174
   6164678.62947   4909935.37544  23851527.3984                   23851525.9774
 -26597270.68048 -20716705.71545  22139876.7974                   22139872.3834
  11873219.77746   9321052.96543  25219642.1254                   25219640.9924
 11  8 17  2 53 30.0000000  0  9G12G25G26G05G30G29G15G02G21
 -18187578.05947 -14142351.49645  22302876.7504                   22302874.3364
 -13494665.28548 -10487928.20346  21848999.8594                   21849000.3594
  -1552721.32447  -1119348.60544  22945540.8054                   22945540.1134
 -23269570.32848 -18102473.10246  20866027.7274                   20866025.1054
  12133556.49248   9456780.30545  22077873.6644                   22077871.3754
  -8630767.96548  -6702258.43746  21909459.9144                   21909458.3094
   6036113.57447   4809754.88344  23827062.5554                   23827060.5474
 -26585884.43448 -20707833.30545  22142043.3914                   22142039.6134
  11784465.21947   9251893.68043  25202752.8284                   25202751.2894
 11  8 17  2 54  0.0000000  0  9G12G25G26G05G30G29G15G02G21
 -18138344.11347 -14103987.38745  22312245.6644                   22312243.3164
 -13497204.28148 -10489906.64146  21848517.3204                   21848516.7894
  -1671973.00447  -1212271.93044  22922847.3054                   22922847.0274
 -23251815.85948 -18088638.43046  20869405.8524                   20869403.5784
  12151237.34448   9470557.60945  22081237.8204                   22081236.5314
  -8737258.44948  -6785237.98446  21889195.3204                   21889193.1764
   5907559.08247   4709582.57844  23802598.9304                   23802597.4064
 -26574403.89148 -20698887.42245  22144227.8674                   22144223.8754
  11695724.23447   9182744.92643  25185865.7424                   25185864.7074
 11  8 17  2 54 30.0000000  0  9G12G25G26G05G30G29G15G02G21
 -18088813.00047 -14065391.70345  22321670.7974                   22321668.9454
 -13499210.76248 -10491470.12146  21848135.3134                   21848135.6954
  -1790965.69547  -1304993.43444  22900204.2894                   22900203.7344
 -23233630.78148 -18074468.23046  20872866.9534                   20872864.1454
  12169389.27048   9484701.97745  22084691.4614                   22084690.4614
  -8843549.24647  -6868061.95746  21868968.8204                   21868967.3284
   5779025.30547   4609426.45744  23778140.0084                   23778138.5044
 -26562822.20348 -20689862.72345  22146431.7584                   22146427.4844
  11607003.15646   9113611.73443  25168982.4844                   25168982.6374
 11  8 17  2 55  0.0000000  0  9G12G25G26G05G30G29G15G02G21
 -18038995.84047 -14026573.12545  22331150.7894                   22331148.8284
 -13500694.43048 -10492626.23446  21847852.6564                   21847852.9574
  -1909703.74647  -1397516.53144  22877609.4614                   22877608.2194
 -23215024.98448 -18059970.17646  20876407.0004                   20876404.4184
  12188001.63348   9499205.13745  22088233.9844                   22088232.6414
  -8949646.27348  -6950734.91846  21848779.4304                   21848777.3984
   5650506.99247   4509282.38744  23753683.8914                   23753682.0164
 -26551147.50047 -20680765.54345  22148653.8444                   22148649.4654
  11518293.47346   9044487.37943  25152101.0704                   25152101.4454
 11  8 17  2 55 30.0000000  0  9G12G25G26G05G30G29G15G02G21
 -17988899.93747 -13987537.33245  22340683.4304                   22340681.0664
 -13501661.80148 -10493380.02746  21847668.5704                   21847669.1374
  -2028188.16047  -1489842.01244  22855062.2974                   22855060.8834
 -23196005.89848 -18045150.09846  20880026.8754                   20880023.9884
  12207067.12948   9514061.38345  22091861.4304                   22091860.2464
  -9055552.03948  -7033258.84846  21828626.3284                   21828624.2034
   5522002.44946   4409149.03544  23729229.7734                   23729228.5864
 -26539384.12548 -20671599.26645  22150892.3524                   22150887.6414
  11429589.85946   8975367.75843  25135221.3914                   25135221.5824
 11  8 17  2 56  0.0000000  0  9G12G25G26G05G30G29G15G02G21
 -17938519.09847 -13948279.52045  22350270.8444                   22350268.5634
 -13502104.90648 -10493725.30946  21847583.9844                   21847584.3244
  -2146405.58647  -1581959.43444  22832566.2274                   22832564.9654
 -23176565.93748 -18030002.04746  20883725.9454                   20883723.0824
  12226592.77748   9529276.18845  22095577.3444                   22095575.7544
  -9161254.68748  -7115624.50846  21808511.6804                   21808510.1374
   5393524.22746   4309036.20344  23704781.0864                   23704779.7424
 -26527522.15647 -20662356.15645  22153149.3594                   22153145.4064
  11340901.54346   8906260.06643  25118344.6024                   25118343.9264
 11  8 17  2 56 30.0000000  0  9G12G25G26G05G30G29G15G02G21
 -17887862.99647 -13908807.23045  22359910.1564                   22359908.1484
 -13502032.02748 -10493668.50846  21847598.1804                   21847598.7074
  -2264358.87147  -1673871.01244  22810120.2504                   22810119.5274
 -23156713.60548 -18014532.68046  20887503.7194                   20887501.2344
  12246569.47748   9544842.46145  22099378.6724                   22099377.5474
  -9266758.18048  -7197834.98446  21788435.2274                   21788432.6604
   5265068.78546   4208941.11744  23680336.0474                   23680335.4734
 -26515567.62548 -20653040.94545  22155423.7664                   22155419.7624
  11252221.84446   8837159.07443  25101469.5704                   25101468.1884
 11  8 17  2 57  0.0000000  0  9G12G25G26G05G30G29G15G02G21
 -17836936.04747 -13869123.88345  22369600.6174                   22369598.9654
 -13501446.84448 -10493212.51646  21847709.6484                   21847709.8594
  -2382045.90647  -1765575.14144  22787725.1254                   22787724.1884
 -23136453.88748 -17998745.86746  20891358.6254                   20891356.1914
  12266992.74247   9560756.72345  22103265.6174                   22103263.7934
  -9372062.27748  -7279890.09446  21768396.3054                   21768394.5434
   5136637.28147   4108864.68844  23655896.9454                   23655896.2424
 -26503522.50447 -20643655.13345  22157716.4384                   22157711.8634
  11163547.43846   8768062.23843  25084595.5474                   25084593.9264
 11  8 17  2 57 30.0000000  0  9G12G25G26G05G30G29G15G02G21
 -17785738.78147 -13829229.91045  22379343.9224                   22379342.0314
 -13500348.80148 -10492356.89146  21847918.0864                   21847918.5234
  -2499461.01247  -1857067.36345  22765381.8054                   22765380.8554
 -23115785.79348 -17982640.84046  20895292.2344                   20895289.4414
  12287862.27348   9577018.69945  22107236.7584                   22107235.3324
  -9477162.07448  -7361786.00846  21748396.2814                   21748394.6644
   5008235.21147   4008811.20344  23631462.7504                   23631461.1564
 -26491384.39847 -20634196.86745  22160025.8914                   22160021.7464
  11074880.89146   8698971.49243  25067722.5554                   25067721.4494
 11  8 17  2 58  0.0000000  0  9G12G25G26G05G30G29G15G02G21
 -17734269.75847 -13789124.19145  22389138.3594                   22389136.1914
 -13498734.87548 -10491099.27746  21848225.5634                   21848225.7154
  -2616595.48847  -1948340.93444  22743092.0864                   22743090.9414
 -23094706.95748 -17966215.75446  20899302.9144                   20899300.6334
  12309180.27047   9593630.15245  22111293.0234                   22111291.5044
  -9582050.59048  -7443517.28946  21728436.6414                   21728434.8204
   4879870.10247   3908786.53544  23607035.3834                   23607034.6884
 -26479148.13347 -20624662.10245  22162354.6484                   22162350.6644
  10986226.40246   8629890.16043  25050851.3524                   25050852.1684
 11  8 17  2 58 30.0000000  0  9G12G25G26G05G30G29G15G02G21
 -17682538.96947 -13748814.49645  22398982.4454                   22398980.2734
 -13496614.19148 -10489446.78146  21848629.2974                   21848629.7154
  -2733452.63747  -2039398.41444  22720854.3594                   22720853.0204
 -23073227.13748 -17949478.22746  20903390.3594                   20903387.7234
  12330936.82047   9610583.32445  22115433.1564                   22115431.4144
  -9686732.96948  -7525087.94146  21708516.4224                   21708514.9064
   4751537.73047   3808787.35244  23582614.7194                   23582613.8954
 -26466820.50447 -20615056.17245  22164700.4614                   22164696.0904
  10897576.03146   8560812.02043  25033982.2194                   25033982.2194
 11  8 17  2 59  0.0000000  0  9G12G25G26G05G30G29G15G02G21
 -17630549.85947 -13708303.50845  22408875.7114                   22408873.7734
 -13493989.11348 -10487401.25846  21849128.3834                   21849128.9924
  -2850029.54747  -2130237.52745  22698670.6644                   22698669.5164
 -23051349.19148 -17932430.45746  20907553.6254                   20907550.8874
  12353128.77047   9627875.77045  22119656.2194                   22119654.7154
  -9791206.94148  -7606496.19946  21688635.1094                   21688633.7304
   4623240.67647   3708815.71544  23558200.8594                   23558199.3284
 -26454401.95347 -20605379.37945  22167063.6174                   22167059.7584
  10808928.90246   8491736.38343  25017113.1334                   25017113.5314
 11  8 17  2 59 30.0000000  0  9G12G25G26G05G30G29G15G02G21
 -17578302.03947 -13667590.91845  22418818.2274                   22418816.2274
 -13490858.04748 -10484961.44946  21849724.6174                   21849724.6884
  -2966318.83647  -2220852.50045  22676541.7114                   22676540.4534
 -23029071.89848 -17915071.52046  20911792.8834                   20911790.4884
  12375756.80947   9645508.03545  22123962.5314                   22123960.5164
  -9895467.14148  -7687737.88746  21668795.7274                   21668793.8674
   4494985.45747   3608876.66444  23533794.3754                   23533792.2734
 -26441888.88347 -20595628.93445  22169444.4774                   22169440.4654
  10720287.82846   8422665.54742  25000245.1174                   25000244.7344
 11  8 17  3  0  0.0000000  0  9G12G25G26G05G30G29G15G02G21
 -17525798.71548 -13626679.24645  22428809.3204                   22428807.1764
 -13487223.38348 -10482129.21946  21850416.4614                   21850416.1724
  -3082317.35947  -2311240.88345  22654467.6954                   22654467.0704
 -23006398.02748 -17897403.55546  20916107.2894                   20916104.8634
  12398817.83247   9663477.67645  22128350.3914                   22128348.9774
  -9999511.48848  -7768811.37146  21648996.3134                   21648994.8324
   4366774.52747   3508972.12944  23509396.7814                   23509395.6214
 -26429281.43047 -20585804.96145  22171843.9844                   22171839.1024
  10631651.82845   8353598.66042  24983378.5314                   24983377.7424
 11  8 17  3  0 30.0000000  0  9G12G25G26G05G30G29G15G02G21
 -17473047.19548 -13585574.18045  22438847.1334                   22438844.9184
 -13483090.98448 -10478909.15246  21851202.6564                   21851202.6454
  -3198025.21547  -2401402.79745  22632449.2504                   22632448.3054
 -22983333.48448 -17879431.17646  20920496.6174                   20920494.1454
  12422305.15647   9681779.50845  22132820.2194                   22132818.2114
 -10103341.64848  -7849717.96946  21629238.4384                   21629236.4384
   4238607.14847   3409101.49244  23485007.8914                   23485005.3324
 -26416583.30947 -20575910.33245  22174260.5004                   22174256.2424
  10543016.78945   8284532.47342  24966509.9774                   24966511.4694
 11  8 17  3  1  0.0000000  0  9G12G25G26G05G30G29G15G02G21
 -17420043.22347 -13544272.39145  22448933.6094                   22448931.6414
 -13478455.58248 -10475297.13746  21852084.5784                   21852084.9884
  -3313431.60247  -2491329.82045  22610487.8054                   22610486.7544
 -22959873.58648 -17861150.73046  20924960.9144                   20924958.1524
  12446223.27747   9700417.00445  22137371.6334                   22137370.1024
 -10206947.96548  -7930450.12546  21609522.4064                   21609520.6024
   4110493.39847   3309272.68844  23460627.6254                   23460626.8444
 -26403786.92247 -20565939.12545  22176695.6884                   22176691.6644
  10454389.21546   8215472.03942  24949646.3444                   24949646.0824
 11  8 17  3  1 30.0000000  0  9G12G25G26G05G30G29G15G02G21
 -17366793.49247 -13502779.11345  22459066.7424                   22459064.3674
 -13473322.64548 -10471297.42646  21853061.5944                   21853061.3444
  -3428536.31647  -2581021.73045  22588584.1724                   22588583.2074
 -22936024.34848 -17842566.89846  20929499.1884                   20929496.6484
  12470565.98847   9719385.36745  22142003.5944                   22142002.5044
 -10310331.75448  -8011008.88346  21589849.2034                   21589847.3914
   3982432.63747   3209485.14544  23436258.8204                   23436257.0004
 -26390895.54747 -20555893.89845  22179148.4224                   22179144.5664
  10365765.12946   8146414.37142  24932781.9064                   24932781.5514
 11  8 17  3  2  0.0000000  0  9G12G25G26G05G30G29G15G02G21
 -17313297.39847 -13461093.85545  22469246.9304                   22469244.0634
 -13467690.85548 -10466909.00846  21854133.2894                   21854133.0474
  -3543331.99247  -2670472.85245  22566739.4224                   22566738.1334
 -22911784.71548 -17823678.86346  20934111.7034                   20934109.1524
  12495333.75447   9738684.93845  22146717.2424                   22146715.0864
 -10413487.29348  -8091389.77746  21570219.4454                   21570217.6994
   3854431.43046   3109744.00844  23411901.3674                   23411899.5514
 -26377905.57448 -20545771.84045  22181620.3594                   22181616.4454
  10277147.20746   8077361.50842  24915918.0314                   24915918.2384
 11  8 17  3  2 30.0000000  0  9G12G25G26G05G30G29G15G02G21
 -17259559.23447 -13419219.97345  22479472.5864                   22479470.5354
 -13461563.56648 -10462134.49246  21855298.8834                   21855299.3984
  -3657816.72347  -2759681.69145  22544953.8444                   22544952.6214
 -22887158.28148 -17804489.42646  20938798.3834                   20938795.7894
  12520522.49247   9758312.52045  22151510.1564                   22151508.8404
 -10516413.57848  -8171592.03946  21550633.3054                   21550631.2114
   3726491.41447   3010050.56644  23387554.5084                   23387553.0944
 -26364818.05148 -20535573.77345  22184110.6564                   22184106.5784
  10188533.54346   8008311.92643  24899055.9614                   24899055.6724
 11  8 17  3  3  0.0000000  0  9G12G25G26G05G30G29G15G02G21
 -17205583.43447 -13377160.91045  22489744.1094                   22489742.2194
 -13454944.28148 -10456976.60946  21856558.4144                   21856558.1804
  -3771988.12947  -2848646.35245  22523227.7894                   22523226.3874
 -22862148.77348 -17785001.48846  20943557.3054                   20943554.5274
  12546127.91847   9778264.80145  22156382.4144                   22156381.1724
 -10619109.71148  -8251614.95346  21531091.0234                   21531088.6804
   3598614.13747   2910405.99644  23363220.2664                   23363219.1374
 -26351634.46948 -20525300.86345  22186619.4224                   22186615.1884
  10099922.30946   7939264.30143  24882193.4694                   24882192.9454
 11  8 17  3  3 30.0000000  0  9G12G25G26G05G30G29G15G02G21
 -17151369.25447 -13334916.10545  22500060.5084                   22500058.3284
 -13447831.14848 -10451433.90646  21857911.9694                   21857912.0744
  -3885838.43047  -2937360.82045  22501562.9844                   22501561.4304
 -22836754.85248 -17765214.01246  20948389.8054                   20948387.0204
  12572151.16047   9798542.65645  22161334.8594                   22161333.2934
 -10721569.26648  -8331453.52046  21511593.2034                   21511590.9104
   3470806.58247   2810815.77744  23338899.7194                   23338897.6604
 -26338350.56248 -20514949.77045  22189147.6564                   22189142.6914
  10011316.75846   7870221.13343  24865332.5164                   24865331.5274
 11  8 17  3  4  0.0000000  0  9G12G25G26G05G30G29G15G02G21
 -17096927.31647 -13292493.82045  22510420.3204                   22510418.5514
 -13440234.03548 -10445514.07046  21859357.9144                   21859358.1724
  -3999371.93047  -3025828.41845  22479958.1254                   22479956.1644
 -22810986.48048 -17745134.75046  20953293.3754                   20953290.8204
  12598581.65647   9819137.85545  22166364.4144                   22166363.0944
 -10823798.06648  -8411112.27746  21492139.8364                   21492137.6054
   3343064.09447   2711276.24644  23314590.3134                   23314589.3364
 -26324973.64548 -20504526.18745  22191692.6484                   22191688.6254
   9922709.16846   7801176.32842  24848470.9224                   24848469.7234
 11  8 17  3  4 30.0000000  0  9G12G25G26G05G30G29G15G02G21
 -17042251.02047 -13249888.91445  22520824.9844                   22520822.7384
 -13432145.04748 -10439210.95746  21860897.3134                   21860896.7274
  -4112574.78147  -3114038.39545  22458416.3284                   22458414.6764
 -22784836.14848 -17724757.86346  20958269.1954                   20958266.5904
  12625426.48047   9840055.90645  22171472.8754                   22171471.4964
 -10925783.71548  -8490581.55546  21472732.6724                   21472730.6174
   3215399.50047   2611797.41844  23290297.0864                   23290294.5664
 -26311493.58648 -20494022.23445  22194258.5084                   22194254.0434
   9834108.71146   7732137.09443  24831609.9064                   24831609.2624
 11  8 17  3  5  0.0000000  0  9G12G25G26G05G30G29G15G02G21
 -16987355.90647 -13207113.50045  22531271.3204                   22531269.4964
 -13423578.82048 -10432535.96946  21862527.0864                   21862527.3984
  -4225455.90647  -3201997.66445  22436935.1094                   22436934.0664
 -22758318.77748 -17704094.95746  20963315.5394                   20963312.7814
  12652670.29347   9861284.86345  22176657.1024                   22176655.3834
 -11027536.17248  -8569869.13746  21453369.4384                   21453367.3984
   3087803.35947   2512371.92644  23266015.7274                   23266014.4654
 -26297922.51248 -20483447.37945  22196840.4224                   22196836.3674
   9745501.94547   7663092.94143  24814749.5864                   24814748.3954
 11  8 17  3  5 30.0000000  0  9G12G25G26G05G30G29G15G02G21
 -16932235.33247 -13164162.40245  22541760.3054                   22541758.7074
 -13414528.33248 -10425483.62946  21864249.5554                   21864249.8554
  -4338002.50447  -3289696.24645  22415518.1954                   22415517.1454
 -22731427.29748 -17683140.55146  20968432.6884                   20968430.0984
  12680319.47347   9882829.66045  22181918.2664                   22181916.6334
 -11129044.09048  -8648966.17246  21434053.3204                   21434051.4304
   2960287.97747   2413009.34044  23241750.8754                   23241749.1804
 -26284251.25048 -20472794.44545  22199442.2974                   22199438.0084
   9656897.73046   7594050.78943  24797888.9384                   24797888.0084
 11  8 17  3  6  0.0000000  0  9G12G25G26G05G30G29G15G02G21
 -16876899.81647 -13121043.82845  22552290.5004                   22552287.8594
 -13405002.32048 -10418060.76646  21866062.3284                   21866062.8444
  -4450217.51247  -3377136.45745  22394164.3524                   22394163.2424
 -22704170.72348 -17661901.66046  20973619.4924                   20973616.9224
  12708364.46147   9904682.89545  22187255.0704                   22187253.8484
 -11230311.68748  -8727875.93446  21414782.1564                   21414780.2194
   2832849.73047   2313706.87144  23217499.8754                   23217498.3484
 -26270485.65648 -20462068.01645  22202061.4844                   22202057.1054
   9568289.22346   7525005.27343  24781026.7664                   24781025.5904
 11  8 17  3  6 30.0000000  0  9G12G25G26G05G30G29G15G02G21
 -16821342.85947 -13077752.69145  22562862.2114                   22562860.5204
 -13394993.94948 -10410262.03546  21867966.8524                   21867967.1644
  -4562088.32847  -3464308.47745  22372876.2584                   22372874.6604
 -22676542.91048 -17640373.47746  20978876.7504                   20978874.1454
  12736811.44547   9926849.36345  22192668.1254                   22192666.9534
 -11331327.26248  -8806589.32846  21395559.9064                   21395557.9384
   2705500.92247   2214474.09445  23193266.3914                   23193264.2194
 -26256616.56247 -20451260.92245  22204701.1724                   22204696.7664
   9479684.77346   7455962.95743  24764165.7194                   24764164.2854
 11  8 17  3  7  0.0000000  0  9G12G25G26G05G30G29G15G02G21
 -16765581.17647 -13034302.05945  22573473.4304                   22573471.6134
 -13384519.03548 -10402099.77046  21869959.9774                   21869960.2464
  -4673624.71547  -3551219.90645  22351651.4694                   22351650.4774
 -22648559.55948 -17618568.27046  20984202.0164                   20984199.5164
  12765643.87147   9949316.17645  22198155.4614                   22198153.5984
 -11432102.32848  -8885115.30546  21376382.8134                   21376380.5394
   2578230.80547   2115302.65645  23169047.5704                   23169046.0984
 -26242657.49648 -20440383.73445  22207357.6174                   22207353.0474
   9391070.15646   7386912.68443  24747302.9454                   24747301.8444
 11  8 17  3  7 30.0000000  0  9G12G25G26G05G30G29G15G02G21
 -16709610.00447 -12990688.18745  22584124.6414                   22584122.4734
 -13373572.03948 -10393569.64146  21872043.0234                   21872043.4694
  -4784815.30947  -3637861.87145  22330492.7114                   22330491.1994
 -22620215.32048 -17596481.84446  20989595.3754                   20989593.1334
  12794866.65247   9972087.16845  22203716.2974                   22203714.3954
 -11532626.83248  -8963446.03146  21357253.7344                   21357251.7114
   2451050.20747   2016200.96145  23144845.6414                   23144844.1374
 -26228600.51648 -20429430.23445  22210032.2974                   22210027.8484
   9302452.81646   7317860.30543  24730439.5004                   24730437.8404
 11  8 17  3  8  0.0000000  0  9G12G25G26G05G30G29G15G02G21
 -16653426.60247 -12946908.91045  22594816.0554                   22594813.7274
 -13362149.35548 -10384668.84846  21874216.7664                   21874217.0634
  -4895650.76647  -3724227.12145  22309401.6334                   22309400.1844
 -22591506.79348 -17574111.55946  20995058.7424                   20995056.0784
  12824482.59047   9995164.50845  22209352.1724                   22209350.6094
 -11632892.50848  -9041575.09046  21338173.7734                   21338171.8714
   2323968.00047   1917175.93045  23120663.0004                   23120661.3014
 -26214439.34448 -20418395.53545  22212726.7664                   22212722.6954
   9213837.77346   7248809.75443  24713576.2894                   24713575.0004
 11  8 17  3  8 30.0000000  0  9G12G25G26G05G30G29G15G02G21
 -16597040.00447 -12902971.31245  22605545.7114                   22605543.6134
 -13350259.61348 -10375404.12146  21876478.9534                   21876480.0474
  -5006133.43447  -3810317.46145  22288377.4304                   22288376.1764
 -22562442.53948 -17551464.07046  21000588.8834                   21000586.7584
  12854482.49647  10018541.05945  22215060.9304                   22215059.0784
 -11732903.46148  -9119505.66846  21319142.3834                   21319140.3404
   2196980.98847   1818225.05945  23096498.0864                   23096496.7464
 -26200179.80147 -20407284.20745  22215440.5314                   22215436.2584
   9125218.60246   7179755.96143  24696712.6174                   24696711.5704
 11  8 17  3  9  0.0000000  0  9G12G25G26G05G30G29G15G02G21
 -16540444.48847 -12858870.92645  22616315.7504                   22616313.6604
 -13337895.63748 -10365769.85946  21878832.5164                   21878832.3364
  -5116250.75447  -3896123.12145  22267422.6414                   22267421.0704
 -22533015.81648 -17528534.14146  21006189.0784                   21006186.6564
  12884872.86347  10042221.86345  22220843.9064                   22220842.5204
 -11832647.85948  -9197228.52746  21300161.7194                   21300159.4844
   2070101.66847   1719358.12544  23072353.0164                   23072351.9184
 -26185812.46147 -20396088.86745  22218174.3204                   22218170.3404
   9036604.18446   7110705.88743  24679850.1094                   24679849.4024
 11  8 17  3  9 30.0000000  0  9G12G25G26G05G30G29G15G02G21
 -16483650.20347 -12814615.68045  22627123.4454                   22627121.2194
 -13325067.15248 -10355773.64546  21881273.7584                   21881274.1094
  -5226006.23047  -3981646.80945  22246536.6564                   22246535.0164
 -22503236.44148 -17505329.42646  21011855.6414                   21011853.1644
  12915643.23847  10066198.76245  22226699.3134                   22226697.7234
 -11932130.56648  -9274747.48446  21281230.6174                   21281228.4104
   1943325.71147   1620571.72345  23048229.2344                   23048226.8094
 -26171344.37948 -20384815.02345  22220927.8284                   22220923.0234
   8947986.35546   7041653.13743  24662986.6884                   24662985.8094
 11  8 17  3 10  0.0000000  0  9G12G25G26G05G30G29G15G02G21
 -16426661.54747 -12770208.92645  22637968.1564                   22637965.3324
 -13311777.80548 -10345418.32046  21883802.0474                   21883802.3484
  -5335397.70347  -4066886.85945  22225719.8834                   22225718.6374
 -22473108.05148 -17481852.75046  21017589.2664                   21017586.4614
  12946789.30947  10090468.42645  22232625.9144                   22232624.0824
 -12031350.75448  -9352061.86746  21262349.5314                   21262347.4694
   1816654.69947   1521867.11345  23024123.5394                   23024122.1804
 -26156776.50848 -20373463.43445  22223699.7584                   22223695.6804
   8859363.53546   6972596.50443  24646122.2894                   24646120.6024
 11  8 17  3 10 30.0000000  0  9G12G25G26G05G30G29G15G02G21
 -16369478.64847 -12725650.85245  22648849.8134                   22648847.4414
 -13298026.80948 -10334703.26246  21886418.8204                   21886419.2854
  -5444418.43447  -4151838.03945  22204973.5704                   22204972.7234
 -22442630.16048 -17458103.73846  21023389.0084                   21023386.2774
  12978311.28547  10115031.00045  22238624.6484                   22238623.0664
 -12130302.91048  -9429167.40246  21243519.4774                   21243517.1724
   1690094.80947   1423249.07844  23000040.2664                   23000038.6564
 -26142105.48848 -20362031.46145  22226491.6644                   22226487.1134
   8770737.98846   6903537.73043  24629257.0314                   24629255.3014
 11  8 17  3 11  0.0000000  0  9G12G25G26G05G30G29G15G02G21
 -16312108.09447 -12680946.53145  22659766.9694                   22659764.7344
 -13283820.05948 -10323633.07446  21889122.5704                   21889122.8244
  -5553068.13747  -4236500.09445  22184298.7974                   22184297.1914
 -22411808.46548 -17434086.81646  21029254.1334                   21029251.7704
  13010202.59847  10139881.37145  22244693.3284                   22244691.5784
 -12228988.09448  -9506064.90646  21224740.6174                   21224738.2074
   1563645.97347   1324717.59844  22975978.3594                   22975976.1484
 -26127334.32848 -20350521.45345  22229302.2424                   22229298.2734
   8682105.79346   6834473.80543  24612390.8284                   24612389.0394
 11  8 17  3 11 30.0000000  0  9G12G25G26G05G30G29G15G02G21
 -16254555.99247 -12636100.75445  22670718.2734                   22670716.7544
 -13269163.30148 -10312212.21946  21891911.7114                   21891911.7344
  -5661346.81247  -4320873.03945  22163694.3834                   22163692.6094
 -22380649.14548 -17409806.81246  21035183.2814                   21035180.7304
  13042456.86347  10165014.56645  22250830.8524                   22250829.3874
 -12327407.48848  -9582755.30546  21206012.3754                   21206009.6644
   1437307.53147   1226272.11744  22951936.7114                   22951934.6414
 -26112466.35548 -20338935.99645  22232132.0314                   22232127.1724
   8593463.13346   6765401.70343  24595522.0704                   24595520.9384
 11  8 17  3 12  0.0000000  0  9G12G25G26G05G30G29G15G02G21
 -16196820.26247 -12591111.88745  22681705.2424                   22681703.0904
 -13254053.60948 -10300438.43446  21894786.8754                   21894787.4924
  -5769245.65647  -4404950.00845  22143161.4064                   22143159.9844
 -22349149.02748 -17385261.25846  21041177.7274                   21041175.1644
  13075076.41847  10190432.39145  22257038.7344                   22257036.8524
 -12425553.27048  -9659232.50046  21187335.3834                   21187333.2114
   1311088.18447   1127919.44545  22927917.7424                   22927916.0514
 -26097495.84448 -20327270.66445  22234980.6414                   22234976.1804
   8504814.66846   6696325.08643  24578652.9614                   24578652.0634
 11  8 17  3 12 30.0000000  0  9G12G25G26G05G30G29G15G02G21
 -16138906.38747 -12545984.21145  22692726.1414                   22692724.0394
 -13238495.62148 -10288315.32846  21897747.5314                   21897748.0434
  -5876763.22347  -4488729.88345  22122701.5784                   22122699.8834
 -22317312.75848 -17360453.77346  21047235.8594                   21047233.0314
  13108055.91847  10216130.69545  22263314.2664                   22263313.1454
 -12523425.60248  -9735496.60946  21168710.7274                   21168708.8524
   1184988.44147   1029659.96145  22903921.6254                   22903919.8284
 -26082424.87547 -20315527.02345  22237848.2664                   22237843.9884
   8416157.95346   6627242.08643  24561782.3834                   24561781.9494
 11  8 17  3 13  0.0000000  0  9G12G25G26G05G30G29G15G02G21
 -16080823.41447 -12500724.77345  22703778.9384                   22703777.0784
 -13222497.96548 -10275849.62946  21900791.7584                   21900792.1334
  -5983902.19147  -4572214.73845  22102314.0864                   22102312.2774
 -22285149.12948 -17335391.19946  21053356.3594                   21053353.7584
  13141386.17647  10242102.31345  22269656.7424                   22269654.9614
 -12621027.56648  -9811550.05546  21150137.6334                   21150135.9384
   1059005.45347    931491.46545  22879947.5004                   22879945.9734
 -26067259.02347 -20303709.47745  22240734.2814                   22240729.8484
   8327486.41846   6558147.50043  24544908.3054                   24544906.6134
 11  8 17  3 13 30.0000000  0  9G12G25G26G05G30G29G15G02G21
 -16022564.86347 -12455328.51745  22714864.9694                   22714862.9454
 -13206053.25848 -10263035.57046  21903921.1174                   21903921.4804
  -6090648.80547  -4655393.87545  22082000.6804                   22081999.0554
 -22252650.83648 -17310067.84846  21059540.5394                   21059538.1564
  13175073.94947  10268352.50445  22276067.1414                   22276065.6374
 -12718347.81248  -9887383.97746  21131618.2894                   21131616.1914
    933152.14847    833424.02044  22855998.9614                   22855997.1174
 -26051988.45747 -20291810.31245  22243640.3444                   22243636.3204
   8238808.97746   6489048.32443  24528034.0234                   24528032.1024
 11  8 17  3 14  0.0000000  0 10G12G25G26G18G05G30G29G15G02G21
 -15964139.56647 -12409802.35245  22725983.0944                   22725981.0744
 -13189169.74248 -10249879.59046  21907134.0554                   21907134.1604
  -6197005.93747  -4738269.52345  22061761.4534                   22061759.3134
  12424591.19555   9800987.47753  24537716.7114                   24537717.5434
 -22219826.33648 -17284490.31246  21065787.1564                   21065784.1914
  13209110.42247  10294874.41445  22282544.5634                   22282542.7814
 -12815389.78948  -9963001.05946  21113151.8674                   21113149.3244
    807425.57447    735455.32445  22832073.4384                   22832072.1764
 -26036618.44547 -20279833.68745  22246564.8754                   22246561.1414
   8150119.39546   6419939.66843  24511156.5474                   24511154.5314
 11  8 17  3 14 30.0000000  0 10G12G25G26G18G05G30G29G15G02G21
 -15905544.87147 -12364144.15245  22737133.5554                   22737131.2734
 -13171844.50448 -10236379.39546  21910430.8594                   21910430.9654
  -6302964.22747  -4820834.38345  22041598.1884                   22041596.3794
  12303121.91846   9706336.25842  24514602.3054                   24514601.2624
 -22186672.09048 -17258655.82446  21072095.9694                   21072093.7894
  13243497.85547  10321669.81645  22289087.8524                   22289086.1644
 -12912145.43748 -10038395.03146  21094739.7974                   21094737.3914
    681834.38347    637592.12545  22808174.0864                   22808172.7384
 -26021143.30147 -20267775.12145  22249509.9304                   22249505.9024
   8061422.93046   6350825.70743  24494277.9534                   24494275.7974
 11  8 17  3 15  0.0000000  0 10G12G25G26G18G05G30G29G15G02G21
 -15846788.44547 -12318359.93745  22748314.0004                   22748312.1954
 -13154084.20748 -10222540.22346  21913810.2894                   21913810.5514
  -6408524.53147  -4903089.11345  22021510.6484                   22021509.3094
  12181818.80546   9611814.42642  24491518.7194                   24491518.6094
 -22153195.14148 -17232569.88346  21078466.7274                   21078463.9574
  13278229.15247  10348733.14545  22295697.2034                   22295695.6334
 -13008616.40248 -10113567.17646  21076381.8594                   21076379.6564
    556377.39547    539833.51245  22784301.2034                   22784299.1954
 -26005567.04347 -20255637.77045  22252473.7034                   22252469.6294
   7972714.53546   6281702.42643  24477397.8054                   24477395.2424
 11  8 17  3 15 30.0000000  0 10G12G25G26G18G05G30G29G15G02G21
 -14212448.50447 -11044848.31245  23059319.3984                   23059316.9304
 -11560465.21548  -8980759.19546  22217066.0234                   22217066.3554
  -4938252.94947  -3757422.89845  22301293.9774                   22301292.8284
  13636113.70346  10745031.35943  24768262.1024                   24768260.8364
 -20543972.20748 -15978629.92646  21384691.8054                   21384689.0744
  14888726.73047  11603666.32445  22602164.7504                   22602163.2704
 -11529370.51248  -8960908.00446  21357873.2274                   21357870.9024
   2006488.57847   1669790.34445  23060247.6884                   23060246.1524
 -24414462.74647 -19015816.22345  22555251.2274                   22555246.9774
   9459423.71146   7440177.20743  24760308.9694                   24760306.9844
 11  8 17  3 16  0.0000000  0 10G12G25G26G18G05G30G29G15G02G21
 -14153371.98047 -10998814.68745  23070560.8594                   23070559.0164
 -11541836.90648  -8966243.64146  22220610.6644                   22220611.1254
  -5043001.23047  -3839044.89545  22281360.9614                   22281359.3524
  13515151.98846  10650775.59043  24745243.8984                   24745243.2194
 -20509851.71148 -15952042.52046  21391184.0864                   21391182.1414
  14924141.77348  11631262.44545  22608903.5234                   22608902.2114
 -11625260.02048  -9035627.07046  21339626.0314                   21339623.5664
   1881314.74247   1572252.36345  23036427.4454                   23036425.9494
 -24398677.36747 -19003515.92645  22558254.3834                   22558250.5744
   9370695.71946   7371038.65643  24743424.5864                   24743422.8444
 11  8 17  3 16 30.0000000  0 10G12G25G26G18G05G30G29G15G02G21
 -14094148.13347 -10952666.25845  23081830.8284                   23081828.3244
 -11522786.58648  -8951399.23846  22224235.8594                   22224236.1524
  -5147346.46947  -3920352.82845  22261504.3444                   22261502.9614
  13394354.96547  10556648.15243  24722256.7194                   24722255.9224
 -20475421.23048 -15925213.57846  21397736.5944                   21397733.6294
  14959885.81647  11659114.93845  22615705.9534                   22615704.1214
 -11720863.40248  -9110123.18046  21321433.1564                   21321430.9064
   1756279.02347   1474822.00845  23012634.4144                   23012633.0864
 -24382795.07847 -18991140.10945  22561277.1804                   22561273.0234
   9281948.97746   7301885.49643  24726535.8594                   24726534.0314
 11  8 17  3 17  0.0000000  0 10G12G25G26G18G05G30G29G15G02G21
 -14034772.85247 -10906399.80945  23093129.6414                   23093126.7304
 -11503309.40648  -8936222.21546  22227942.5634                   22227942.7344
  -5251277.60247  -4001338.08245  22241726.8054                   22241725.4024
  13273731.24246  10462655.70343  24699302.1954                   24699302.3364
 -20440676.07848 -15898139.42646  21404347.8054                   21404345.4384
  14995963.22747  11687227.18845  22622571.1174                   22622569.3054
 -11816170.82848  -9184388.66846  21303296.5394                   21303294.1764
   1631391.93847   1377507.45745  22988868.6484                   22988867.8134
 -24366808.18747 -18978682.80545  22564319.2814                   22564314.9144
   9193190.73846   7232723.37143  24709646.2894                   24709643.5434
 11  8 17  3 17 30.0000000  0 10G12G25G26G18G05G30G29G15G02G21
 -13975242.74647 -10860012.72345  23104457.5554                   23104455.5594
 -11483401.52048  -8920709.59846  22231730.7584                   22231731.3674
  -5354784.77747  -4081992.97745  22222030.0704                   22222028.7034
  13153288.60246  10368804.40243  24676383.2194                   24676382.2854
 -20405612.20748 -15870816.92246  21411020.4774                   21411017.8244
  15032377.21547  11715601.70745  22629500.2504                   22629498.7664
 -11911173.80148  -9258416.94146  21285218.2504                   21285216.0394
   1506662.68447   1280315.89545  22965133.4384                   22965132.0554
 -24350710.09847 -18966138.84445  22567382.7584                   22567378.5634
   9104426.68846   7163556.69543  24692754.4694                   24692751.5664
 11  8 17  3 18  0.0000000  0 10G12G25G26G18G05G30G29G15G02G21
 -13915574.38747 -10813517.92645  23115811.7424                   23115810.3094
 -11463079.18748  -8904874.03146  22235598.1724                   22235598.5204
  -5457878.13347  -4162325.41445  22202412.3914                   22202410.7114
  13033014.14146  10275084.10543  24653495.9384                   24653494.0984
 -20370245.65248 -15843258.56246  21417750.5314                   21417747.7894
  15069110.99247  11744225.42645  22636490.4924                   22636488.6524
 -12005883.41848  -9332216.62546  21267195.3134                   21267193.0984
   1382080.96547   1183239.28145  22941426.4534                   22941424.2734
 -24334513.97747 -18953518.50045  22570464.9304                   22570460.5864
   9015642.43046   7094374.26243  24675859.5864                   24675856.2304
 11  8 17  3 18 30.0000000  0 10G12G25G26G18G05G30G29G15G02G21
 -13855762.13347 -10766910.99245  23127193.3134                   23127192.1684
 -11442336.14148  -8888710.62146  22239545.0394                   22239545.1604
  -5560545.55147  -4242325.95345  22182875.2584                   22182873.7234
  12912918.28546  10181502.98442  24630641.1334                   24630641.3404
 -20334570.10248 -15815459.42246  21424539.1884                   21424536.7504
  15106170.36348  11773102.84045  22643542.9844                   22643541.1564
 -12100288.34048  -9405778.88346  21249231.1024                   21249228.6484
   1257659.00447   1086287.17245  22917750.0704                   22917747.5864
 -24318210.78147 -18940814.71545  22573567.0314                   22573562.8404
   8926846.53147   7025182.80143  24658962.1804                   24658959.8834
 11  8 17  3 19  0.0000000  0 10G12G25G26G18G05G30G29G15G02G21
 -13795810.67647 -10720195.59445  23138602.2194                   23138600.6374
 -11421176.60248  -8872222.68446  22243572.2114                   22243571.9884
  -5662785.15647  -4321993.13745  22163419.8054                   22163418.1884
  12793000.89546  10088060.96943  24607822.1724                   24607822.2584
 -20298589.78948 -15787422.81246  21431385.9144                   21431383.8594
  15143550.53547  11802230.21945  22650656.0004                   22650654.9654
 -12194387.98448  -9479103.26646  21231324.5474                   21231321.9454
   1133397.95347    989460.43045  22894103.7114                   22894101.7504
 -24301801.72347 -18928028.45345  22576690.3984                   22576685.5634
   8838037.00847   6955980.72343  24642062.0474                   24642059.7504
 11  8 17  3 19 30.0000000  0 10G12G25G26G18G05G30G29G15G02G21
 -13735718.10547 -10673370.22745  23150037.6174                   23150036.2704
 -11399598.28948  -8855408.43446  22247678.0704                   22247678.4884
  -5764588.74247  -4401320.56645  22144047.0314                   22144045.6374
  12673267.68846   9994762.45343  24585037.8054                   24585037.4884
 -20262302.34048 -15759146.85546  21438291.3284                   21438288.6094
  15181253.38347  11831609.05945  22657830.5474                   22657828.9384
 -12288175.05548  -9552184.07846  21213477.3524                   21213475.0664
   1009305.62947    892765.15645  22870489.5084                   22870487.4494
 -24285281.46947 -18915155.53945  22579833.7584                   22579829.5864
   8749218.31347   6886771.46543  24625160.5084                   24625158.5394
 11  8 17  3 20  0.0000000  0 10G12G25G26G18G05G30G29G15G02G21
 -13675497.53147 -10626445.11745  23161497.3204                   23161495.3014
 -11377613.73848  -8838277.61346  22251861.6644                   22251862.1644
  -5865962.69947  -4480313.21945  22124756.5634                   22124754.6024
  12553710.30946   9901601.01642  24562286.2664                   24562286.1804
 -20225719.71948 -15730640.91046  21445252.5554                   21445249.5824
  15219265.71947  11861229.07045  22665064.1484                   22665062.2464
 -12381657.25848  -9625027.34046  21195688.2114                   21195685.6724
    885375.65247    796196.39145  22846906.3754                   22846904.5664
 -24268659.43747 -18902203.30945  22582996.5554                   22582992.3054
   8660380.07846   6817547.01243  24608254.5784                   24608253.2464
 11  8 17  3 20 30.0000000  0 10G12G25G26G18G05G30G29G15G02G21
 -13615149.15247 -10579420.42645  23172981.4304                   23172979.2154
 -11355222.75048  -8820830.10946  22256122.2734                   22256122.4264
  -5966900.66047  -4558966.13345  22105548.2504                   22105546.4024
  12434332.57846   9808579.52343  24539570.3444                   24539568.8244
 -20188841.78148 -15701904.84446  21452270.4924                   21452267.9924
  15257587.25847  11891089.99645  22672356.8754                   22672355.2624
 -12474829.26648  -9697628.88746  21177957.5084                   21177955.6884
    761613.94947    699758.74245  22823355.3054                   22823353.5784
 -24251932.66847 -18889169.46545  22586179.9774                   22586176.0234
   8571524.65246   6748309.13343  24591345.7894                   24591343.8164
 11  8 17  3 21  0.0000000  0 10G12G25G26G18G05G30G29G15G02G21
 -13554672.55147 -10532295.82445  23184489.8594                   23184487.2814
 -11332424.73048  -8803065.43745  22260460.7194                   22260460.9534
  -6067395.99647  -4637274.14845  22086424.8444                   22086423.0984
  12315139.40246   9715701.80543  24516888.2114                   24516887.4184
 -20151667.52048 -15672937.87946  21459344.4694                   21459341.6454
  15296218.23047  11921192.05545  22679707.9534                   22679706.7034
 -12567685.34448  -9769984.24646  21160288.2114                   21160286.0394
    638026.67647    603457.02045  22799837.2664                   22799835.6454
 -24235097.34847 -18876051.04345  22589383.1094                   22589379.2814
   8482654.75846   6679060.00843  24574434.3284                   24574432.0704
 11  8 17  3 21 30.0000000  0 10G12G25G26G18G05G30G29G15G02G21
 -13494069.39547 -10485072.57445  23196021.9144                   23196020.1174
 -11309220.77347  -8784984.44146  22264876.2344                   22264876.8244
  -6167443.71547  -4715233.36745  22067385.8054                   22067384.6374
  12196133.25446   9622969.85543  24494241.4224                   24494240.6054
 -20114198.29748 -15643741.07046  21466474.5084                   21466472.1954
  15335156.97347  11951533.94545  22687117.7584                   22687116.1024
 -12660221.61748  -9842090.41046  21142679.0634                   21142676.8794
    514618.37147    507294.75045  22776353.5634                   22776351.7814
 -24218151.62547 -18862846.58245  22592607.9304                   22592604.1214
   8393771.35546   6609800.35543  24557520.1254                   24557518.2464
 11  8 17  3 22  0.0000000  0 10G12G25G26G18G05G30G29G15G02G21
 -13433337.12947 -10437748.72745  23207579.2344                   23207577.0904
 -11285608.27348  -8766585.09846  22269369.8594                   22269369.8874
  -6267035.21147  -4792837.10545  22048434.9534                   22048433.0744
  12077320.45746   9530388.54743  24471632.5164                   24471631.4304
 -20076431.11748 -15614312.09446  21473661.2664                   21473659.1994
  15374405.57847  11982117.26645  22694586.4454                   22694584.6884
 -12752430.59448  -9913941.54346  21125132.5084                   21125130.2344
    391397.73047    411278.71945  22752905.3284                   22752903.8054
 -24201089.88347 -18849551.74245  22595854.5164                   22595850.4534
   8304879.55946   6540534.14143  24540604.6484                   24540602.5514
 11  8 17  3 22 30.0000000  0 10G12G25G26G18G05G30G29G15G02G21
 -13372490.14547 -10390335.49645  23219157.8054                   23219155.3404
 -11261600.76648  -8747877.96146  22273938.2274                   22273938.6844
  -6366177.83247  -4870091.07445  22029568.5394                   22029567.0314
  11958691.73846   9437950.65643  24449058.0864                   24449056.8954
 -20038379.00448 -15584661.08246  21480902.5634                   21480900.0234
  15413950.09847  12012931.18445  22702111.5634                   22702110.0704
 -12844320.78148  -9985544.27346  21107646.3914                   21107643.7734
    268357.09847    315402.95345  22729492.0394                   22729489.6954
 -24183922.31647 -18836174.42645  22599121.0554                   22599117.4224
   8215968.21146   6471252.68043  24523685.8984                   24523683.6334
 11  8 17  3 23  0.0000000  0 10G12G25G26G18G05G30G29G15G02G21
 -13311521.98047 -10342827.84045  23230759.8054                   23230757.8984
 -11237191.64147  -8728857.88345  22278583.1334                   22278583.1294
  -6464858.99247  -4946985.45345  22010789.8754                   22010788.2034
  11840257.65646   9345664.44543  24426521.3054                   24426519.6294
 -20000035.12948 -15554782.73846  21488198.8674                   21488196.0944
  15453796.66847  12043980.44145  22709694.1954                   22709692.7114
 -12935880.28948 -10056889.32446  21090222.8594                   21090220.7304
    145509.17247    219677.35245  22706114.4454                   22706112.6024
 -24166639.69947 -18822707.45745  22602410.1334                   22602406.0124
   8127046.07846   6401962.80543  24506764.3984                   24506762.5904
 11  8 17  3 23 30.0000000  0 10G12G25G26G18G05G30G29G15G02G21
 -13250441.64547 -10295232.75445  23242382.8444                   23242380.1644
 -11212389.47347  -8709531.52746  22283302.8054                   22283303.2464
  -6563081.28147  -5023522.26245  21992098.7504                   21992097.4144
  11722013.20346   9253526.07443  24404018.8914                   24404018.4774
 -19961408.07048 -15524683.71946  21495549.2424                   21495546.7544
  15493936.24247  12075258.03145  22717332.4774                   22717330.8754
 -13027112.71148 -10127979.50446  21072862.4224                   21072859.5944
     22850.68047    124099.36745  22682773.1644                   22682770.9574
 -24149247.05547 -18809154.76245  22605719.9224                   22605715.7074
   8038106.76246   6332659.55143  24489839.4144                   24489837.3754
 11  8 17  3 24  0.0000000  0 10G12G25G26G18G05G30G29G15G02G21
 -13189252.94947 -10247553.24244  23254026.3984                   23254024.0474
 -11187197.83647  -8689901.68446  22288096.3674                   22288096.6684
  -6660841.83247  -5099699.28945  21973495.3914                   21973493.7424
  11603959.06346   9161536.02743  24381553.9614                   24381553.8054
 -19922501.12548 -15494366.60946  21502953.3134                   21502950.4534
  15534364.76247  12106760.76245  22725025.3444                   22725024.4654
 -13118016.64148 -10198813.71146  21055563.6414                   21055561.4344
    -99616.03147     28670.80945  22659468.3984                   22659466.3634
 -24131744.96547 -18795516.78145  22609050.3594                   22609046.8244
   7949149.12546   6263342.00043  24472910.5234                   24472909.2544
 11  8 17  3 24 30.0000000  0 10G12G25G26G18G05G30G29G15G02G21
 -13127973.44947 -10199802.96944  23265687.8674                   23265685.2194
 -11161634.37148  -8669982.10946  22292960.9534                   22292961.5204
  -6758152.57847  -5175525.80945  21954978.2584                   21954976.4494
  11486081.17246   9069683.23043  24359123.1414                   24359121.8874
 -19883331.46148 -15463844.78146  21510406.9064                   21510404.8204
  15575064.23047  12138474.64145  22732770.4384                   22732768.2544
 -13208604.54748 -10269401.68446  21038325.5314                   21038322.9924
   -221902.62547    -66617.39145  22636198.2194                   22636196.4694
 -24114147.77047 -18781804.67645  22612398.9774                   22612394.8954
   7860157.80146   6193998.24243  24455977.3674                   24455974.2734
 11  8 17  3 25  0.0000000  0 10G12G25G26G18G05G30G29G15G02G21
 -13066590.34847 -10151971.98444  23277368.0704                   23277366.3054
 -11135685.91447  -8649762.53546  22297899.0164                   22297899.6294
  -6854994.20347  -5250986.78545  21936549.0234                   21936547.7424
  11368396.82445   8977981.29743  24336726.2584                   24336726.8524
 -19843885.81248 -15433107.90646  21517913.0634                   21517910.8204
  15616047.35947  12170409.54345  22740569.2584                   22740568.0984
 -13298858.07848 -10339729.08246  21021150.5234                   21021148.0394
   -343989.91447   -161750.30945  22612965.1644                   22612963.7344
 -24096439.62147 -18768006.13745  22615769.0314                   22615764.3554
   7771148.27046   6124640.25443  24439038.8524                   24439036.4804
 11  8 17  3 25 30.0000000  0 10G12G25G26G18G05G30G29G15G02G21
 -13005094.28947 -10104052.98844  23289071.0864                   23289068.8054
 -11109342.53547  -8629235.22746  22302911.9924                   22302912.7034
  -6951350.66447  -5326069.69945  21918213.5634                   21918211.7504
  11250919.62946   8886440.75442  24314372.7274                   24314371.4924
 -19804153.93448 -15402147.98846  21525473.6024                   21525471.2814
  15657323.64547  12202572.89545  22748424.1724                   22748421.5904
 -13388762.19148 -10409784.21946  21004042.6644                   21004039.9454
   -465862.35247   -256715.79745  22589774.3674                   22589772.6644
 -24078607.26647 -18754110.80945  22619162.5554                   22619158.2074
   7682132.83146   6055277.63443  24422099.1024                   24422097.0904
 11  8 17  3 26  0.0000000  0 10G12G25G26G18G05G30G29G15G02G21
 -12943507.09047 -10056062.95344  23300790.1484                   23300788.5044
 -11082625.84847  -8608417.04345  22307995.7734                   22307996.1524
  -7047237.54747  -5400786.71145  21899966.4614                   21899964.8554
  11133632.14146   8795048.04743  24292052.9844                   24292052.5004
 -19764157.01648 -15370981.55946  21533085.2274                   21533082.6804
  15698870.96147  12234947.41845  22756329.9384                   22756328.7814
 -13478333.62148 -10479580.12546  20986997.2734                   20986995.0204
   -587535.39147   -351525.92245  22566620.5084                   22566617.8134
 -24060669.00047 -18740132.96545  22622575.6094                   22622571.6564
   7593092.40246   5985895.57843  24405154.5474                   24405153.5394
 11  8 17  3 26 30.0000000  0 10G12G25G26G18G05G30G29G15G02G21
 -12881822.05147 -10007996.70744  23312528.4774                   23312527.1294
 -11055528.98847  -8587302.59446  22313152.2194                   22313152.3404
  -7142641.92247  -5475127.74245  21881811.7274                   21881810.4734
  11016545.28146   8703811.63343  24269772.8914                   24269771.5864
 -19723888.02748 -15339603.10946  21540747.8524                   21540745.6294
  15740696.00847  12267538.38745  22764288.6884                   22764287.0204
 -13567560.14148 -10549107.26246  20970017.8444                   20970015.4774
   -708996.21147   -446170.68045  22543507.4304                   22543505.2664
 -24042614.63747 -18726064.65245  22626011.5164                   22626007.4774
   7504036.07846   5916501.10243  24388208.2114                   24388206.7074
 11  8 17  3 27  0.0000000  0 10G12G25G26G18G05G30G29G15G02G21
 -12820039.50447  -9959854.46544  23324285.2504                   23324283.5944
 -11028051.89848  -8565891.89545  22318381.4694                   22318381.5904
  -7237557.83647  -5549088.15645  21863749.8754                   21863748.3204
  10899662.56346   8612734.27743  24247530.3834                   24247529.2154
 -19683346.36748 -15308012.20346  21548462.5634                   21548460.1254
  15782798.14547  12300345.24645  22772301.0004                   22772299.2504
 -13656436.28948 -10618361.39146  20953105.5634                   20953103.1484
   -830239.18747   -540645.68745  22520435.4694                   22520433.3634
 -24024441.12147 -18711903.48045  22629470.2734                   22629465.6564
   7414966.44146   5847096.28943  24371259.0164                   24371257.7814
 11  8 17  3 27 30.0000000  0 10G12G25G26G18G05G30G29G15G02G21
 -12758175.77347  -9911648.97745  23336058.0944                   23336056.0044
 -11000210.90247  -8544197.59045  22323678.9844                   22323679.3874
  -7331995.34847  -5622675.78945  21845779.0704                   21845777.2274
  10782971.85246   8521806.52043  24225325.8984                   24225323.7384
 -19642547.77348 -15276221.07846  21556226.8364                   21556224.0984
  15825160.84047  12333355.15645  22780361.8444                   22780360.5784
 -13744973.90248 -10687351.71146  20936257.3834                   20936254.8554
   -951274.51647   -634958.89845  22497403.2424                   22497400.8484
 -24006161.49647 -18697659.64545  22632947.9454                   22632944.3754
   7325869.50446   5777670.18043  24354304.5864                   24354302.4964
 11  8 17  3 28  0.0000000  0 10G12G25G26G18G05G30G29G15G02G21
 -12696223.65647  -9863374.61745  23347847.4224                   23347845.4804
 -10971998.48048  -8522213.89545  22329047.5164                   22329047.9304
  -7425941.10247  -5695880.23845  21827901.6094                   21827900.0594
  10666484.94946   8431037.56343  24203158.3524                   24203156.0044
 -19601484.50848 -15244223.72346  21564040.7194                   21564037.8914
  15867791.24247  12366573.65245  22788474.0474                   22788473.3984
 -13833160.05948 -10756068.17246  20919475.8364                   20919473.8984
  -1072088.75847   -729099.82445  22474412.6484                   22474410.7274
 -23987765.19547 -18683324.88345  22636448.5164                   22636445.1374
   7236754.94946   5708230.35243  24337346.6254                   24337344.0554
 11  8 17  3 28 30.0000000  0 10G12G25G26G18G05G30G29G15G02G21
 -12634186.18747  -9815033.75045  23359652.5234                   23359650.4534
 -10943417.63748  -8499943.10945  22334486.6334                   22334486.6764
  -7519391.59047  -5768698.77345  21810118.8594                   21810117.2384
  10550202.19547   8340427.71143  24181030.7194                   24181028.5354
 -19560159.55548 -15212022.46146  21571904.7504                   21571901.5824
  15910685.83247  12399998.03544  22796636.8524                   22796635.4574
 -13920992.59448 -10824509.09446  20902761.9774                   20902759.6214
  -1192678.69547   -823065.97345  22451465.0944                   22451462.6484
 -23969251.77347 -18668898.85945  22639971.6334                   22639968.1454
   7147622.97746   5638776.94943  24320385.1414                   24320383.3874
 11  8 17  3 29  0.0000000  0 10G12G25G26G18G05G30G29G15G02G21
 -12572077.34447  -9766637.26244  23371470.8754                   23371469.3554
 -10914482.17247  -8477395.98446  22339992.9534                   22339993.0234
  -7612355.13747  -5841137.86345  21792428.0394                   21792426.7274
  10434114.04347   8249969.45743  24158939.7664                   24158938.1804
 -19518585.94948 -15179627.43746  21579815.6414                   21579812.6054
  15953830.56347  12433617.29345  22804847.2974                   22804845.9144
 -14008479.86348 -10892680.97346  20886113.9144                   20886111.3714
  -1313052.66047   -916863.82445  22428558.5784                   22428556.5474
 -23950631.74647 -18654389.78545  22643515.7894                   22643511.0744
   7058461.55946   5569300.57443  24303417.8674                   24303415.8594
 11  8 17  3 29 30.0000000  0 10G12G25G26G18G05G30G29G15G02G21
 -12509898.70747  -9718186.38345  23383303.7114                   23383301.5314
 -10885193.29347  -8454573.48445  22345566.3134                   22345566.6254
  -7704826.72747  -5913193.61745  21774831.8834                   21774830.0744
  10318223.19947   8159664.99643  24136886.2274                   24136884.5234
 -19476764.60248 -15147039.36346  21587774.4224                   21587771.4964
  15997223.76647  12467430.18444  22813104.2584                   22813102.9064
 -14095618.23448 -10960580.98046  20869531.8364                   20869529.6134
  -1433205.57447  -1010489.42245  22405694.3984                   22405692.2774
 -23931903.15647 -18639796.08245  22647078.7034                   22647075.7074
   6969271.98446   5499802.26244  24286445.6414                   24286443.9184
 11  8 17  3 30  0.0000000  0 10G12G25G26G18G05G30G29G15G02G21
 -12447647.58247  -9669679.03544  23395149.4224                   23395147.9574
 -10855548.31647  -8431473.50045  22351207.5004                   22351208.0904
  -7796797.61747  -5984859.21145  21757330.4144                   21757328.2584
  10202536.36346   8069519.51643  24114871.7034                   24114870.0984
 -19434692.34048 -15114255.77746  21595780.1414                   21595777.3204
  16040867.82847  12501438.53944  22821409.6414                   22821408.4224
 -14182399.96948 -11028203.09446  20853018.0394                   20853015.5234
  -1553128.87547  -1103936.09845  22382873.9144                   22382871.6454
 -23913059.98847 -18625113.12545  22650664.9614                   22650660.9804
   6880059.53946   5430286.16444  24269469.6334                   24269467.3714
 11  8 17  3 30 30.0000000  0 10G12G25G26G18G05G30G29G15G02G21
 -12385330.22746  -9621120.06644  23407007.6024                   23407005.9574
 -10825553.24247  -8408100.73045  22356914.9454                   22356915.7704
  -7888267.78547  -6056134.64145  21739923.7034                   21739921.7934
  10087051.13346   7979531.10943  24092895.5944                   24092893.8594
 -19392374.73048 -15081281.01646  21603833.4224                   21603830.6884
  16084756.37947  12535637.39844  22829761.1024                   22829760.0314
 -14268825.55548 -11095547.69146  20836571.4534                   20836569.0984
  -1672822.61347  -1197203.89545  22360096.8444                   22360094.7304
 -23894105.03147 -18610343.04745  22654272.1724                   22654267.7194
   6790820.97346   5360749.71943  24252487.9774                   24252485.4414
